<?xml version="1.0" encoding="UTF-8" standalone="no" ?>
<gpx xmlns="http://www.topografix.com/GPX/1/1" xmlns:xsi="http://www.w3.org/2001/XMLSchema-instance" xsi:schemaLocation="http://www.topografix.com/GPX/1/1 http://www.topografix.com/GPX/1/1/gpx.xsd" version="1.1" creator="VisuGPX - https://www.visugpx.com">
  <metadata>
    <name>17-AOU-21 14:40:05</name>
    <desc><![CDATA[mont Pelvo 3025m du parking avant le col agnèle]]></desc>
  </metadata>
  <trk>
    <name><![CDATA[17-AOU-21 14:40:05]]></name>
    <trkseg>
      <trkpt lat="44.75885" lon="6.82041">
        <ele>1414.72</ele>
        <time>2021-08-17T07:07:02Z</time>
      </trkpt>
      <trkpt lat="44.75901" lon="6.82048">
        <ele>1407.51</ele>
        <time>2021-08-17T07:07:15Z</time>
      </trkpt>
      <trkpt lat="44.75901" lon="6.8205">
        <ele>1404.14</ele>
        <time>2021-08-17T07:07:32Z</time>
      </trkpt>
      <trkpt lat="44.75899" lon="6.82051">
        <ele>1402.22</ele>
        <time>2021-08-17T07:07:45Z</time>
      </trkpt>
      <trkpt lat="44.75902" lon="6.82052">
        <ele>1404.14</ele>
        <time>2021-08-17T07:08:01Z</time>
      </trkpt>
      <trkpt lat="44.75903" lon="6.8205">
        <ele>1404.62</ele>
        <time>2021-08-17T07:08:17Z</time>
      </trkpt>
      <trkpt lat="44.75904" lon="6.8205">
        <ele>1405.1</ele>
        <time>2021-08-17T07:08:27Z</time>
      </trkpt>
      <trkpt lat="44.69019" lon="6.97589">
        <ele>2601.95</ele>
        <time>2021-08-17T08:34:32Z</time>
      </trkpt>
      <trkpt lat="44.69014" lon="6.97604">
        <ele>2615.88</ele>
        <time>2021-08-17T08:34:38Z</time>
      </trkpt>
      <trkpt lat="44.69012" lon="6.97605">
        <ele>2618.29</ele>
        <time>2021-08-17T08:34:40Z</time>
      </trkpt>
      <trkpt lat="44.69005" lon="6.97598">
        <ele>2621.65</ele>
        <time>2021-08-17T08:34:48Z</time>
      </trkpt>
      <trkpt lat="44.69008" lon="6.97581">
        <ele>2624.06</ele>
        <time>2021-08-17T08:34:57Z</time>
      </trkpt>
      <trkpt lat="44.69001" lon="6.9757">
        <ele>2625.02</ele>
        <time>2021-08-17T08:35:06Z</time>
      </trkpt>
      <trkpt lat="44.68999" lon="6.9757">
        <ele>2624.54</ele>
        <time>2021-08-17T08:35:08Z</time>
      </trkpt>
      <trkpt lat="44.68997" lon="6.9757">
        <ele>2624.06</ele>
        <time>2021-08-17T08:35:10Z</time>
      </trkpt>
      <trkpt lat="44.68985" lon="6.9757">
        <ele>2625.5</ele>
        <time>2021-08-17T08:35:20Z</time>
      </trkpt>
      <trkpt lat="44.68975" lon="6.97573">
        <ele>2627.42</ele>
        <time>2021-08-17T08:35:31Z</time>
      </trkpt>
      <trkpt lat="44.68974" lon="6.97573">
        <ele>2627.42</ele>
        <time>2021-08-17T08:35:32Z</time>
      </trkpt>
      <trkpt lat="44.68964" lon="6.97573">
        <ele>2629.82</ele>
        <time>2021-08-17T08:35:44Z</time>
      </trkpt>
      <trkpt lat="44.68955" lon="6.97579">
        <ele>2632.23</ele>
        <time>2021-08-17T08:35:56Z</time>
      </trkpt>
      <trkpt lat="44.68946" lon="6.97582">
        <ele>2635.11</ele>
        <time>2021-08-17T08:36:07Z</time>
      </trkpt>
      <trkpt lat="44.68939" lon="6.97578">
        <ele>2637.03</ele>
        <time>2021-08-17T08:36:16Z</time>
      </trkpt>
      <trkpt lat="44.68931" lon="6.97575">
        <ele>2638.48</ele>
        <time>2021-08-17T08:36:25Z</time>
      </trkpt>
      <trkpt lat="44.68923" lon="6.97574">
        <ele>2641.84</ele>
        <time>2021-08-17T08:36:37Z</time>
      </trkpt>
      <trkpt lat="44.6891" lon="6.97584">
        <ele>2635.59</ele>
        <time>2021-08-17T08:36:49Z</time>
      </trkpt>
      <trkpt lat="44.68911" lon="6.97585">
        <ele>2635.11</ele>
        <time>2021-08-17T08:36:50Z</time>
      </trkpt>
      <trkpt lat="44.68909" lon="6.97584">
        <ele>2633.19</ele>
        <time>2021-08-17T08:36:54Z</time>
      </trkpt>
      <trkpt lat="44.68905" lon="6.97575">
        <ele>2631.27</ele>
        <time>2021-08-17T08:37:02Z</time>
      </trkpt>
      <trkpt lat="44.68903" lon="6.97569">
        <ele>2629.82</ele>
        <time>2021-08-17T08:37:08Z</time>
      </trkpt>
      <trkpt lat="44.68902" lon="6.9756">
        <ele>2629.34</ele>
        <time>2021-08-17T08:37:16Z</time>
      </trkpt>
      <trkpt lat="44.68902" lon="6.97558">
        <ele>2628.86</ele>
        <time>2021-08-17T08:37:18Z</time>
      </trkpt>
      <trkpt lat="44.68898" lon="6.97548">
        <ele>2627.9</ele>
        <time>2021-08-17T08:37:27Z</time>
      </trkpt>
      <trkpt lat="44.68895" lon="6.97538">
        <ele>2626.46</ele>
        <time>2021-08-17T08:37:35Z</time>
      </trkpt>
      <trkpt lat="44.68895" lon="6.97536">
        <ele>2625.98</ele>
        <time>2021-08-17T08:37:37Z</time>
      </trkpt>
      <trkpt lat="44.68892" lon="6.97528">
        <ele>2625.02</ele>
        <time>2021-08-17T08:37:43Z</time>
      </trkpt>
      <trkpt lat="44.68892" lon="6.97518">
        <ele>2624.06</ele>
        <time>2021-08-17T08:37:52Z</time>
      </trkpt>
      <trkpt lat="44.68892" lon="6.97507">
        <ele>2623.09</ele>
        <time>2021-08-17T08:38:01Z</time>
      </trkpt>
      <trkpt lat="44.6889" lon="6.97497">
        <ele>2621.65</ele>
        <time>2021-08-17T08:38:10Z</time>
      </trkpt>
      <trkpt lat="44.6889" lon="6.9749">
        <ele>2621.65</ele>
        <time>2021-08-17T08:38:16Z</time>
      </trkpt>
      <trkpt lat="44.68888" lon="6.97482">
        <ele>2620.69</ele>
        <time>2021-08-17T08:38:23Z</time>
      </trkpt>
      <trkpt lat="44.68884" lon="6.97474">
        <ele>2619.25</ele>
        <time>2021-08-17T08:38:31Z</time>
      </trkpt>
      <trkpt lat="44.6888" lon="6.97467">
        <ele>2618.29</ele>
        <time>2021-08-17T08:38:39Z</time>
      </trkpt>
      <trkpt lat="44.68874" lon="6.97462">
        <ele>2619.73</ele>
        <time>2021-08-17T08:38:46Z</time>
      </trkpt>
      <trkpt lat="44.68867" lon="6.97455">
        <ele>2620.21</ele>
        <time>2021-08-17T08:38:54Z</time>
      </trkpt>
      <trkpt lat="44.68863" lon="6.97451">
        <ele>2621.17</ele>
        <time>2021-08-17T08:39:00Z</time>
      </trkpt>
      <trkpt lat="44.68861" lon="6.97447">
        <ele>2621.65</ele>
        <time>2021-08-17T08:39:03Z</time>
      </trkpt>
      <trkpt lat="44.68856" lon="6.97442">
        <ele>2623.09</ele>
        <time>2021-08-17T08:39:12Z</time>
      </trkpt>
      <trkpt lat="44.6885" lon="6.9744">
        <ele>2622.61</ele>
        <time>2021-08-17T08:39:20Z</time>
      </trkpt>
      <trkpt lat="44.68846" lon="6.97443">
        <ele>2620.69</ele>
        <time>2021-08-17T08:39:27Z</time>
      </trkpt>
      <trkpt lat="44.6884" lon="6.97443">
        <ele>2620.69</ele>
        <time>2021-08-17T08:39:34Z</time>
      </trkpt>
      <trkpt lat="44.68836" lon="6.97445">
        <ele>2620.21</ele>
        <time>2021-08-17T08:39:43Z</time>
      </trkpt>
      <trkpt lat="44.68835" lon="6.97445">
        <ele>2619.25</ele>
        <time>2021-08-17T08:39:50Z</time>
      </trkpt>
      <trkpt lat="44.68835" lon="6.97445">
        <ele>2618.77</ele>
        <time>2021-08-17T08:39:52Z</time>
      </trkpt>
      <trkpt lat="44.6883" lon="6.97448">
        <ele>2618.77</ele>
        <time>2021-08-17T08:39:57Z</time>
      </trkpt>
      <trkpt lat="44.68826" lon="6.97451">
        <ele>2618.29</ele>
        <time>2021-08-17T08:40:02Z</time>
      </trkpt>
      <trkpt lat="44.68824" lon="6.97454">
        <ele>2618.77</ele>
        <time>2021-08-17T08:40:05Z</time>
      </trkpt>
      <trkpt lat="44.68819" lon="6.97458">
        <ele>2618.77</ele>
        <time>2021-08-17T08:40:12Z</time>
      </trkpt>
      <trkpt lat="44.68815" lon="6.97459">
        <ele>2619.25</ele>
        <time>2021-08-17T08:40:18Z</time>
      </trkpt>
      <trkpt lat="44.6881" lon="6.97463">
        <ele>2620.21</ele>
        <time>2021-08-17T08:40:24Z</time>
      </trkpt>
      <trkpt lat="44.68804" lon="6.97464">
        <ele>2620.21</ele>
        <time>2021-08-17T08:40:31Z</time>
      </trkpt>
      <trkpt lat="44.68799" lon="6.97463">
        <ele>2621.17</ele>
        <time>2021-08-17T08:40:38Z</time>
      </trkpt>
      <trkpt lat="44.68794" lon="6.97462">
        <ele>2621.65</ele>
        <time>2021-08-17T08:40:44Z</time>
      </trkpt>
      <trkpt lat="44.68791" lon="6.97461">
        <ele>2622.61</ele>
        <time>2021-08-17T08:40:46Z</time>
      </trkpt>
      <trkpt lat="44.68788" lon="6.9746">
        <ele>2623.09</ele>
        <time>2021-08-17T08:40:50Z</time>
      </trkpt>
      <trkpt lat="44.68784" lon="6.97465">
        <ele>2622.13</ele>
        <time>2021-08-17T08:40:58Z</time>
      </trkpt>
      <trkpt lat="44.68784" lon="6.97465">
        <ele>2621.17</ele>
        <time>2021-08-17T08:41:07Z</time>
      </trkpt>
      <trkpt lat="44.6878" lon="6.97466">
        <ele>2620.21</ele>
        <time>2021-08-17T08:41:14Z</time>
      </trkpt>
      <trkpt lat="44.68775" lon="6.97468">
        <ele>2620.21</ele>
        <time>2021-08-17T08:41:21Z</time>
      </trkpt>
      <trkpt lat="44.68773" lon="6.97468">
        <ele>2619.25</ele>
        <time>2021-08-17T08:41:27Z</time>
      </trkpt>
      <trkpt lat="44.68771" lon="6.97468">
        <ele>2618.77</ele>
        <time>2021-08-17T08:41:37Z</time>
      </trkpt>
      <trkpt lat="44.6877" lon="6.97468">
        <ele>2618.77</ele>
        <time>2021-08-17T08:41:39Z</time>
      </trkpt>
      <trkpt lat="44.68767" lon="6.97469">
        <ele>2618.77</ele>
        <time>2021-08-17T08:41:43Z</time>
      </trkpt>
      <trkpt lat="44.68762" lon="6.97469">
        <ele>2618.77</ele>
        <time>2021-08-17T08:41:48Z</time>
      </trkpt>
      <trkpt lat="44.68754" lon="6.97471">
        <ele>2619.25</ele>
        <time>2021-08-17T08:41:56Z</time>
      </trkpt>
      <trkpt lat="44.68748" lon="6.97473">
        <ele>2620.21</ele>
        <time>2021-08-17T08:42:02Z</time>
      </trkpt>
      <trkpt lat="44.68747" lon="6.97475">
        <ele>2620.21</ele>
        <time>2021-08-17T08:42:04Z</time>
      </trkpt>
      <trkpt lat="44.68739" lon="6.97475">
        <ele>2619.25</ele>
        <time>2021-08-17T08:42:13Z</time>
      </trkpt>
      <trkpt lat="44.68732" lon="6.97474">
        <ele>2619.25</ele>
        <time>2021-08-17T08:42:22Z</time>
      </trkpt>
      <trkpt lat="44.68726" lon="6.97477">
        <ele>2618.29</ele>
        <time>2021-08-17T08:42:29Z</time>
      </trkpt>
      <trkpt lat="44.6872" lon="6.97479">
        <ele>2618.29</ele>
        <time>2021-08-17T08:42:36Z</time>
      </trkpt>
      <trkpt lat="44.68713" lon="6.97484">
        <ele>2615.88</ele>
        <time>2021-08-17T08:42:46Z</time>
      </trkpt>
      <trkpt lat="44.6871" lon="6.97487">
        <ele>2613</ele>
        <time>2021-08-17T08:42:52Z</time>
      </trkpt>
      <trkpt lat="44.68706" lon="6.97489">
        <ele>2612.52</ele>
        <time>2021-08-17T08:42:59Z</time>
      </trkpt>
      <trkpt lat="44.68701" lon="6.97492">
        <ele>2613</ele>
        <time>2021-08-17T08:43:06Z</time>
      </trkpt>
      <trkpt lat="44.68697" lon="6.97494">
        <ele>2612.52</ele>
        <time>2021-08-17T08:43:11Z</time>
      </trkpt>
      <trkpt lat="44.68691" lon="6.97494">
        <ele>2611.56</ele>
        <time>2021-08-17T08:43:19Z</time>
      </trkpt>
      <trkpt lat="44.68688" lon="6.97492">
        <ele>2612.04</ele>
        <time>2021-08-17T08:43:26Z</time>
      </trkpt>
      <trkpt lat="44.68685" lon="6.97491">
        <ele>2613.48</ele>
        <time>2021-08-17T08:43:32Z</time>
      </trkpt>
      <trkpt lat="44.68685" lon="6.97491">
        <ele>2613.96</ele>
        <time>2021-08-17T08:43:37Z</time>
      </trkpt>
      <trkpt lat="44.68682" lon="6.97492">
        <ele>2614.92</ele>
        <time>2021-08-17T08:43:40Z</time>
      </trkpt>
      <trkpt lat="44.68681" lon="6.97491">
        <ele>2616.37</ele>
        <time>2021-08-17T08:43:45Z</time>
      </trkpt>
      <trkpt lat="44.6868" lon="6.9749">
        <ele>2616.85</ele>
        <time>2021-08-17T08:43:46Z</time>
      </trkpt>
      <trkpt lat="44.68673" lon="6.97489">
        <ele>2618.77</ele>
        <time>2021-08-17T08:43:53Z</time>
      </trkpt>
      <trkpt lat="44.68668" lon="6.9749">
        <ele>2620.21</ele>
        <time>2021-08-17T08:43:59Z</time>
      </trkpt>
      <trkpt lat="44.68668" lon="6.97491">
        <ele>2620.21</ele>
        <time>2021-08-17T08:44:00Z</time>
      </trkpt>
      <trkpt lat="44.68662" lon="6.97495">
        <ele>2622.13</ele>
        <time>2021-08-17T08:44:09Z</time>
      </trkpt>
      <trkpt lat="44.68658" lon="6.97496">
        <ele>2623.09</ele>
        <time>2021-08-17T08:44:16Z</time>
      </trkpt>
      <trkpt lat="44.68653" lon="6.97498">
        <ele>2623.09</ele>
        <time>2021-08-17T08:44:24Z</time>
      </trkpt>
      <trkpt lat="44.6865" lon="6.97502">
        <ele>2623.09</ele>
        <time>2021-08-17T08:44:30Z</time>
      </trkpt>
      <trkpt lat="44.6865" lon="6.97502">
        <ele>2623.09</ele>
        <time>2021-08-17T08:44:31Z</time>
      </trkpt>
      <trkpt lat="44.68644" lon="6.97503">
        <ele>2624.06</ele>
        <time>2021-08-17T08:44:38Z</time>
      </trkpt>
      <trkpt lat="44.68637" lon="6.97506">
        <ele>2625.02</ele>
        <time>2021-08-17T08:44:46Z</time>
      </trkpt>
      <trkpt lat="44.68636" lon="6.97507">
        <ele>2625.5</ele>
        <time>2021-08-17T08:44:48Z</time>
      </trkpt>
      <trkpt lat="44.68632" lon="6.9751">
        <ele>2625.98</ele>
        <time>2021-08-17T08:44:55Z</time>
      </trkpt>
      <trkpt lat="44.68628" lon="6.97513">
        <ele>2625.98</ele>
        <time>2021-08-17T08:45:00Z</time>
      </trkpt>
      <trkpt lat="44.68623" lon="6.97516">
        <ele>2625.98</ele>
        <time>2021-08-17T08:45:08Z</time>
      </trkpt>
      <trkpt lat="44.6862" lon="6.97516">
        <ele>2625.98</ele>
        <time>2021-08-17T08:45:12Z</time>
      </trkpt>
      <trkpt lat="44.68616" lon="6.97515">
        <ele>2625.98</ele>
        <time>2021-08-17T08:45:18Z</time>
      </trkpt>
      <trkpt lat="44.68612" lon="6.97516">
        <ele>2625.98</ele>
        <time>2021-08-17T08:45:24Z</time>
      </trkpt>
      <trkpt lat="44.68608" lon="6.97516">
        <ele>2626.94</ele>
        <time>2021-08-17T08:45:30Z</time>
      </trkpt>
      <trkpt lat="44.68603" lon="6.97515">
        <ele>2627.42</ele>
        <time>2021-08-17T08:45:36Z</time>
      </trkpt>
      <trkpt lat="44.68601" lon="6.97516">
        <ele>2626.94</ele>
        <time>2021-08-17T08:45:41Z</time>
      </trkpt>
      <trkpt lat="44.68595" lon="6.97516">
        <ele>2626.46</ele>
        <time>2021-08-17T08:45:49Z</time>
      </trkpt>
      <trkpt lat="44.68592" lon="6.97517">
        <ele>2626.46</ele>
        <time>2021-08-17T08:45:55Z</time>
      </trkpt>
      <trkpt lat="44.68589" lon="6.97519">
        <ele>2626.46</ele>
        <time>2021-08-17T08:46:01Z</time>
      </trkpt>
      <trkpt lat="44.68587" lon="6.97519">
        <ele>2626.94</ele>
        <time>2021-08-17T08:46:06Z</time>
      </trkpt>
      <trkpt lat="44.68584" lon="6.97521">
        <ele>2625.5</ele>
        <time>2021-08-17T08:46:12Z</time>
      </trkpt>
      <trkpt lat="44.6858" lon="6.97521">
        <ele>2623.58</ele>
        <time>2021-08-17T08:46:18Z</time>
      </trkpt>
      <trkpt lat="44.68575" lon="6.97521">
        <ele>2622.13</ele>
        <time>2021-08-17T08:46:26Z</time>
      </trkpt>
      <trkpt lat="44.68572" lon="6.9752">
        <ele>2620.69</ele>
        <time>2021-08-17T08:46:30Z</time>
      </trkpt>
      <trkpt lat="44.68569" lon="6.97515">
        <ele>2623.58</ele>
        <time>2021-08-17T08:46:37Z</time>
      </trkpt>
      <trkpt lat="44.68569" lon="6.97514">
        <ele>2623.58</ele>
        <time>2021-08-17T08:46:38Z</time>
      </trkpt>
      <trkpt lat="44.68565" lon="6.9751">
        <ele>2624.06</ele>
        <time>2021-08-17T08:46:45Z</time>
      </trkpt>
      <trkpt lat="44.68563" lon="6.97509">
        <ele>2623.58</ele>
        <time>2021-08-17T08:46:52Z</time>
      </trkpt>
      <trkpt lat="44.68563" lon="6.97509">
        <ele>2623.58</ele>
        <time>2021-08-17T08:46:53Z</time>
      </trkpt>
      <trkpt lat="44.68559" lon="6.97507">
        <ele>2624.06</ele>
        <time>2021-08-17T08:47:00Z</time>
      </trkpt>
      <trkpt lat="44.68556" lon="6.97506">
        <ele>2624.06</ele>
        <time>2021-08-17T08:47:06Z</time>
      </trkpt>
      <trkpt lat="44.68551" lon="6.97505">
        <ele>2623.58</ele>
        <time>2021-08-17T08:47:15Z</time>
      </trkpt>
      <trkpt lat="44.6855" lon="6.97505">
        <ele>2623.58</ele>
        <time>2021-08-17T08:47:18Z</time>
      </trkpt>
      <trkpt lat="44.68548" lon="6.97503">
        <ele>2622.61</ele>
        <time>2021-08-17T08:47:25Z</time>
      </trkpt>
      <trkpt lat="44.68547" lon="6.97502">
        <ele>2623.09</ele>
        <time>2021-08-17T08:47:30Z</time>
      </trkpt>
      <trkpt lat="44.68544" lon="6.97501">
        <ele>2622.61</ele>
        <time>2021-08-17T08:47:38Z</time>
      </trkpt>
      <trkpt lat="44.68541" lon="6.975">
        <ele>2621.65</ele>
        <time>2021-08-17T08:47:45Z</time>
      </trkpt>
      <trkpt lat="44.68539" lon="6.97495">
        <ele>2624.54</ele>
        <time>2021-08-17T08:47:52Z</time>
      </trkpt>
      <trkpt lat="44.68537" lon="6.97485">
        <ele>2624.06</ele>
        <time>2021-08-17T08:48:01Z</time>
      </trkpt>
      <trkpt lat="44.68533" lon="6.97482">
        <ele>2623.58</ele>
        <time>2021-08-17T08:48:07Z</time>
      </trkpt>
      <trkpt lat="44.6853" lon="6.97479">
        <ele>2623.09</ele>
        <time>2021-08-17T08:48:14Z</time>
      </trkpt>
      <trkpt lat="44.68527" lon="6.97478">
        <ele>2623.09</ele>
        <time>2021-08-17T08:48:20Z</time>
      </trkpt>
      <trkpt lat="44.68523" lon="6.97477">
        <ele>2622.61</ele>
        <time>2021-08-17T08:48:26Z</time>
      </trkpt>
      <trkpt lat="44.6852" lon="6.97476">
        <ele>2622.13</ele>
        <time>2021-08-17T08:48:32Z</time>
      </trkpt>
      <trkpt lat="44.6852" lon="6.97474">
        <ele>2621.65</ele>
        <time>2021-08-17T08:48:34Z</time>
      </trkpt>
      <trkpt lat="44.68518" lon="6.97466">
        <ele>2621.17</ele>
        <time>2021-08-17T08:48:42Z</time>
      </trkpt>
      <trkpt lat="44.68517" lon="6.97463">
        <ele>2622.13</ele>
        <time>2021-08-17T08:48:48Z</time>
      </trkpt>
      <trkpt lat="44.68516" lon="6.97458">
        <ele>2621.65</ele>
        <time>2021-08-17T08:48:57Z</time>
      </trkpt>
      <trkpt lat="44.68513" lon="6.97456">
        <ele>2621.17</ele>
        <time>2021-08-17T08:49:04Z</time>
      </trkpt>
      <trkpt lat="44.6851" lon="6.97452">
        <ele>2621.17</ele>
        <time>2021-08-17T08:49:10Z</time>
      </trkpt>
      <trkpt lat="44.68507" lon="6.97446">
        <ele>2621.17</ele>
        <time>2021-08-17T08:49:16Z</time>
      </trkpt>
      <trkpt lat="44.68504" lon="6.97439">
        <ele>2621.17</ele>
        <time>2021-08-17T08:49:24Z</time>
      </trkpt>
      <trkpt lat="44.68502" lon="6.97433">
        <ele>2621.65</ele>
        <time>2021-08-17T08:49:32Z</time>
      </trkpt>
      <trkpt lat="44.685" lon="6.97431">
        <ele>2621.65</ele>
        <time>2021-08-17T08:49:36Z</time>
      </trkpt>
      <trkpt lat="44.68494" lon="6.97426">
        <ele>2621.17</ele>
        <time>2021-08-17T08:49:46Z</time>
      </trkpt>
      <trkpt lat="44.68493" lon="6.97425">
        <ele>2621.17</ele>
        <time>2021-08-17T08:49:52Z</time>
      </trkpt>
      <trkpt lat="44.68491" lon="6.97423">
        <ele>2622.13</ele>
        <time>2021-08-17T08:50:00Z</time>
      </trkpt>
      <trkpt lat="44.68487" lon="6.97419">
        <ele>2620.69</ele>
        <time>2021-08-17T08:50:07Z</time>
      </trkpt>
      <trkpt lat="44.68483" lon="6.97415">
        <ele>2619.73</ele>
        <time>2021-08-17T08:50:14Z</time>
      </trkpt>
      <trkpt lat="44.68483" lon="6.97414">
        <ele>2620.21</ele>
        <time>2021-08-17T08:50:18Z</time>
      </trkpt>
      <trkpt lat="44.68481" lon="6.9741">
        <ele>2619.73</ele>
        <time>2021-08-17T08:50:25Z</time>
      </trkpt>
      <trkpt lat="44.68479" lon="6.97405">
        <ele>2618.77</ele>
        <time>2021-08-17T08:50:33Z</time>
      </trkpt>
      <trkpt lat="44.68478" lon="6.97405">
        <ele>2618.77</ele>
        <time>2021-08-17T08:50:37Z</time>
      </trkpt>
      <trkpt lat="44.68475" lon="6.97403">
        <ele>2618.29</ele>
        <time>2021-08-17T08:50:44Z</time>
      </trkpt>
      <trkpt lat="44.68471" lon="6.97396">
        <ele>2618.77</ele>
        <time>2021-08-17T08:50:50Z</time>
      </trkpt>
      <trkpt lat="44.68466" lon="6.97387">
        <ele>2619.25</ele>
        <time>2021-08-17T08:50:57Z</time>
      </trkpt>
      <trkpt lat="44.68464" lon="6.97383">
        <ele>2618.77</ele>
        <time>2021-08-17T08:51:03Z</time>
      </trkpt>
      <trkpt lat="44.68462" lon="6.97381">
        <ele>2620.21</ele>
        <time>2021-08-17T08:51:09Z</time>
      </trkpt>
      <trkpt lat="44.68461" lon="6.97382">
        <ele>2620.21</ele>
        <time>2021-08-17T08:51:10Z</time>
      </trkpt>
      <trkpt lat="44.68458" lon="6.97379">
        <ele>2622.13</ele>
        <time>2021-08-17T08:51:16Z</time>
      </trkpt>
      <trkpt lat="44.68456" lon="6.97378">
        <ele>2622.61</ele>
        <time>2021-08-17T08:51:21Z</time>
      </trkpt>
      <trkpt lat="44.68452" lon="6.97371">
        <ele>2624.54</ele>
        <time>2021-08-17T08:51:29Z</time>
      </trkpt>
      <trkpt lat="44.68452" lon="6.97368">
        <ele>2625.02</ele>
        <time>2021-08-17T08:51:35Z</time>
      </trkpt>
      <trkpt lat="44.68451" lon="6.97367">
        <ele>2625.98</ele>
        <time>2021-08-17T08:51:42Z</time>
      </trkpt>
      <trkpt lat="44.68449" lon="6.97365">
        <ele>2627.42</ele>
        <time>2021-08-17T08:51:48Z</time>
      </trkpt>
      <trkpt lat="44.68447" lon="6.97363">
        <ele>2628.38</ele>
        <time>2021-08-17T08:51:54Z</time>
      </trkpt>
      <trkpt lat="44.68443" lon="6.97357">
        <ele>2630.3</ele>
        <time>2021-08-17T08:52:00Z</time>
      </trkpt>
      <trkpt lat="44.6844" lon="6.97353">
        <ele>2631.27</ele>
        <time>2021-08-17T08:52:06Z</time>
      </trkpt>
      <trkpt lat="44.68437" lon="6.9735">
        <ele>2631.27</ele>
        <time>2021-08-17T08:52:14Z</time>
      </trkpt>
      <trkpt lat="44.68435" lon="6.97347">
        <ele>2631.75</ele>
        <time>2021-08-17T08:52:20Z</time>
      </trkpt>
      <trkpt lat="44.6843" lon="6.97345">
        <ele>2632.71</ele>
        <time>2021-08-17T08:52:27Z</time>
      </trkpt>
      <trkpt lat="44.68429" lon="6.97343">
        <ele>2633.67</ele>
        <time>2021-08-17T08:52:33Z</time>
      </trkpt>
      <trkpt lat="44.68425" lon="6.9734">
        <ele>2635.11</ele>
        <time>2021-08-17T08:52:41Z</time>
      </trkpt>
      <trkpt lat="44.68421" lon="6.97337">
        <ele>2635.59</ele>
        <time>2021-08-17T08:52:48Z</time>
      </trkpt>
      <trkpt lat="44.68416" lon="6.97335">
        <ele>2636.07</ele>
        <time>2021-08-17T08:52:54Z</time>
      </trkpt>
      <trkpt lat="44.68414" lon="6.97334">
        <ele>2636.07</ele>
        <time>2021-08-17T08:53:00Z</time>
      </trkpt>
      <trkpt lat="44.68411" lon="6.97334">
        <ele>2637.03</ele>
        <time>2021-08-17T08:53:05Z</time>
      </trkpt>
      <trkpt lat="44.68408" lon="6.97333">
        <ele>2637.51</ele>
        <time>2021-08-17T08:53:10Z</time>
      </trkpt>
      <trkpt lat="44.68404" lon="6.97329">
        <ele>2637.99</ele>
        <time>2021-08-17T08:53:17Z</time>
      </trkpt>
      <trkpt lat="44.68401" lon="6.97327">
        <ele>2638.48</ele>
        <time>2021-08-17T08:53:23Z</time>
      </trkpt>
      <trkpt lat="44.68396" lon="6.97324">
        <ele>2640.4</ele>
        <time>2021-08-17T08:53:30Z</time>
      </trkpt>
      <trkpt lat="44.68395" lon="6.97324">
        <ele>2640.88</ele>
        <time>2021-08-17T08:53:31Z</time>
      </trkpt>
      <trkpt lat="44.68392" lon="6.97328">
        <ele>2644.24</ele>
        <time>2021-08-17T08:53:39Z</time>
      </trkpt>
      <trkpt lat="44.68391" lon="6.9733">
        <ele>2644.24</ele>
        <time>2021-08-17T08:53:43Z</time>
      </trkpt>
      <trkpt lat="44.68391" lon="6.97332">
        <ele>2645.69</ele>
        <time>2021-08-17T08:53:49Z</time>
      </trkpt>
      <trkpt lat="44.68393" lon="6.97338">
        <ele>2646.65</ele>
        <time>2021-08-17T08:53:55Z</time>
      </trkpt>
      <trkpt lat="44.68393" lon="6.97341">
        <ele>2648.09</ele>
        <time>2021-08-17T08:53:59Z</time>
      </trkpt>
      <trkpt lat="44.68395" lon="6.97341">
        <ele>2648.57</ele>
        <time>2021-08-17T08:54:03Z</time>
      </trkpt>
      <trkpt lat="44.68396" lon="6.97343">
        <ele>2648.09</ele>
        <time>2021-08-17T08:54:07Z</time>
      </trkpt>
      <trkpt lat="44.68398" lon="6.97343">
        <ele>2648.57</ele>
        <time>2021-08-17T08:54:10Z</time>
      </trkpt>
      <trkpt lat="44.684" lon="6.97343">
        <ele>2648.57</ele>
        <time>2021-08-17T08:54:15Z</time>
      </trkpt>
      <trkpt lat="44.68401" lon="6.97343">
        <ele>2648.57</ele>
        <time>2021-08-17T08:54:16Z</time>
      </trkpt>
      <trkpt lat="44.68399" lon="6.97347">
        <ele>2649.05</ele>
        <time>2021-08-17T08:54:22Z</time>
      </trkpt>
      <trkpt lat="44.684" lon="6.97349">
        <ele>2650.01</ele>
        <time>2021-08-17T08:54:27Z</time>
      </trkpt>
      <trkpt lat="44.684" lon="6.9735">
        <ele>2651.93</ele>
        <time>2021-08-17T08:54:31Z</time>
      </trkpt>
      <trkpt lat="44.68401" lon="6.97351">
        <ele>2652.42</ele>
        <time>2021-08-17T08:54:36Z</time>
      </trkpt>
      <trkpt lat="44.68405" lon="6.97357">
        <ele>2652.9</ele>
        <time>2021-08-17T08:54:44Z</time>
      </trkpt>
      <trkpt lat="44.68407" lon="6.97359">
        <ele>2652.42</ele>
        <time>2021-08-17T08:54:51Z</time>
      </trkpt>
      <trkpt lat="44.6841" lon="6.97364">
        <ele>2651.93</ele>
        <time>2021-08-17T08:54:57Z</time>
      </trkpt>
      <trkpt lat="44.6841" lon="6.97366">
        <ele>2651.93</ele>
        <time>2021-08-17T08:54:58Z</time>
      </trkpt>
      <trkpt lat="44.68411" lon="6.9737">
        <ele>2650.97</ele>
        <time>2021-08-17T08:55:04Z</time>
      </trkpt>
      <trkpt lat="44.68412" lon="6.9737">
        <ele>2650.49</ele>
        <time>2021-08-17T08:55:06Z</time>
      </trkpt>
      <trkpt lat="44.68413" lon="6.97373">
        <ele>2649.53</ele>
        <time>2021-08-17T08:55:10Z</time>
      </trkpt>
      <trkpt lat="44.68413" lon="6.97379">
        <ele>2649.05</ele>
        <time>2021-08-17T08:55:17Z</time>
      </trkpt>
      <trkpt lat="44.68414" lon="6.97384">
        <ele>2650.01</ele>
        <time>2021-08-17T08:55:23Z</time>
      </trkpt>
      <trkpt lat="44.68417" lon="6.97389">
        <ele>2649.53</ele>
        <time>2021-08-17T08:55:29Z</time>
      </trkpt>
      <trkpt lat="44.68417" lon="6.97397">
        <ele>2650.01</ele>
        <time>2021-08-17T08:55:37Z</time>
      </trkpt>
      <trkpt lat="44.68417" lon="6.97398">
        <ele>2650.97</ele>
        <time>2021-08-17T08:55:44Z</time>
      </trkpt>
      <trkpt lat="44.68418" lon="6.97402">
        <ele>2650.49</ele>
        <time>2021-08-17T08:55:49Z</time>
      </trkpt>
      <trkpt lat="44.68417" lon="6.97407">
        <ele>2651.93</ele>
        <time>2021-08-17T08:55:55Z</time>
      </trkpt>
      <trkpt lat="44.68416" lon="6.97405">
        <ele>2652.42</ele>
        <time>2021-08-17T08:56:01Z</time>
      </trkpt>
      <trkpt lat="44.68416" lon="6.97405">
        <ele>2652.42</ele>
        <time>2021-08-17T08:56:03Z</time>
      </trkpt>
      <trkpt lat="44.68413" lon="6.97403">
        <ele>2652.9</ele>
        <time>2021-08-17T08:56:11Z</time>
      </trkpt>
      <trkpt lat="44.6841" lon="6.97401">
        <ele>2652.9</ele>
        <time>2021-08-17T08:56:16Z</time>
      </trkpt>
      <trkpt lat="44.68407" lon="6.97399">
        <ele>2652.9</ele>
        <time>2021-08-17T08:56:22Z</time>
      </trkpt>
      <trkpt lat="44.68405" lon="6.97396">
        <ele>2652.9</ele>
        <time>2021-08-17T08:56:28Z</time>
      </trkpt>
      <trkpt lat="44.68403" lon="6.97394">
        <ele>2653.38</ele>
        <time>2021-08-17T08:56:35Z</time>
      </trkpt>
      <trkpt lat="44.68399" lon="6.97393">
        <ele>2653.38</ele>
        <time>2021-08-17T08:56:42Z</time>
      </trkpt>
      <trkpt lat="44.68397" lon="6.97392">
        <ele>2652.9</ele>
        <time>2021-08-17T08:56:49Z</time>
      </trkpt>
      <trkpt lat="44.68393" lon="6.97391">
        <ele>2652.9</ele>
        <time>2021-08-17T08:56:57Z</time>
      </trkpt>
      <trkpt lat="44.68391" lon="6.9739">
        <ele>2653.38</ele>
        <time>2021-08-17T08:57:02Z</time>
      </trkpt>
      <trkpt lat="44.6839" lon="6.9739">
        <ele>2653.86</ele>
        <time>2021-08-17T08:57:08Z</time>
      </trkpt>
      <trkpt lat="44.68388" lon="6.97389">
        <ele>2654.82</ele>
        <time>2021-08-17T08:57:12Z</time>
      </trkpt>
      <trkpt lat="44.68383" lon="6.97386">
        <ele>2656.74</ele>
        <time>2021-08-17T08:57:18Z</time>
      </trkpt>
      <trkpt lat="44.68378" lon="6.97383">
        <ele>2659.14</ele>
        <time>2021-08-17T08:57:24Z</time>
      </trkpt>
      <trkpt lat="44.68377" lon="6.97382">
        <ele>2659.62</ele>
        <time>2021-08-17T08:57:28Z</time>
      </trkpt>
      <trkpt lat="44.68371" lon="6.9738">
        <ele>2662.03</ele>
        <time>2021-08-17T08:57:35Z</time>
      </trkpt>
      <trkpt lat="44.68367" lon="6.97374">
        <ele>2663.47</ele>
        <time>2021-08-17T08:57:42Z</time>
      </trkpt>
      <trkpt lat="44.68364" lon="6.97373">
        <ele>2663.47</ele>
        <time>2021-08-17T08:57:48Z</time>
      </trkpt>
      <trkpt lat="44.68362" lon="6.97371">
        <ele>2662.99</ele>
        <time>2021-08-17T08:57:55Z</time>
      </trkpt>
      <trkpt lat="44.6836" lon="6.97371">
        <ele>2662.03</ele>
        <time>2021-08-17T08:58:02Z</time>
      </trkpt>
      <trkpt lat="44.68357" lon="6.97368">
        <ele>2661.07</ele>
        <time>2021-08-17T08:58:08Z</time>
      </trkpt>
      <trkpt lat="44.68356" lon="6.97367">
        <ele>2661.07</ele>
        <time>2021-08-17T08:58:15Z</time>
      </trkpt>
      <trkpt lat="44.68354" lon="6.97365">
        <ele>2661.07</ele>
        <time>2021-08-17T08:58:22Z</time>
      </trkpt>
      <trkpt lat="44.68351" lon="6.97362">
        <ele>2660.59</ele>
        <time>2021-08-17T08:58:28Z</time>
      </trkpt>
      <trkpt lat="44.6835" lon="6.97361">
        <ele>2660.11</ele>
        <time>2021-08-17T08:58:31Z</time>
      </trkpt>
      <trkpt lat="44.68346" lon="6.9736">
        <ele>2661.07</ele>
        <time>2021-08-17T08:58:38Z</time>
      </trkpt>
      <trkpt lat="44.68345" lon="6.9736">
        <ele>2662.51</ele>
        <time>2021-08-17T08:58:44Z</time>
      </trkpt>
      <trkpt lat="44.68341" lon="6.9736">
        <ele>2663.47</ele>
        <time>2021-08-17T08:58:50Z</time>
      </trkpt>
      <trkpt lat="44.68336" lon="6.97358">
        <ele>2664.43</ele>
        <time>2021-08-17T08:58:57Z</time>
      </trkpt>
      <trkpt lat="44.68333" lon="6.97356">
        <ele>2664.91</ele>
        <time>2021-08-17T08:59:04Z</time>
      </trkpt>
      <trkpt lat="44.6833" lon="6.97352">
        <ele>2666.35</ele>
        <time>2021-08-17T08:59:11Z</time>
      </trkpt>
      <trkpt lat="44.68327" lon="6.9735">
        <ele>2668.28</ele>
        <time>2021-08-17T08:59:18Z</time>
      </trkpt>
      <trkpt lat="44.68326" lon="6.97349">
        <ele>2669.24</ele>
        <time>2021-08-17T08:59:23Z</time>
      </trkpt>
      <trkpt lat="44.68325" lon="6.97346">
        <ele>2669.72</ele>
        <time>2021-08-17T08:59:29Z</time>
      </trkpt>
      <trkpt lat="44.68323" lon="6.97346">
        <ele>2670.68</ele>
        <time>2021-08-17T08:59:38Z</time>
      </trkpt>
      <trkpt lat="44.68321" lon="6.97343">
        <ele>2671.16</ele>
        <time>2021-08-17T08:59:47Z</time>
      </trkpt>
      <trkpt lat="44.68318" lon="6.97343">
        <ele>2673.56</ele>
        <time>2021-08-17T08:59:55Z</time>
      </trkpt>
      <trkpt lat="44.68317" lon="6.97341">
        <ele>2674.04</ele>
        <time>2021-08-17T09:00:02Z</time>
      </trkpt>
      <trkpt lat="44.68312" lon="6.97338">
        <ele>2673.56</ele>
        <time>2021-08-17T09:00:09Z</time>
      </trkpt>
      <trkpt lat="44.68307" lon="6.97331">
        <ele>2672.6</ele>
        <time>2021-08-17T09:00:17Z</time>
      </trkpt>
      <trkpt lat="44.68307" lon="6.97321">
        <ele>2673.08</ele>
        <time>2021-08-17T09:00:24Z</time>
      </trkpt>
      <trkpt lat="44.68305" lon="6.97314">
        <ele>2674.52</ele>
        <time>2021-08-17T09:00:32Z</time>
      </trkpt>
      <trkpt lat="44.68303" lon="6.97309">
        <ele>2675.01</ele>
        <time>2021-08-17T09:00:38Z</time>
      </trkpt>
      <trkpt lat="44.68301" lon="6.97304">
        <ele>2675.01</ele>
        <time>2021-08-17T09:00:43Z</time>
      </trkpt>
      <trkpt lat="44.683" lon="6.97299">
        <ele>2675.49</ele>
        <time>2021-08-17T09:00:50Z</time>
      </trkpt>
      <trkpt lat="44.68299" lon="6.97292">
        <ele>2675.97</ele>
        <time>2021-08-17T09:00:57Z</time>
      </trkpt>
      <trkpt lat="44.68297" lon="6.97285">
        <ele>2677.41</ele>
        <time>2021-08-17T09:01:04Z</time>
      </trkpt>
      <trkpt lat="44.68297" lon="6.97283">
        <ele>2677.89</ele>
        <time>2021-08-17T09:01:11Z</time>
      </trkpt>
      <trkpt lat="44.68296" lon="6.97281">
        <ele>2677.89</ele>
        <time>2021-08-17T09:01:18Z</time>
      </trkpt>
      <trkpt lat="44.68295" lon="6.97276">
        <ele>2677.89</ele>
        <time>2021-08-17T09:01:24Z</time>
      </trkpt>
      <trkpt lat="44.68295" lon="6.9727">
        <ele>2679.81</ele>
        <time>2021-08-17T09:01:30Z</time>
      </trkpt>
      <trkpt lat="44.68293" lon="6.97265">
        <ele>2680.29</ele>
        <time>2021-08-17T09:01:37Z</time>
      </trkpt>
      <trkpt lat="44.68291" lon="6.97262">
        <ele>2680.77</ele>
        <time>2021-08-17T09:01:43Z</time>
      </trkpt>
      <trkpt lat="44.68289" lon="6.97261">
        <ele>2681.25</ele>
        <time>2021-08-17T09:01:48Z</time>
      </trkpt>
      <trkpt lat="44.68285" lon="6.97257">
        <ele>2682.7</ele>
        <time>2021-08-17T09:01:54Z</time>
      </trkpt>
      <trkpt lat="44.68283" lon="6.97251">
        <ele>2683.66</ele>
        <time>2021-08-17T09:02:00Z</time>
      </trkpt>
      <trkpt lat="44.68282" lon="6.97248">
        <ele>2685.1</ele>
        <time>2021-08-17T09:02:08Z</time>
      </trkpt>
      <trkpt lat="44.68281" lon="6.97249">
        <ele>2688.46</ele>
        <time>2021-08-17T09:02:16Z</time>
      </trkpt>
      <trkpt lat="44.6828" lon="6.97249">
        <ele>2691.35</ele>
        <time>2021-08-17T09:02:32Z</time>
      </trkpt>
      <trkpt lat="44.6828" lon="6.97249">
        <ele>2692.79</ele>
        <time>2021-08-17T09:02:40Z</time>
      </trkpt>
      <trkpt lat="44.6828" lon="6.97248">
        <ele>2693.27</ele>
        <time>2021-08-17T09:02:54Z</time>
      </trkpt>
      <trkpt lat="44.68279" lon="6.97248">
        <ele>2694.23</ele>
        <time>2021-08-17T09:02:59Z</time>
      </trkpt>
      <trkpt lat="44.68277" lon="6.97249">
        <ele>2694.71</ele>
        <time>2021-08-17T09:03:02Z</time>
      </trkpt>
      <trkpt lat="44.68272" lon="6.97247">
        <ele>2695.67</ele>
        <time>2021-08-17T09:03:10Z</time>
      </trkpt>
      <trkpt lat="44.68267" lon="6.97243">
        <ele>2696.64</ele>
        <time>2021-08-17T09:03:17Z</time>
      </trkpt>
      <trkpt lat="44.68264" lon="6.9724">
        <ele>2696.15</ele>
        <time>2021-08-17T09:03:24Z</time>
      </trkpt>
      <trkpt lat="44.68259" lon="6.97239">
        <ele>2695.67</ele>
        <time>2021-08-17T09:03:30Z</time>
      </trkpt>
      <trkpt lat="44.68258" lon="6.97239">
        <ele>2695.19</ele>
        <time>2021-08-17T09:03:33Z</time>
      </trkpt>
      <trkpt lat="44.68253" lon="6.97237">
        <ele>2695.67</ele>
        <time>2021-08-17T09:03:39Z</time>
      </trkpt>
      <trkpt lat="44.68249" lon="6.97234">
        <ele>2695.19</ele>
        <time>2021-08-17T09:03:47Z</time>
      </trkpt>
      <trkpt lat="44.68248" lon="6.97234">
        <ele>2695.19</ele>
        <time>2021-08-17T09:03:49Z</time>
      </trkpt>
      <trkpt lat="44.68247" lon="6.9723">
        <ele>2694.23</ele>
        <time>2021-08-17T09:03:54Z</time>
      </trkpt>
      <trkpt lat="44.68242" lon="6.97227">
        <ele>2693.75</ele>
        <time>2021-08-17T09:04:00Z</time>
      </trkpt>
      <trkpt lat="44.68241" lon="6.97225">
        <ele>2693.75</ele>
        <time>2021-08-17T09:04:05Z</time>
      </trkpt>
      <trkpt lat="44.68238" lon="6.97221">
        <ele>2693.75</ele>
        <time>2021-08-17T09:04:11Z</time>
      </trkpt>
      <trkpt lat="44.68237" lon="6.9722">
        <ele>2693.27</ele>
        <time>2021-08-17T09:04:15Z</time>
      </trkpt>
      <trkpt lat="44.68234" lon="6.97218">
        <ele>2692.79</ele>
        <time>2021-08-17T09:04:22Z</time>
      </trkpt>
      <trkpt lat="44.68231" lon="6.97215">
        <ele>2692.31</ele>
        <time>2021-08-17T09:04:28Z</time>
      </trkpt>
      <trkpt lat="44.68228" lon="6.97209">
        <ele>2690.87</ele>
        <time>2021-08-17T09:04:38Z</time>
      </trkpt>
      <trkpt lat="44.68226" lon="6.97208">
        <ele>2690.87</ele>
        <time>2021-08-17T09:04:43Z</time>
      </trkpt>
      <trkpt lat="44.68224" lon="6.97203">
        <ele>2690.39</ele>
        <time>2021-08-17T09:04:49Z</time>
      </trkpt>
      <trkpt lat="44.68223" lon="6.97202">
        <ele>2690.87</ele>
        <time>2021-08-17T09:04:52Z</time>
      </trkpt>
      <trkpt lat="44.68221" lon="6.97201">
        <ele>2690.87</ele>
        <time>2021-08-17T09:04:57Z</time>
      </trkpt>
      <trkpt lat="44.68218" lon="6.97201">
        <ele>2690.87</ele>
        <time>2021-08-17T09:05:03Z</time>
      </trkpt>
      <trkpt lat="44.68215" lon="6.972">
        <ele>2692.31</ele>
        <time>2021-08-17T09:05:08Z</time>
      </trkpt>
      <trkpt lat="44.68213" lon="6.97194">
        <ele>2694.23</ele>
        <time>2021-08-17T09:05:14Z</time>
      </trkpt>
      <trkpt lat="44.6821" lon="6.9719">
        <ele>2696.15</ele>
        <time>2021-08-17T09:05:20Z</time>
      </trkpt>
      <trkpt lat="44.68208" lon="6.97188">
        <ele>2696.64</ele>
        <time>2021-08-17T09:05:25Z</time>
      </trkpt>
      <trkpt lat="44.68205" lon="6.97182">
        <ele>2698.56</ele>
        <time>2021-08-17T09:05:32Z</time>
      </trkpt>
      <trkpt lat="44.68204" lon="6.97171">
        <ele>2700</ele>
        <time>2021-08-17T09:05:40Z</time>
      </trkpt>
      <trkpt lat="44.68202" lon="6.97166">
        <ele>2700</ele>
        <time>2021-08-17T09:05:47Z</time>
      </trkpt>
      <trkpt lat="44.68198" lon="6.97161">
        <ele>2700.48</ele>
        <time>2021-08-17T09:05:55Z</time>
      </trkpt>
      <trkpt lat="44.68194" lon="6.97156">
        <ele>2700.96</ele>
        <time>2021-08-17T09:06:01Z</time>
      </trkpt>
      <trkpt lat="44.68191" lon="6.97153">
        <ele>2702.4</ele>
        <time>2021-08-17T09:06:08Z</time>
      </trkpt>
      <trkpt lat="44.68189" lon="6.97151">
        <ele>2702.88</ele>
        <time>2021-08-17T09:06:15Z</time>
      </trkpt>
      <trkpt lat="44.68187" lon="6.97146">
        <ele>2705.29</ele>
        <time>2021-08-17T09:06:23Z</time>
      </trkpt>
      <trkpt lat="44.68188" lon="6.9714">
        <ele>2706.25</ele>
        <time>2021-08-17T09:06:29Z</time>
      </trkpt>
      <trkpt lat="44.68186" lon="6.97136">
        <ele>2706.25</ele>
        <time>2021-08-17T09:06:36Z</time>
      </trkpt>
      <trkpt lat="44.68186" lon="6.97133">
        <ele>2706.73</ele>
        <time>2021-08-17T09:06:42Z</time>
      </trkpt>
      <trkpt lat="44.68183" lon="6.97124">
        <ele>2706.25</ele>
        <time>2021-08-17T09:06:50Z</time>
      </trkpt>
      <trkpt lat="44.68182" lon="6.97121">
        <ele>2706.73</ele>
        <time>2021-08-17T09:06:52Z</time>
      </trkpt>
      <trkpt lat="44.68181" lon="6.97115">
        <ele>2706.73</ele>
        <time>2021-08-17T09:07:00Z</time>
      </trkpt>
      <trkpt lat="44.68181" lon="6.97111">
        <ele>2706.73</ele>
        <time>2021-08-17T09:07:06Z</time>
      </trkpt>
      <trkpt lat="44.6818" lon="6.9711">
        <ele>2706.25</ele>
        <time>2021-08-17T09:07:12Z</time>
      </trkpt>
      <trkpt lat="44.68181" lon="6.97108">
        <ele>2707.21</ele>
        <time>2021-08-17T09:07:15Z</time>
      </trkpt>
      <trkpt lat="44.68181" lon="6.97099">
        <ele>2709.13</ele>
        <time>2021-08-17T09:07:22Z</time>
      </trkpt>
      <trkpt lat="44.68179" lon="6.97094">
        <ele>2710.57</ele>
        <time>2021-08-17T09:07:27Z</time>
      </trkpt>
      <trkpt lat="44.68179" lon="6.97086">
        <ele>2712.02</ele>
        <time>2021-08-17T09:07:33Z</time>
      </trkpt>
      <trkpt lat="44.68174" lon="6.97081">
        <ele>2713.46</ele>
        <time>2021-08-17T09:07:40Z</time>
      </trkpt>
      <trkpt lat="44.68171" lon="6.97076">
        <ele>2714.9</ele>
        <time>2021-08-17T09:07:46Z</time>
      </trkpt>
      <trkpt lat="44.68168" lon="6.97074">
        <ele>2715.38</ele>
        <time>2021-08-17T09:07:51Z</time>
      </trkpt>
      <trkpt lat="44.68168" lon="6.97071">
        <ele>2716.82</ele>
        <time>2021-08-17T09:07:56Z</time>
      </trkpt>
      <trkpt lat="44.68165" lon="6.97066">
        <ele>2718.27</ele>
        <time>2021-08-17T09:08:03Z</time>
      </trkpt>
      <trkpt lat="44.68163" lon="6.97059">
        <ele>2718.75</ele>
        <time>2021-08-17T09:08:11Z</time>
      </trkpt>
      <trkpt lat="44.68161" lon="6.97055">
        <ele>2721.15</ele>
        <time>2021-08-17T09:08:19Z</time>
      </trkpt>
      <trkpt lat="44.6816" lon="6.97055">
        <ele>2721.63</ele>
        <time>2021-08-17T09:08:26Z</time>
      </trkpt>
      <trkpt lat="44.68159" lon="6.97055">
        <ele>2721.63</ele>
        <time>2021-08-17T09:08:34Z</time>
      </trkpt>
      <trkpt lat="44.68157" lon="6.97054">
        <ele>2722.59</ele>
        <time>2021-08-17T09:08:40Z</time>
      </trkpt>
      <trkpt lat="44.68157" lon="6.97052">
        <ele>2722.11</ele>
        <time>2021-08-17T09:08:46Z</time>
      </trkpt>
      <trkpt lat="44.68156" lon="6.97047">
        <ele>2723.55</ele>
        <time>2021-08-17T09:08:53Z</time>
      </trkpt>
      <trkpt lat="44.68154" lon="6.97044">
        <ele>2724.99</ele>
        <time>2021-08-17T09:08:57Z</time>
      </trkpt>
      <trkpt lat="44.68152" lon="6.97041">
        <ele>2726.44</ele>
        <time>2021-08-17T09:09:03Z</time>
      </trkpt>
      <trkpt lat="44.68153" lon="6.97036">
        <ele>2726.92</ele>
        <time>2021-08-17T09:09:09Z</time>
      </trkpt>
      <trkpt lat="44.68153" lon="6.97031">
        <ele>2728.36</ele>
        <time>2021-08-17T09:09:15Z</time>
      </trkpt>
      <trkpt lat="44.68151" lon="6.97027">
        <ele>2728.84</ele>
        <time>2021-08-17T09:09:21Z</time>
      </trkpt>
      <trkpt lat="44.68149" lon="6.97024">
        <ele>2728.36</ele>
        <time>2021-08-17T09:09:26Z</time>
      </trkpt>
      <trkpt lat="44.68148" lon="6.97021">
        <ele>2729.8</ele>
        <time>2021-08-17T09:09:33Z</time>
      </trkpt>
      <trkpt lat="44.68144" lon="6.97016">
        <ele>2732.2</ele>
        <time>2021-08-17T09:09:39Z</time>
      </trkpt>
      <trkpt lat="44.68143" lon="6.97015">
        <ele>2734.13</ele>
        <time>2021-08-17T09:09:44Z</time>
      </trkpt>
      <trkpt lat="44.68139" lon="6.97013">
        <ele>2734.61</ele>
        <time>2021-08-17T09:09:49Z</time>
      </trkpt>
      <trkpt lat="44.68138" lon="6.97008">
        <ele>2734.61</ele>
        <time>2021-08-17T09:09:55Z</time>
      </trkpt>
      <trkpt lat="44.68137" lon="6.97">
        <ele>2735.09</ele>
        <time>2021-08-17T09:10:01Z</time>
      </trkpt>
      <trkpt lat="44.68136" lon="6.96994">
        <ele>2734.61</ele>
        <time>2021-08-17T09:10:08Z</time>
      </trkpt>
      <trkpt lat="44.68136" lon="6.96991">
        <ele>2735.09</ele>
        <time>2021-08-17T09:10:13Z</time>
      </trkpt>
      <trkpt lat="44.68138" lon="6.96985">
        <ele>2736.05</ele>
        <time>2021-08-17T09:10:20Z</time>
      </trkpt>
      <trkpt lat="44.68137" lon="6.9698">
        <ele>2736.53</ele>
        <time>2021-08-17T09:10:28Z</time>
      </trkpt>
      <trkpt lat="44.68137" lon="6.96978">
        <ele>2735.09</ele>
        <time>2021-08-17T09:10:38Z</time>
      </trkpt>
      <trkpt lat="44.68137" lon="6.96979">
        <ele>2735.09</ele>
        <time>2021-08-17T09:10:46Z</time>
      </trkpt>
      <trkpt lat="44.68137" lon="6.96978">
        <ele>2735.09</ele>
        <time>2021-08-17T09:10:48Z</time>
      </trkpt>
      <trkpt lat="44.68137" lon="6.96977">
        <ele>2735.57</ele>
        <time>2021-08-17T09:10:54Z</time>
      </trkpt>
      <trkpt lat="44.68137" lon="6.96978">
        <ele>2735.57</ele>
        <time>2021-08-17T09:11:02Z</time>
      </trkpt>
      <trkpt lat="44.68137" lon="6.96978">
        <ele>2736.05</ele>
        <time>2021-08-17T09:11:17Z</time>
      </trkpt>
      <trkpt lat="44.68137" lon="6.96978">
        <ele>2736.05</ele>
        <time>2021-08-17T09:11:31Z</time>
      </trkpt>
      <trkpt lat="44.68136" lon="6.96978">
        <ele>2736.53</ele>
        <time>2021-08-17T09:11:44Z</time>
      </trkpt>
      <trkpt lat="44.68139" lon="6.96974">
        <ele>2736.05</ele>
        <time>2021-08-17T09:11:53Z</time>
      </trkpt>
      <trkpt lat="44.6814" lon="6.96965">
        <ele>2734.13</ele>
        <time>2021-08-17T09:12:01Z</time>
      </trkpt>
      <trkpt lat="44.6814" lon="6.96956">
        <ele>2733.65</ele>
        <time>2021-08-17T09:12:08Z</time>
      </trkpt>
      <trkpt lat="44.68142" lon="6.96954">
        <ele>2732.2</ele>
        <time>2021-08-17T09:12:16Z</time>
      </trkpt>
      <trkpt lat="44.68143" lon="6.96951">
        <ele>2731.72</ele>
        <time>2021-08-17T09:12:18Z</time>
      </trkpt>
      <trkpt lat="44.68143" lon="6.96945">
        <ele>2730.28</ele>
        <time>2021-08-17T09:12:24Z</time>
      </trkpt>
      <trkpt lat="44.68141" lon="6.96939">
        <ele>2729.8</ele>
        <time>2021-08-17T09:12:30Z</time>
      </trkpt>
      <trkpt lat="44.68141" lon="6.96933">
        <ele>2730.76</ele>
        <time>2021-08-17T09:12:37Z</time>
      </trkpt>
      <trkpt lat="44.68142" lon="6.96927">
        <ele>2731.24</ele>
        <time>2021-08-17T09:12:45Z</time>
      </trkpt>
      <trkpt lat="44.6814" lon="6.96922">
        <ele>2730.28</ele>
        <time>2021-08-17T09:12:52Z</time>
      </trkpt>
      <trkpt lat="44.68139" lon="6.96918">
        <ele>2730.76</ele>
        <time>2021-08-17T09:12:57Z</time>
      </trkpt>
      <trkpt lat="44.68138" lon="6.9691">
        <ele>2730.76</ele>
        <time>2021-08-17T09:13:04Z</time>
      </trkpt>
      <trkpt lat="44.68136" lon="6.96907">
        <ele>2731.72</ele>
        <time>2021-08-17T09:13:09Z</time>
      </trkpt>
      <trkpt lat="44.68136" lon="6.96903">
        <ele>2732.68</ele>
        <time>2021-08-17T09:13:16Z</time>
      </trkpt>
      <trkpt lat="44.68134" lon="6.96894">
        <ele>2734.61</ele>
        <time>2021-08-17T09:13:24Z</time>
      </trkpt>
      <trkpt lat="44.68133" lon="6.96888">
        <ele>2735.09</ele>
        <time>2021-08-17T09:13:30Z</time>
      </trkpt>
      <trkpt lat="44.68132" lon="6.96886">
        <ele>2735.09</ele>
        <time>2021-08-17T09:13:34Z</time>
      </trkpt>
      <trkpt lat="44.68133" lon="6.96877">
        <ele>2736.05</ele>
        <time>2021-08-17T09:13:42Z</time>
      </trkpt>
      <trkpt lat="44.68131" lon="6.96871">
        <ele>2737.97</ele>
        <time>2021-08-17T09:13:48Z</time>
      </trkpt>
      <trkpt lat="44.68128" lon="6.96866">
        <ele>2740.38</ele>
        <time>2021-08-17T09:13:55Z</time>
      </trkpt>
      <trkpt lat="44.68129" lon="6.96862">
        <ele>2741.34</ele>
        <time>2021-08-17T09:14:01Z</time>
      </trkpt>
      <trkpt lat="44.6813" lon="6.96861">
        <ele>2741.82</ele>
        <time>2021-08-17T09:14:03Z</time>
      </trkpt>
      <trkpt lat="44.68135" lon="6.96856">
        <ele>2741.34</ele>
        <time>2021-08-17T09:14:11Z</time>
      </trkpt>
      <trkpt lat="44.68132" lon="6.96851">
        <ele>2739.89</ele>
        <time>2021-08-17T09:14:18Z</time>
      </trkpt>
      <trkpt lat="44.68129" lon="6.96844">
        <ele>2739.89</ele>
        <time>2021-08-17T09:14:25Z</time>
      </trkpt>
      <trkpt lat="44.68127" lon="6.96839">
        <ele>2740.86</ele>
        <time>2021-08-17T09:14:31Z</time>
      </trkpt>
      <trkpt lat="44.68127" lon="6.96837">
        <ele>2741.34</ele>
        <time>2021-08-17T09:14:33Z</time>
      </trkpt>
      <trkpt lat="44.68129" lon="6.9683">
        <ele>2740.86</ele>
        <time>2021-08-17T09:14:41Z</time>
      </trkpt>
      <trkpt lat="44.68131" lon="6.96824">
        <ele>2739.89</ele>
        <time>2021-08-17T09:14:47Z</time>
      </trkpt>
      <trkpt lat="44.6813" lon="6.96819">
        <ele>2737.97</ele>
        <time>2021-08-17T09:14:53Z</time>
      </trkpt>
      <trkpt lat="44.68129" lon="6.96815">
        <ele>2737.49</ele>
        <time>2021-08-17T09:14:57Z</time>
      </trkpt>
      <trkpt lat="44.68128" lon="6.96812">
        <ele>2737.97</ele>
        <time>2021-08-17T09:15:03Z</time>
      </trkpt>
      <trkpt lat="44.68128" lon="6.96811">
        <ele>2737.97</ele>
        <time>2021-08-17T09:15:06Z</time>
      </trkpt>
      <trkpt lat="44.68127" lon="6.96807">
        <ele>2738.45</ele>
        <time>2021-08-17T09:15:12Z</time>
      </trkpt>
      <trkpt lat="44.68126" lon="6.96804">
        <ele>2738.45</ele>
        <time>2021-08-17T09:15:17Z</time>
      </trkpt>
      <trkpt lat="44.68126" lon="6.96802">
        <ele>2738.45</ele>
        <time>2021-08-17T09:15:19Z</time>
      </trkpt>
      <trkpt lat="44.68125" lon="6.96799">
        <ele>2739.41</ele>
        <time>2021-08-17T09:15:22Z</time>
      </trkpt>
      <trkpt lat="44.68127" lon="6.96799">
        <ele>2739.89</ele>
        <time>2021-08-17T09:15:25Z</time>
      </trkpt>
      <trkpt lat="44.68128" lon="6.96791">
        <ele>2741.34</ele>
        <time>2021-08-17T09:15:32Z</time>
      </trkpt>
      <trkpt lat="44.68128" lon="6.9679">
        <ele>2741.34</ele>
        <time>2021-08-17T09:15:33Z</time>
      </trkpt>
      <trkpt lat="44.68125" lon="6.96783">
        <ele>2742.3</ele>
        <time>2021-08-17T09:15:40Z</time>
      </trkpt>
      <trkpt lat="44.68125" lon="6.9678">
        <ele>2742.78</ele>
        <time>2021-08-17T09:15:44Z</time>
      </trkpt>
      <trkpt lat="44.68123" lon="6.96777">
        <ele>2743.26</ele>
        <time>2021-08-17T09:15:50Z</time>
      </trkpt>
      <trkpt lat="44.68122" lon="6.96772">
        <ele>2744.7</ele>
        <time>2021-08-17T09:15:55Z</time>
      </trkpt>
      <trkpt lat="44.68121" lon="6.96764">
        <ele>2744.7</ele>
        <time>2021-08-17T09:16:03Z</time>
      </trkpt>
      <trkpt lat="44.68122" lon="6.9676">
        <ele>2745.18</ele>
        <time>2021-08-17T09:16:10Z</time>
      </trkpt>
      <trkpt lat="44.68121" lon="6.96755">
        <ele>2746.14</ele>
        <time>2021-08-17T09:16:17Z</time>
      </trkpt>
      <trkpt lat="44.6812" lon="6.96754">
        <ele>2746.14</ele>
        <time>2021-08-17T09:16:18Z</time>
      </trkpt>
      <trkpt lat="44.6812" lon="6.9675">
        <ele>2746.62</ele>
        <time>2021-08-17T09:16:24Z</time>
      </trkpt>
      <trkpt lat="44.68118" lon="6.96744">
        <ele>2747.1</ele>
        <time>2021-08-17T09:16:31Z</time>
      </trkpt>
      <trkpt lat="44.68118" lon="6.96741">
        <ele>2746.62</ele>
        <time>2021-08-17T09:16:33Z</time>
      </trkpt>
      <trkpt lat="44.68117" lon="6.96735">
        <ele>2745.66</ele>
        <time>2021-08-17T09:16:39Z</time>
      </trkpt>
      <trkpt lat="44.68115" lon="6.9673">
        <ele>2745.18</ele>
        <time>2021-08-17T09:16:45Z</time>
      </trkpt>
      <trkpt lat="44.68115" lon="6.96727">
        <ele>2745.66</ele>
        <time>2021-08-17T09:16:49Z</time>
      </trkpt>
      <trkpt lat="44.68112" lon="6.96725">
        <ele>2747.1</ele>
        <time>2021-08-17T09:16:55Z</time>
      </trkpt>
      <trkpt lat="44.68113" lon="6.96721">
        <ele>2747.59</ele>
        <time>2021-08-17T09:16:58Z</time>
      </trkpt>
      <trkpt lat="44.68113" lon="6.96717">
        <ele>2749.03</ele>
        <time>2021-08-17T09:17:04Z</time>
      </trkpt>
      <trkpt lat="44.68111" lon="6.96716">
        <ele>2749.51</ele>
        <time>2021-08-17T09:17:10Z</time>
      </trkpt>
      <trkpt lat="44.68111" lon="6.96711">
        <ele>2749.03</ele>
        <time>2021-08-17T09:17:16Z</time>
      </trkpt>
      <trkpt lat="44.68113" lon="6.96709">
        <ele>2749.51</ele>
        <time>2021-08-17T09:17:19Z</time>
      </trkpt>
      <trkpt lat="44.68114" lon="6.96703">
        <ele>2749.51</ele>
        <time>2021-08-17T09:17:25Z</time>
      </trkpt>
      <trkpt lat="44.68115" lon="6.96701">
        <ele>2749.03</ele>
        <time>2021-08-17T09:17:32Z</time>
      </trkpt>
      <trkpt lat="44.68116" lon="6.96699">
        <ele>2749.51</ele>
        <time>2021-08-17T09:17:42Z</time>
      </trkpt>
      <trkpt lat="44.68116" lon="6.96698">
        <ele>2750.47</ele>
        <time>2021-08-17T09:17:54Z</time>
      </trkpt>
      <trkpt lat="44.68116" lon="6.96697">
        <ele>2749.99</ele>
        <time>2021-08-17T09:17:59Z</time>
      </trkpt>
      <trkpt lat="44.68113" lon="6.96696">
        <ele>2749.99</ele>
        <time>2021-08-17T09:18:06Z</time>
      </trkpt>
      <trkpt lat="44.68112" lon="6.96695">
        <ele>2749.99</ele>
        <time>2021-08-17T09:18:08Z</time>
      </trkpt>
      <trkpt lat="44.68112" lon="6.96692">
        <ele>2749.99</ele>
        <time>2021-08-17T09:18:13Z</time>
      </trkpt>
      <trkpt lat="44.68112" lon="6.96688">
        <ele>2749.51</ele>
        <time>2021-08-17T09:18:20Z</time>
      </trkpt>
      <trkpt lat="44.68112" lon="6.9668">
        <ele>2749.99</ele>
        <time>2021-08-17T09:18:27Z</time>
      </trkpt>
      <trkpt lat="44.68111" lon="6.96677">
        <ele>2749.99</ele>
        <time>2021-08-17T09:18:29Z</time>
      </trkpt>
      <trkpt lat="44.68111" lon="6.96671">
        <ele>2750.47</ele>
        <time>2021-08-17T09:18:36Z</time>
      </trkpt>
      <trkpt lat="44.68111" lon="6.96666">
        <ele>2750.47</ele>
        <time>2021-08-17T09:18:42Z</time>
      </trkpt>
      <trkpt lat="44.68113" lon="6.96659">
        <ele>2750.47</ele>
        <time>2021-08-17T09:18:48Z</time>
      </trkpt>
      <trkpt lat="44.6811" lon="6.9665">
        <ele>2752.39</ele>
        <time>2021-08-17T09:18:56Z</time>
      </trkpt>
      <trkpt lat="44.68111" lon="6.96647">
        <ele>2752.39</ele>
        <time>2021-08-17T09:19:00Z</time>
      </trkpt>
      <trkpt lat="44.68108" lon="6.96645">
        <ele>2752.39</ele>
        <time>2021-08-17T09:19:06Z</time>
      </trkpt>
      <trkpt lat="44.68107" lon="6.96644">
        <ele>2753.83</ele>
        <time>2021-08-17T09:19:13Z</time>
      </trkpt>
      <trkpt lat="44.68103" lon="6.96643">
        <ele>2753.83</ele>
        <time>2021-08-17T09:19:19Z</time>
      </trkpt>
      <trkpt lat="44.681" lon="6.96641">
        <ele>2755.76</ele>
        <time>2021-08-17T09:19:25Z</time>
      </trkpt>
      <trkpt lat="44.681" lon="6.96638">
        <ele>2756.72</ele>
        <time>2021-08-17T09:19:30Z</time>
      </trkpt>
      <trkpt lat="44.68101" lon="6.96635">
        <ele>2756.24</ele>
        <time>2021-08-17T09:19:34Z</time>
      </trkpt>
      <trkpt lat="44.68101" lon="6.96625">
        <ele>2757.2</ele>
        <time>2021-08-17T09:19:42Z</time>
      </trkpt>
      <trkpt lat="44.68103" lon="6.9662">
        <ele>2756.72</ele>
        <time>2021-08-17T09:19:49Z</time>
      </trkpt>
      <trkpt lat="44.68102" lon="6.96615">
        <ele>2755.76</ele>
        <time>2021-08-17T09:19:55Z</time>
      </trkpt>
      <trkpt lat="44.68103" lon="6.96614">
        <ele>2756.24</ele>
        <time>2021-08-17T09:19:57Z</time>
      </trkpt>
      <trkpt lat="44.68099" lon="6.9661">
        <ele>2757.68</ele>
        <time>2021-08-17T09:20:03Z</time>
      </trkpt>
      <trkpt lat="44.68099" lon="6.96607">
        <ele>2759.12</ele>
        <time>2021-08-17T09:20:08Z</time>
      </trkpt>
      <trkpt lat="44.68098" lon="6.96606">
        <ele>2759.6</ele>
        <time>2021-08-17T09:20:14Z</time>
      </trkpt>
      <trkpt lat="44.68096" lon="6.96605">
        <ele>2760.08</ele>
        <time>2021-08-17T09:20:17Z</time>
      </trkpt>
      <trkpt lat="44.68094" lon="6.96601">
        <ele>2760.56</ele>
        <time>2021-08-17T09:20:23Z</time>
      </trkpt>
      <trkpt lat="44.68094" lon="6.96601">
        <ele>2761.04</ele>
        <time>2021-08-17T09:20:26Z</time>
      </trkpt>
      <trkpt lat="44.68093" lon="6.96596">
        <ele>2762</ele>
        <time>2021-08-17T09:20:32Z</time>
      </trkpt>
      <trkpt lat="44.68092" lon="6.9659">
        <ele>2761.52</ele>
        <time>2021-08-17T09:20:38Z</time>
      </trkpt>
      <trkpt lat="44.68093" lon="6.96586">
        <ele>2761.04</ele>
        <time>2021-08-17T09:20:46Z</time>
      </trkpt>
      <trkpt lat="44.68095" lon="6.96582">
        <ele>2761.04</ele>
        <time>2021-08-17T09:20:52Z</time>
      </trkpt>
      <trkpt lat="44.68096" lon="6.96575">
        <ele>2762</ele>
        <time>2021-08-17T09:20:59Z</time>
      </trkpt>
      <trkpt lat="44.68096" lon="6.96571">
        <ele>2762</ele>
        <time>2021-08-17T09:21:06Z</time>
      </trkpt>
      <trkpt lat="44.68097" lon="6.96567">
        <ele>2762.49</ele>
        <time>2021-08-17T09:21:11Z</time>
      </trkpt>
      <trkpt lat="44.68098" lon="6.96566">
        <ele>2762.49</ele>
        <time>2021-08-17T09:21:12Z</time>
      </trkpt>
      <trkpt lat="44.681" lon="6.9656">
        <ele>2762.97</ele>
        <time>2021-08-17T09:21:19Z</time>
      </trkpt>
      <trkpt lat="44.68099" lon="6.96556">
        <ele>2763.93</ele>
        <time>2021-08-17T09:21:27Z</time>
      </trkpt>
      <trkpt lat="44.68101" lon="6.96552">
        <ele>2764.41</ele>
        <time>2021-08-17T09:21:33Z</time>
      </trkpt>
      <trkpt lat="44.68101" lon="6.96547">
        <ele>2764.89</ele>
        <time>2021-08-17T09:21:39Z</time>
      </trkpt>
      <trkpt lat="44.68102" lon="6.96544">
        <ele>2763.45</ele>
        <time>2021-08-17T09:21:45Z</time>
      </trkpt>
      <trkpt lat="44.68103" lon="6.96542">
        <ele>2762.97</ele>
        <time>2021-08-17T09:21:48Z</time>
      </trkpt>
      <trkpt lat="44.68102" lon="6.96537">
        <ele>2763.45</ele>
        <time>2021-08-17T09:21:54Z</time>
      </trkpt>
      <trkpt lat="44.68101" lon="6.96529">
        <ele>2763.45</ele>
        <time>2021-08-17T09:22:01Z</time>
      </trkpt>
      <trkpt lat="44.681" lon="6.96525">
        <ele>2763.45</ele>
        <time>2021-08-17T09:22:07Z</time>
      </trkpt>
      <trkpt lat="44.68101" lon="6.96517">
        <ele>2763.45</ele>
        <time>2021-08-17T09:22:12Z</time>
      </trkpt>
      <trkpt lat="44.68099" lon="6.96515">
        <ele>2763.45</ele>
        <time>2021-08-17T09:22:15Z</time>
      </trkpt>
      <trkpt lat="44.68104" lon="6.9651">
        <ele>2762.97</ele>
        <time>2021-08-17T09:22:22Z</time>
      </trkpt>
      <trkpt lat="44.68103" lon="6.96508">
        <ele>2763.45</ele>
        <time>2021-08-17T09:22:27Z</time>
      </trkpt>
      <trkpt lat="44.68103" lon="6.96504">
        <ele>2763.45</ele>
        <time>2021-08-17T09:22:33Z</time>
      </trkpt>
      <trkpt lat="44.68103" lon="6.96502">
        <ele>2763.45</ele>
        <time>2021-08-17T09:22:36Z</time>
      </trkpt>
      <trkpt lat="44.68101" lon="6.96498">
        <ele>2763.93</ele>
        <time>2021-08-17T09:22:42Z</time>
      </trkpt>
      <trkpt lat="44.68101" lon="6.96497">
        <ele>2763.93</ele>
        <time>2021-08-17T09:22:43Z</time>
      </trkpt>
      <trkpt lat="44.68102" lon="6.96488">
        <ele>2764.41</ele>
        <time>2021-08-17T09:22:49Z</time>
      </trkpt>
      <trkpt lat="44.68102" lon="6.96486">
        <ele>2764.41</ele>
        <time>2021-08-17T09:22:55Z</time>
      </trkpt>
      <trkpt lat="44.68102" lon="6.96485">
        <ele>2764.89</ele>
        <time>2021-08-17T09:22:56Z</time>
      </trkpt>
      <trkpt lat="44.68102" lon="6.96483">
        <ele>2765.37</ele>
        <time>2021-08-17T09:23:02Z</time>
      </trkpt>
      <trkpt lat="44.68101" lon="6.9648">
        <ele>2765.85</ele>
        <time>2021-08-17T09:23:08Z</time>
      </trkpt>
      <trkpt lat="44.681" lon="6.9648">
        <ele>2766.33</ele>
        <time>2021-08-17T09:23:10Z</time>
      </trkpt>
      <trkpt lat="44.68097" lon="6.96479">
        <ele>2766.81</ele>
        <time>2021-08-17T09:23:17Z</time>
      </trkpt>
      <trkpt lat="44.68097" lon="6.96475">
        <ele>2767.29</ele>
        <time>2021-08-17T09:23:23Z</time>
      </trkpt>
      <trkpt lat="44.68097" lon="6.96474">
        <ele>2767.77</ele>
        <time>2021-08-17T09:23:27Z</time>
      </trkpt>
      <trkpt lat="44.68096" lon="6.96471">
        <ele>2768.25</ele>
        <time>2021-08-17T09:23:33Z</time>
      </trkpt>
      <trkpt lat="44.68095" lon="6.96464">
        <ele>2771.14</ele>
        <time>2021-08-17T09:23:41Z</time>
      </trkpt>
      <trkpt lat="44.68095" lon="6.96462">
        <ele>2772.1</ele>
        <time>2021-08-17T09:23:43Z</time>
      </trkpt>
      <trkpt lat="44.68093" lon="6.9646">
        <ele>2772.58</ele>
        <time>2021-08-17T09:23:46Z</time>
      </trkpt>
      <trkpt lat="44.68096" lon="6.96454">
        <ele>2772.58</ele>
        <time>2021-08-17T09:23:53Z</time>
      </trkpt>
      <trkpt lat="44.68095" lon="6.96454">
        <ele>2773.54</ele>
        <time>2021-08-17T09:23:59Z</time>
      </trkpt>
      <trkpt lat="44.68094" lon="6.96451">
        <ele>2774.5</ele>
        <time>2021-08-17T09:24:05Z</time>
      </trkpt>
      <trkpt lat="44.68098" lon="6.96448">
        <ele>2774.98</ele>
        <time>2021-08-17T09:24:11Z</time>
      </trkpt>
      <trkpt lat="44.68101" lon="6.96447">
        <ele>2775.94</ele>
        <time>2021-08-17T09:24:17Z</time>
      </trkpt>
      <trkpt lat="44.68102" lon="6.96445">
        <ele>2776.42</ele>
        <time>2021-08-17T09:24:19Z</time>
      </trkpt>
      <trkpt lat="44.68107" lon="6.9644">
        <ele>2779.79</ele>
        <time>2021-08-17T09:24:25Z</time>
      </trkpt>
      <trkpt lat="44.68108" lon="6.96439">
        <ele>2780.27</ele>
        <time>2021-08-17T09:24:26Z</time>
      </trkpt>
      <trkpt lat="44.68109" lon="6.9643">
        <ele>2781.23</ele>
        <time>2021-08-17T09:24:34Z</time>
      </trkpt>
      <trkpt lat="44.6811" lon="6.96429">
        <ele>2782.67</ele>
        <time>2021-08-17T09:24:40Z</time>
      </trkpt>
      <trkpt lat="44.68113" lon="6.96426">
        <ele>2783.63</ele>
        <time>2021-08-17T09:24:44Z</time>
      </trkpt>
      <trkpt lat="44.68115" lon="6.96422">
        <ele>2783.63</ele>
        <time>2021-08-17T09:24:51Z</time>
      </trkpt>
      <trkpt lat="44.68116" lon="6.96418">
        <ele>2782.67</ele>
        <time>2021-08-17T09:24:58Z</time>
      </trkpt>
      <trkpt lat="44.68118" lon="6.96412">
        <ele>2784.6</ele>
        <time>2021-08-17T09:25:05Z</time>
      </trkpt>
      <trkpt lat="44.68119" lon="6.96407">
        <ele>2785.08</ele>
        <time>2021-08-17T09:25:11Z</time>
      </trkpt>
      <trkpt lat="44.68118" lon="6.96402">
        <ele>2785.56</ele>
        <time>2021-08-17T09:25:17Z</time>
      </trkpt>
      <trkpt lat="44.6812" lon="6.96396">
        <ele>2785.56</ele>
        <time>2021-08-17T09:25:24Z</time>
      </trkpt>
      <trkpt lat="44.6812" lon="6.9639">
        <ele>2785.56</ele>
        <time>2021-08-17T09:25:31Z</time>
      </trkpt>
      <trkpt lat="44.68121" lon="6.96384">
        <ele>2786.04</ele>
        <time>2021-08-17T09:25:38Z</time>
      </trkpt>
      <trkpt lat="44.68122" lon="6.9638">
        <ele>2786.52</ele>
        <time>2021-08-17T09:25:44Z</time>
      </trkpt>
      <trkpt lat="44.68122" lon="6.96375">
        <ele>2788.92</ele>
        <time>2021-08-17T09:25:49Z</time>
      </trkpt>
      <trkpt lat="44.68127" lon="6.96374">
        <ele>2789.88</ele>
        <time>2021-08-17T09:25:52Z</time>
      </trkpt>
      <trkpt lat="44.68124" lon="6.96371">
        <ele>2792.29</ele>
        <time>2021-08-17T09:25:55Z</time>
      </trkpt>
      <trkpt lat="44.68127" lon="6.96366">
        <ele>2794.21</ele>
        <time>2021-08-17T09:26:02Z</time>
      </trkpt>
      <trkpt lat="44.6813" lon="6.96365">
        <ele>2794.21</ele>
        <time>2021-08-17T09:26:08Z</time>
      </trkpt>
      <trkpt lat="44.68129" lon="6.96362">
        <ele>2794.69</ele>
        <time>2021-08-17T09:26:15Z</time>
      </trkpt>
      <trkpt lat="44.68132" lon="6.96363">
        <ele>2794.69</ele>
        <time>2021-08-17T09:26:20Z</time>
      </trkpt>
      <trkpt lat="44.68134" lon="6.96361">
        <ele>2794.21</ele>
        <time>2021-08-17T09:26:22Z</time>
      </trkpt>
      <trkpt lat="44.68136" lon="6.96357">
        <ele>2793.25</ele>
        <time>2021-08-17T09:26:26Z</time>
      </trkpt>
      <trkpt lat="44.68136" lon="6.96353">
        <ele>2792.29</ele>
        <time>2021-08-17T09:26:33Z</time>
      </trkpt>
      <trkpt lat="44.68137" lon="6.96347">
        <ele>2793.73</ele>
        <time>2021-08-17T09:26:40Z</time>
      </trkpt>
      <trkpt lat="44.68135" lon="6.96343">
        <ele>2793.73</ele>
        <time>2021-08-17T09:26:47Z</time>
      </trkpt>
      <trkpt lat="44.6814" lon="6.96337">
        <ele>2793.73</ele>
        <time>2021-08-17T09:26:54Z</time>
      </trkpt>
      <trkpt lat="44.68139" lon="6.96334">
        <ele>2794.69</ele>
        <time>2021-08-17T09:27:00Z</time>
      </trkpt>
      <trkpt lat="44.68139" lon="6.96332">
        <ele>2794.69</ele>
        <time>2021-08-17T09:27:05Z</time>
      </trkpt>
      <trkpt lat="44.68138" lon="6.96328">
        <ele>2794.21</ele>
        <time>2021-08-17T09:27:12Z</time>
      </trkpt>
      <trkpt lat="44.68139" lon="6.96324">
        <ele>2792.77</ele>
        <time>2021-08-17T09:27:18Z</time>
      </trkpt>
      <trkpt lat="44.6814" lon="6.96322">
        <ele>2793.25</ele>
        <time>2021-08-17T09:27:24Z</time>
      </trkpt>
      <trkpt lat="44.6814" lon="6.96321">
        <ele>2793.25</ele>
        <time>2021-08-17T09:27:29Z</time>
      </trkpt>
      <trkpt lat="44.68137" lon="6.96321">
        <ele>2795.17</ele>
        <time>2021-08-17T09:27:35Z</time>
      </trkpt>
      <trkpt lat="44.68133" lon="6.96321">
        <ele>2795.65</ele>
        <time>2021-08-17T09:27:39Z</time>
      </trkpt>
      <trkpt lat="44.68133" lon="6.96322">
        <ele>2797.09</ele>
        <time>2021-08-17T09:27:46Z</time>
      </trkpt>
      <trkpt lat="44.68135" lon="6.96318">
        <ele>2798.54</ele>
        <time>2021-08-17T09:27:53Z</time>
      </trkpt>
      <trkpt lat="44.68134" lon="6.96317">
        <ele>2799.98</ele>
        <time>2021-08-17T09:27:57Z</time>
      </trkpt>
      <trkpt lat="44.68134" lon="6.96313">
        <ele>2799.02</ele>
        <time>2021-08-17T09:28:04Z</time>
      </trkpt>
      <trkpt lat="44.68137" lon="6.96309">
        <ele>2800.94</ele>
        <time>2021-08-17T09:28:10Z</time>
      </trkpt>
      <trkpt lat="44.68138" lon="6.96305">
        <ele>2800.46</ele>
        <time>2021-08-17T09:28:15Z</time>
      </trkpt>
      <trkpt lat="44.68138" lon="6.96304">
        <ele>2800.46</ele>
        <time>2021-08-17T09:28:16Z</time>
      </trkpt>
      <trkpt lat="44.68143" lon="6.96298">
        <ele>2800.94</ele>
        <time>2021-08-17T09:28:22Z</time>
      </trkpt>
      <trkpt lat="44.68145" lon="6.96296">
        <ele>2800.94</ele>
        <time>2021-08-17T09:28:27Z</time>
      </trkpt>
      <trkpt lat="44.68149" lon="6.96287">
        <ele>2801.9</ele>
        <time>2021-08-17T09:28:35Z</time>
      </trkpt>
      <trkpt lat="44.68148" lon="6.96282">
        <ele>2803.34</ele>
        <time>2021-08-17T09:28:42Z</time>
      </trkpt>
      <trkpt lat="44.68147" lon="6.96279">
        <ele>2804.3</ele>
        <time>2021-08-17T09:28:46Z</time>
      </trkpt>
      <trkpt lat="44.68147" lon="6.96275">
        <ele>2805.26</ele>
        <time>2021-08-17T09:28:50Z</time>
      </trkpt>
      <trkpt lat="44.68149" lon="6.9627">
        <ele>2805.75</ele>
        <time>2021-08-17T09:28:56Z</time>
      </trkpt>
      <trkpt lat="44.68149" lon="6.96269">
        <ele>2806.71</ele>
        <time>2021-08-17T09:29:01Z</time>
      </trkpt>
      <trkpt lat="44.68149" lon="6.96264">
        <ele>2807.19</ele>
        <time>2021-08-17T09:29:07Z</time>
      </trkpt>
      <trkpt lat="44.6815" lon="6.96259">
        <ele>2808.15</ele>
        <time>2021-08-17T09:29:14Z</time>
      </trkpt>
      <trkpt lat="44.68151" lon="6.96258">
        <ele>2809.59</ele>
        <time>2021-08-17T09:29:19Z</time>
      </trkpt>
      <trkpt lat="44.68151" lon="6.96253">
        <ele>2811.51</ele>
        <time>2021-08-17T09:29:25Z</time>
      </trkpt>
      <trkpt lat="44.68151" lon="6.96251">
        <ele>2812.96</ele>
        <time>2021-08-17T09:29:31Z</time>
      </trkpt>
      <trkpt lat="44.68151" lon="6.96249">
        <ele>2812.96</ele>
        <time>2021-08-17T09:29:33Z</time>
      </trkpt>
      <trkpt lat="44.68156" lon="6.96245">
        <ele>2814.4</ele>
        <time>2021-08-17T09:29:39Z</time>
      </trkpt>
      <trkpt lat="44.68159" lon="6.96243">
        <ele>2815.36</ele>
        <time>2021-08-17T09:29:44Z</time>
      </trkpt>
      <trkpt lat="44.68159" lon="6.9624">
        <ele>2815.36</ele>
        <time>2021-08-17T09:29:50Z</time>
      </trkpt>
      <trkpt lat="44.68157" lon="6.96239">
        <ele>2815.84</ele>
        <time>2021-08-17T09:29:54Z</time>
      </trkpt>
      <trkpt lat="44.68153" lon="6.9624">
        <ele>2816.32</ele>
        <time>2021-08-17T09:30:00Z</time>
      </trkpt>
      <trkpt lat="44.68151" lon="6.96243">
        <ele>2817.28</ele>
        <time>2021-08-17T09:30:06Z</time>
      </trkpt>
      <trkpt lat="44.6815" lon="6.96241">
        <ele>2817.76</ele>
        <time>2021-08-17T09:30:12Z</time>
      </trkpt>
      <trkpt lat="44.6815" lon="6.96243">
        <ele>2818.24</ele>
        <time>2021-08-17T09:30:15Z</time>
      </trkpt>
      <trkpt lat="44.68145" lon="6.96243">
        <ele>2817.76</ele>
        <time>2021-08-17T09:30:22Z</time>
      </trkpt>
      <trkpt lat="44.68143" lon="6.96243">
        <ele>2817.28</ele>
        <time>2021-08-17T09:30:27Z</time>
      </trkpt>
      <trkpt lat="44.68139" lon="6.96247">
        <ele>2816.32</ele>
        <time>2021-08-17T09:30:33Z</time>
      </trkpt>
      <trkpt lat="44.68138" lon="6.96247">
        <ele>2816.32</ele>
        <time>2021-08-17T09:30:35Z</time>
      </trkpt>
      <trkpt lat="44.68136" lon="6.96246">
        <ele>2817.76</ele>
        <time>2021-08-17T09:30:40Z</time>
      </trkpt>
      <trkpt lat="44.68137" lon="6.96244">
        <ele>2817.76</ele>
        <time>2021-08-17T09:30:44Z</time>
      </trkpt>
      <trkpt lat="44.68138" lon="6.96242">
        <ele>2819.68</ele>
        <time>2021-08-17T09:30:50Z</time>
      </trkpt>
      <trkpt lat="44.68138" lon="6.96239">
        <ele>2820.65</ele>
        <time>2021-08-17T09:30:54Z</time>
      </trkpt>
      <trkpt lat="44.6814" lon="6.96238">
        <ele>2822.09</ele>
        <time>2021-08-17T09:30:57Z</time>
      </trkpt>
      <trkpt lat="44.6814" lon="6.96234">
        <ele>2824.49</ele>
        <time>2021-08-17T09:31:02Z</time>
      </trkpt>
      <trkpt lat="44.68139" lon="6.9623">
        <ele>2826.89</ele>
        <time>2021-08-17T09:31:08Z</time>
      </trkpt>
      <trkpt lat="44.68142" lon="6.96228">
        <ele>2827.37</ele>
        <time>2021-08-17T09:31:13Z</time>
      </trkpt>
      <trkpt lat="44.6814" lon="6.96228">
        <ele>2827.85</ele>
        <time>2021-08-17T09:31:18Z</time>
      </trkpt>
      <trkpt lat="44.68141" lon="6.96223">
        <ele>2829.78</ele>
        <time>2021-08-17T09:31:24Z</time>
      </trkpt>
      <trkpt lat="44.68141" lon="6.9622">
        <ele>2830.26</ele>
        <time>2021-08-17T09:31:30Z</time>
      </trkpt>
      <trkpt lat="44.68143" lon="6.96218">
        <ele>2830.26</ele>
        <time>2021-08-17T09:31:36Z</time>
      </trkpt>
      <trkpt lat="44.68144" lon="6.96218">
        <ele>2830.26</ele>
        <time>2021-08-17T09:31:38Z</time>
      </trkpt>
      <trkpt lat="44.68146" lon="6.96214">
        <ele>2830.74</ele>
        <time>2021-08-17T09:31:43Z</time>
      </trkpt>
      <trkpt lat="44.68148" lon="6.96211">
        <ele>2831.22</ele>
        <time>2021-08-17T09:31:49Z</time>
      </trkpt>
      <trkpt lat="44.6815" lon="6.96211">
        <ele>2831.22</ele>
        <time>2021-08-17T09:31:54Z</time>
      </trkpt>
      <trkpt lat="44.6815" lon="6.96207">
        <ele>2831.7</ele>
        <time>2021-08-17T09:32:01Z</time>
      </trkpt>
      <trkpt lat="44.68152" lon="6.96204">
        <ele>2831.7</ele>
        <time>2021-08-17T09:32:09Z</time>
      </trkpt>
      <trkpt lat="44.68154" lon="6.96203">
        <ele>2831.7</ele>
        <time>2021-08-17T09:32:20Z</time>
      </trkpt>
      <trkpt lat="44.68156" lon="6.96203">
        <ele>2833.14</ele>
        <time>2021-08-17T09:32:36Z</time>
      </trkpt>
      <trkpt lat="44.68156" lon="6.96203">
        <ele>2833.62</ele>
        <time>2021-08-17T09:32:47Z</time>
      </trkpt>
      <trkpt lat="44.68156" lon="6.96203">
        <ele>2833.62</ele>
        <time>2021-08-17T09:32:59Z</time>
      </trkpt>
      <trkpt lat="44.68155" lon="6.96203">
        <ele>2833.14</ele>
        <time>2021-08-17T09:33:15Z</time>
      </trkpt>
      <trkpt lat="44.68155" lon="6.96201">
        <ele>2833.14</ele>
        <time>2021-08-17T09:33:28Z</time>
      </trkpt>
      <trkpt lat="44.68155" lon="6.962">
        <ele>2833.62</ele>
        <time>2021-08-17T09:33:39Z</time>
      </trkpt>
      <trkpt lat="44.68155" lon="6.96198">
        <ele>2834.1</ele>
        <time>2021-08-17T09:33:40Z</time>
      </trkpt>
      <trkpt lat="44.68156" lon="6.96196">
        <ele>2834.1</ele>
        <time>2021-08-17T09:33:42Z</time>
      </trkpt>
      <trkpt lat="44.68157" lon="6.96195">
        <ele>2834.1</ele>
        <time>2021-08-17T09:33:48Z</time>
      </trkpt>
      <trkpt lat="44.68157" lon="6.96195">
        <ele>2834.1</ele>
        <time>2021-08-17T09:33:49Z</time>
      </trkpt>
      <trkpt lat="44.68157" lon="6.96192">
        <ele>2834.58</ele>
        <time>2021-08-17T09:33:53Z</time>
      </trkpt>
      <trkpt lat="44.68155" lon="6.9619">
        <ele>2833.62</ele>
        <time>2021-08-17T09:33:56Z</time>
      </trkpt>
      <trkpt lat="44.68154" lon="6.96187">
        <ele>2833.62</ele>
        <time>2021-08-17T09:34:02Z</time>
      </trkpt>
      <trkpt lat="44.68157" lon="6.96178">
        <ele>2834.58</ele>
        <time>2021-08-17T09:34:09Z</time>
      </trkpt>
      <trkpt lat="44.68157" lon="6.96173">
        <ele>2834.58</ele>
        <time>2021-08-17T09:34:14Z</time>
      </trkpt>
      <trkpt lat="44.68154" lon="6.96171">
        <ele>2833.62</ele>
        <time>2021-08-17T09:34:20Z</time>
      </trkpt>
      <trkpt lat="44.68152" lon="6.9617">
        <ele>2834.1</ele>
        <time>2021-08-17T09:34:26Z</time>
      </trkpt>
      <trkpt lat="44.68151" lon="6.96171">
        <ele>2834.1</ele>
        <time>2021-08-17T09:34:30Z</time>
      </trkpt>
      <trkpt lat="44.68151" lon="6.96171">
        <ele>2835.55</ele>
        <time>2021-08-17T09:34:37Z</time>
      </trkpt>
      <trkpt lat="44.68149" lon="6.96171">
        <ele>2836.03</ele>
        <time>2021-08-17T09:34:42Z</time>
      </trkpt>
      <trkpt lat="44.68145" lon="6.96174">
        <ele>2836.99</ele>
        <time>2021-08-17T09:34:50Z</time>
      </trkpt>
      <trkpt lat="44.68145" lon="6.96174">
        <ele>2836.99</ele>
        <time>2021-08-17T09:34:51Z</time>
      </trkpt>
      <trkpt lat="44.68144" lon="6.96171">
        <ele>2836.51</ele>
        <time>2021-08-17T09:34:54Z</time>
      </trkpt>
      <trkpt lat="44.68146" lon="6.96168">
        <ele>2839.39</ele>
        <time>2021-08-17T09:35:00Z</time>
      </trkpt>
      <trkpt lat="44.68143" lon="6.96169">
        <ele>2841.79</ele>
        <time>2021-08-17T09:35:08Z</time>
      </trkpt>
      <trkpt lat="44.68144" lon="6.96166">
        <ele>2842.28</ele>
        <time>2021-08-17T09:35:15Z</time>
      </trkpt>
      <trkpt lat="44.68144" lon="6.96166">
        <ele>2842.28</ele>
        <time>2021-08-17T09:35:16Z</time>
      </trkpt>
      <trkpt lat="44.68145" lon="6.9616">
        <ele>2843.72</ele>
        <time>2021-08-17T09:35:23Z</time>
      </trkpt>
      <trkpt lat="44.68145" lon="6.96154">
        <ele>2842.76</ele>
        <time>2021-08-17T09:35:29Z</time>
      </trkpt>
      <trkpt lat="44.68146" lon="6.9615">
        <ele>2845.16</ele>
        <time>2021-08-17T09:35:35Z</time>
      </trkpt>
      <trkpt lat="44.68141" lon="6.96155">
        <ele>2845.16</ele>
        <time>2021-08-17T09:35:42Z</time>
      </trkpt>
      <trkpt lat="44.6814" lon="6.96156">
        <ele>2845.64</ele>
        <time>2021-08-17T09:35:48Z</time>
      </trkpt>
      <trkpt lat="44.68138" lon="6.96156">
        <ele>2845.16</ele>
        <time>2021-08-17T09:35:55Z</time>
      </trkpt>
      <trkpt lat="44.68136" lon="6.96157">
        <ele>2845.64</ele>
        <time>2021-08-17T09:36:02Z</time>
      </trkpt>
      <trkpt lat="44.68138" lon="6.96154">
        <ele>2846.6</ele>
        <time>2021-08-17T09:36:07Z</time>
      </trkpt>
      <trkpt lat="44.68137" lon="6.96151">
        <ele>2848.52</ele>
        <time>2021-08-17T09:36:10Z</time>
      </trkpt>
      <trkpt lat="44.68137" lon="6.96147">
        <ele>2850.45</ele>
        <time>2021-08-17T09:36:17Z</time>
      </trkpt>
      <trkpt lat="44.68137" lon="6.96146">
        <ele>2851.41</ele>
        <time>2021-08-17T09:36:22Z</time>
      </trkpt>
      <trkpt lat="44.68138" lon="6.96141">
        <ele>2851.89</ele>
        <time>2021-08-17T09:36:29Z</time>
      </trkpt>
      <trkpt lat="44.68137" lon="6.96137">
        <ele>2853.33</ele>
        <time>2021-08-17T09:36:36Z</time>
      </trkpt>
      <trkpt lat="44.68137" lon="6.96134">
        <ele>2853.33</ele>
        <time>2021-08-17T09:36:42Z</time>
      </trkpt>
      <trkpt lat="44.68139" lon="6.96128">
        <ele>2852.85</ele>
        <time>2021-08-17T09:36:48Z</time>
      </trkpt>
      <trkpt lat="44.68139" lon="6.96128">
        <ele>2852.37</ele>
        <time>2021-08-17T09:36:54Z</time>
      </trkpt>
      <trkpt lat="44.6814" lon="6.96127">
        <ele>2851.89</ele>
        <time>2021-08-17T09:36:57Z</time>
      </trkpt>
      <trkpt lat="44.68137" lon="6.96125">
        <ele>2850.45</ele>
        <time>2021-08-17T09:37:04Z</time>
      </trkpt>
      <trkpt lat="44.68138" lon="6.96122">
        <ele>2851.41</ele>
        <time>2021-08-17T09:37:11Z</time>
      </trkpt>
      <trkpt lat="44.68139" lon="6.96119">
        <ele>2851.41</ele>
        <time>2021-08-17T09:37:17Z</time>
      </trkpt>
      <trkpt lat="44.68138" lon="6.96116">
        <ele>2851.89</ele>
        <time>2021-08-17T09:37:25Z</time>
      </trkpt>
      <trkpt lat="44.68138" lon="6.96113">
        <ele>2852.37</ele>
        <time>2021-08-17T09:37:27Z</time>
      </trkpt>
      <trkpt lat="44.68142" lon="6.96106">
        <ele>2855.73</ele>
        <time>2021-08-17T09:37:34Z</time>
      </trkpt>
      <trkpt lat="44.68145" lon="6.96101">
        <ele>2858.14</ele>
        <time>2021-08-17T09:37:41Z</time>
      </trkpt>
      <trkpt lat="44.68146" lon="6.96102">
        <ele>2859.1</ele>
        <time>2021-08-17T09:37:49Z</time>
      </trkpt>
      <trkpt lat="44.68148" lon="6.961">
        <ele>2860.06</ele>
        <time>2021-08-17T09:37:56Z</time>
      </trkpt>
      <trkpt lat="44.68149" lon="6.961">
        <ele>2860.06</ele>
        <time>2021-08-17T09:37:59Z</time>
      </trkpt>
      <trkpt lat="44.68148" lon="6.961">
        <ele>2860.06</ele>
        <time>2021-08-17T09:38:05Z</time>
      </trkpt>
      <trkpt lat="44.68147" lon="6.96094">
        <ele>2861.5</ele>
        <time>2021-08-17T09:38:13Z</time>
      </trkpt>
      <trkpt lat="44.68148" lon="6.96094">
        <ele>2861.5</ele>
        <time>2021-08-17T09:38:19Z</time>
      </trkpt>
      <trkpt lat="44.68149" lon="6.96091">
        <ele>2861.98</ele>
        <time>2021-08-17T09:38:26Z</time>
      </trkpt>
      <trkpt lat="44.68149" lon="6.96089">
        <ele>2861.98</ele>
        <time>2021-08-17T09:38:33Z</time>
      </trkpt>
      <trkpt lat="44.68149" lon="6.96086">
        <ele>2861.98</ele>
        <time>2021-08-17T09:38:41Z</time>
      </trkpt>
      <trkpt lat="44.68148" lon="6.96083">
        <ele>2861.5</ele>
        <time>2021-08-17T09:38:47Z</time>
      </trkpt>
      <trkpt lat="44.68146" lon="6.96078">
        <ele>2861.98</ele>
        <time>2021-08-17T09:38:54Z</time>
      </trkpt>
      <trkpt lat="44.68146" lon="6.96073">
        <ele>2863.42</ele>
        <time>2021-08-17T09:39:00Z</time>
      </trkpt>
      <trkpt lat="44.68148" lon="6.9607">
        <ele>2863.9</ele>
        <time>2021-08-17T09:39:13Z</time>
      </trkpt>
      <trkpt lat="44.68149" lon="6.96069">
        <ele>2863.9</ele>
        <time>2021-08-17T09:39:29Z</time>
      </trkpt>
      <trkpt lat="44.68149" lon="6.96068">
        <ele>2864.87</ele>
        <time>2021-08-17T09:39:37Z</time>
      </trkpt>
      <trkpt lat="44.68148" lon="6.96064">
        <ele>2865.83</ele>
        <time>2021-08-17T09:39:44Z</time>
      </trkpt>
      <trkpt lat="44.68148" lon="6.9606">
        <ele>2867.75</ele>
        <time>2021-08-17T09:39:52Z</time>
      </trkpt>
      <trkpt lat="44.68148" lon="6.96055">
        <ele>2869.67</ele>
        <time>2021-08-17T09:39:57Z</time>
      </trkpt>
      <trkpt lat="44.68149" lon="6.96048">
        <ele>2871.11</ele>
        <time>2021-08-17T09:40:05Z</time>
      </trkpt>
      <trkpt lat="44.68147" lon="6.96042">
        <ele>2873.52</ele>
        <time>2021-08-17T09:40:13Z</time>
      </trkpt>
      <trkpt lat="44.68146" lon="6.96041">
        <ele>2874</ele>
        <time>2021-08-17T09:40:15Z</time>
      </trkpt>
      <trkpt lat="44.68147" lon="6.96039">
        <ele>2874</ele>
        <time>2021-08-17T09:40:19Z</time>
      </trkpt>
      <trkpt lat="44.68144" lon="6.96035">
        <ele>2874</ele>
        <time>2021-08-17T09:40:26Z</time>
      </trkpt>
      <trkpt lat="44.68144" lon="6.96032">
        <ele>2874.96</ele>
        <time>2021-08-17T09:40:31Z</time>
      </trkpt>
      <trkpt lat="44.68144" lon="6.96031">
        <ele>2876.88</ele>
        <time>2021-08-17T09:40:36Z</time>
      </trkpt>
      <trkpt lat="44.68148" lon="6.96026">
        <ele>2876.88</ele>
        <time>2021-08-17T09:40:43Z</time>
      </trkpt>
      <trkpt lat="44.68152" lon="6.96014">
        <ele>2877.84</ele>
        <time>2021-08-17T09:40:52Z</time>
      </trkpt>
      <trkpt lat="44.68154" lon="6.96005">
        <ele>2879.29</ele>
        <time>2021-08-17T09:41:00Z</time>
      </trkpt>
      <trkpt lat="44.68155" lon="6.96">
        <ele>2880.25</ele>
        <time>2021-08-17T09:41:04Z</time>
      </trkpt>
      <trkpt lat="44.68156" lon="6.95993">
        <ele>2880.25</ele>
        <time>2021-08-17T09:41:11Z</time>
      </trkpt>
      <trkpt lat="44.68156" lon="6.95993">
        <ele>2880.25</ele>
        <time>2021-08-17T09:41:12Z</time>
      </trkpt>
      <trkpt lat="44.68156" lon="6.95989">
        <ele>2878.81</ele>
        <time>2021-08-17T09:41:18Z</time>
      </trkpt>
      <trkpt lat="44.68156" lon="6.95989">
        <ele>2878.32</ele>
        <time>2021-08-17T09:41:25Z</time>
      </trkpt>
      <trkpt lat="44.68156" lon="6.95987">
        <ele>2878.81</ele>
        <time>2021-08-17T09:41:30Z</time>
      </trkpt>
      <trkpt lat="44.68155" lon="6.95985">
        <ele>2878.81</ele>
        <time>2021-08-17T09:41:37Z</time>
      </trkpt>
      <trkpt lat="44.68156" lon="6.95983">
        <ele>2879.29</ele>
        <time>2021-08-17T09:41:44Z</time>
      </trkpt>
      <trkpt lat="44.68156" lon="6.95976">
        <ele>2881.21</ele>
        <time>2021-08-17T09:41:50Z</time>
      </trkpt>
      <trkpt lat="44.68156" lon="6.95974">
        <ele>2881.69</ele>
        <time>2021-08-17T09:41:57Z</time>
      </trkpt>
      <trkpt lat="44.68155" lon="6.95969">
        <ele>2882.65</ele>
        <time>2021-08-17T09:42:04Z</time>
      </trkpt>
      <trkpt lat="44.68156" lon="6.95964">
        <ele>2883.13</ele>
        <time>2021-08-17T09:42:11Z</time>
      </trkpt>
      <trkpt lat="44.68155" lon="6.95958">
        <ele>2883.61</ele>
        <time>2021-08-17T09:42:17Z</time>
      </trkpt>
      <trkpt lat="44.68155" lon="6.95952">
        <ele>2884.09</ele>
        <time>2021-08-17T09:42:24Z</time>
      </trkpt>
      <trkpt lat="44.68155" lon="6.95951">
        <ele>2884.09</ele>
        <time>2021-08-17T09:42:25Z</time>
      </trkpt>
      <trkpt lat="44.68157" lon="6.95943">
        <ele>2884.09</ele>
        <time>2021-08-17T09:42:32Z</time>
      </trkpt>
      <trkpt lat="44.68156" lon="6.95937">
        <ele>2881.69</ele>
        <time>2021-08-17T09:42:39Z</time>
      </trkpt>
      <trkpt lat="44.68156" lon="6.95934">
        <ele>2881.21</ele>
        <time>2021-08-17T09:42:42Z</time>
      </trkpt>
      <trkpt lat="44.68155" lon="6.95929">
        <ele>2882.17</ele>
        <time>2021-08-17T09:42:50Z</time>
      </trkpt>
      <trkpt lat="44.68158" lon="6.95923">
        <ele>2883.13</ele>
        <time>2021-08-17T09:42:57Z</time>
      </trkpt>
      <trkpt lat="44.68158" lon="6.95919">
        <ele>2884.09</ele>
        <time>2021-08-17T09:43:04Z</time>
      </trkpt>
      <trkpt lat="44.68161" lon="6.95916">
        <ele>2886.02</ele>
        <time>2021-08-17T09:43:11Z</time>
      </trkpt>
      <trkpt lat="44.68161" lon="6.95914">
        <ele>2886.02</ele>
        <time>2021-08-17T09:43:18Z</time>
      </trkpt>
      <trkpt lat="44.6816" lon="6.95911">
        <ele>2887.46</ele>
        <time>2021-08-17T09:43:23Z</time>
      </trkpt>
      <trkpt lat="44.68161" lon="6.95907">
        <ele>2888.9</ele>
        <time>2021-08-17T09:43:28Z</time>
      </trkpt>
      <trkpt lat="44.68162" lon="6.95907">
        <ele>2888.9</ele>
        <time>2021-08-17T09:43:30Z</time>
      </trkpt>
      <trkpt lat="44.68162" lon="6.95901">
        <ele>2891.3</ele>
        <time>2021-08-17T09:43:36Z</time>
      </trkpt>
      <trkpt lat="44.68163" lon="6.959">
        <ele>2891.78</ele>
        <time>2021-08-17T09:43:42Z</time>
      </trkpt>
      <trkpt lat="44.68163" lon="6.959">
        <ele>2891.3</ele>
        <time>2021-08-17T09:43:53Z</time>
      </trkpt>
      <trkpt lat="44.68164" lon="6.959">
        <ele>2892.74</ele>
        <time>2021-08-17T09:44:01Z</time>
      </trkpt>
      <trkpt lat="44.68165" lon="6.959">
        <ele>2893.71</ele>
        <time>2021-08-17T09:44:07Z</time>
      </trkpt>
      <trkpt lat="44.68165" lon="6.959">
        <ele>2893.71</ele>
        <time>2021-08-17T09:44:13Z</time>
      </trkpt>
      <trkpt lat="44.68166" lon="6.959">
        <ele>2893.71</ele>
        <time>2021-08-17T09:44:19Z</time>
      </trkpt>
      <trkpt lat="44.68167" lon="6.95902">
        <ele>2893.71</ele>
        <time>2021-08-17T09:44:22Z</time>
      </trkpt>
      <trkpt lat="44.68168" lon="6.95906">
        <ele>2892.74</ele>
        <time>2021-08-17T09:44:29Z</time>
      </trkpt>
      <trkpt lat="44.68168" lon="6.95906">
        <ele>2892.26</ele>
        <time>2021-08-17T09:44:36Z</time>
      </trkpt>
      <trkpt lat="44.68168" lon="6.95906">
        <ele>2891.78</ele>
        <time>2021-08-17T09:44:42Z</time>
      </trkpt>
      <trkpt lat="44.68168" lon="6.95906">
        <ele>2891.78</ele>
        <time>2021-08-17T09:44:56Z</time>
      </trkpt>
      <trkpt lat="44.68168" lon="6.95906">
        <ele>2891.3</ele>
        <time>2021-08-17T09:45:09Z</time>
      </trkpt>
      <trkpt lat="44.68168" lon="6.95906">
        <ele>2890.82</ele>
        <time>2021-08-17T09:45:27Z</time>
      </trkpt>
      <trkpt lat="44.68168" lon="6.95906">
        <ele>2890.82</ele>
        <time>2021-08-17T09:45:32Z</time>
      </trkpt>
      <trkpt lat="44.68169" lon="6.95908">
        <ele>2889.86</ele>
        <time>2021-08-17T09:45:51Z</time>
      </trkpt>
      <trkpt lat="44.68169" lon="6.95908">
        <ele>2889.38</ele>
        <time>2021-08-17T09:46:11Z</time>
      </trkpt>
      <trkpt lat="44.68169" lon="6.95909">
        <ele>2888.9</ele>
        <time>2021-08-17T09:46:30Z</time>
      </trkpt>
      <trkpt lat="44.68169" lon="6.95909">
        <ele>2888.9</ele>
        <time>2021-08-17T09:46:50Z</time>
      </trkpt>
      <trkpt lat="44.68169" lon="6.95909">
        <ele>2888.9</ele>
        <time>2021-08-17T09:47:03Z</time>
      </trkpt>
      <trkpt lat="44.68169" lon="6.95909">
        <ele>2888.9</ele>
        <time>2021-08-17T09:47:21Z</time>
      </trkpt>
      <trkpt lat="44.68169" lon="6.95909">
        <ele>2888.9</ele>
        <time>2021-08-17T09:47:42Z</time>
      </trkpt>
      <trkpt lat="44.68169" lon="6.95909">
        <ele>2888.42</ele>
        <time>2021-08-17T09:48:00Z</time>
      </trkpt>
      <trkpt lat="44.68169" lon="6.95909">
        <ele>2888.42</ele>
        <time>2021-08-17T09:48:18Z</time>
      </trkpt>
      <trkpt lat="44.68169" lon="6.95909">
        <ele>2888.42</ele>
        <time>2021-08-17T09:48:34Z</time>
      </trkpt>
      <trkpt lat="44.68169" lon="6.95909">
        <ele>2888.9</ele>
        <time>2021-08-17T09:48:53Z</time>
      </trkpt>
      <trkpt lat="44.68169" lon="6.95909">
        <ele>2888.9</ele>
        <time>2021-08-17T09:49:11Z</time>
      </trkpt>
      <trkpt lat="44.68169" lon="6.95909">
        <ele>2888.9</ele>
        <time>2021-08-17T09:49:28Z</time>
      </trkpt>
      <trkpt lat="44.68169" lon="6.95909">
        <ele>2888.42</ele>
        <time>2021-08-17T09:49:46Z</time>
      </trkpt>
      <trkpt lat="44.68169" lon="6.95909">
        <ele>2888.42</ele>
        <time>2021-08-17T09:50:05Z</time>
      </trkpt>
      <trkpt lat="44.68169" lon="6.95909">
        <ele>2888.42</ele>
        <time>2021-08-17T09:50:25Z</time>
      </trkpt>
      <trkpt lat="44.68169" lon="6.95909">
        <ele>2888.42</ele>
        <time>2021-08-17T09:50:47Z</time>
      </trkpt>
      <trkpt lat="44.68169" lon="6.95909">
        <ele>2888.42</ele>
        <time>2021-08-17T09:51:07Z</time>
      </trkpt>
      <trkpt lat="44.68169" lon="6.95909">
        <ele>2888.42</ele>
        <time>2021-08-17T09:51:24Z</time>
      </trkpt>
      <trkpt lat="44.68169" lon="6.95909">
        <ele>2887.94</ele>
        <time>2021-08-17T09:51:46Z</time>
      </trkpt>
      <trkpt lat="44.68169" lon="6.95909">
        <ele>2887.94</ele>
        <time>2021-08-17T09:52:00Z</time>
      </trkpt>
      <trkpt lat="44.68169" lon="6.95909">
        <ele>2888.42</ele>
        <time>2021-08-17T09:52:17Z</time>
      </trkpt>
      <trkpt lat="44.68169" lon="6.95909">
        <ele>2888.42</ele>
        <time>2021-08-17T09:52:34Z</time>
      </trkpt>
      <trkpt lat="44.68169" lon="6.95909">
        <ele>2888.42</ele>
        <time>2021-08-17T09:52:51Z</time>
      </trkpt>
      <trkpt lat="44.68169" lon="6.95908">
        <ele>2888.42</ele>
        <time>2021-08-17T09:53:09Z</time>
      </trkpt>
      <trkpt lat="44.68169" lon="6.95908">
        <ele>2888.42</ele>
        <time>2021-08-17T09:53:28Z</time>
      </trkpt>
      <trkpt lat="44.68169" lon="6.95908">
        <ele>2888.42</ele>
        <time>2021-08-17T09:53:45Z</time>
      </trkpt>
      <trkpt lat="44.68169" lon="6.95908">
        <ele>2888.42</ele>
        <time>2021-08-17T09:54:03Z</time>
      </trkpt>
      <trkpt lat="44.68169" lon="6.95908">
        <ele>2888.42</ele>
        <time>2021-08-17T09:54:18Z</time>
      </trkpt>
      <trkpt lat="44.68169" lon="6.95908">
        <ele>2888.42</ele>
        <time>2021-08-17T09:54:33Z</time>
      </trkpt>
      <trkpt lat="44.68169" lon="6.95907">
        <ele>2888.42</ele>
        <time>2021-08-17T09:54:50Z</time>
      </trkpt>
      <trkpt lat="44.6817" lon="6.95906">
        <ele>2888.42</ele>
        <time>2021-08-17T09:55:10Z</time>
      </trkpt>
      <trkpt lat="44.6817" lon="6.95906">
        <ele>2888.42</ele>
        <time>2021-08-17T09:55:28Z</time>
      </trkpt>
      <trkpt lat="44.6817" lon="6.95906">
        <ele>2888.42</ele>
        <time>2021-08-17T09:55:45Z</time>
      </trkpt>
      <trkpt lat="44.6817" lon="6.95906">
        <ele>2888.42</ele>
        <time>2021-08-17T09:56:06Z</time>
      </trkpt>
      <trkpt lat="44.6817" lon="6.95905">
        <ele>2888.42</ele>
        <time>2021-08-17T09:56:27Z</time>
      </trkpt>
      <trkpt lat="44.68171" lon="6.95905">
        <ele>2888.42</ele>
        <time>2021-08-17T09:56:47Z</time>
      </trkpt>
      <trkpt lat="44.68171" lon="6.95905">
        <ele>2887.94</ele>
        <time>2021-08-17T09:57:08Z</time>
      </trkpt>
      <trkpt lat="44.68171" lon="6.95905">
        <ele>2887.46</ele>
        <time>2021-08-17T09:57:28Z</time>
      </trkpt>
      <trkpt lat="44.68171" lon="6.95905">
        <ele>2887.94</ele>
        <time>2021-08-17T09:57:49Z</time>
      </trkpt>
      <trkpt lat="44.6817" lon="6.95906">
        <ele>2887.46</ele>
        <time>2021-08-17T09:58:10Z</time>
      </trkpt>
      <trkpt lat="44.6817" lon="6.95906">
        <ele>2887.46</ele>
        <time>2021-08-17T09:58:30Z</time>
      </trkpt>
      <trkpt lat="44.6817" lon="6.95906">
        <ele>2887.46</ele>
        <time>2021-08-17T09:58:48Z</time>
      </trkpt>
      <trkpt lat="44.6817" lon="6.95906">
        <ele>2887.46</ele>
        <time>2021-08-17T09:59:06Z</time>
      </trkpt>
      <trkpt lat="44.68169" lon="6.95907">
        <ele>2887.46</ele>
        <time>2021-08-17T09:59:26Z</time>
      </trkpt>
      <trkpt lat="44.6817" lon="6.95907">
        <ele>2887.46</ele>
        <time>2021-08-17T09:59:43Z</time>
      </trkpt>
      <trkpt lat="44.68169" lon="6.95907">
        <ele>2886.98</ele>
        <time>2021-08-17T09:59:54Z</time>
      </trkpt>
      <trkpt lat="44.68168" lon="6.95908">
        <ele>2886.5</ele>
        <time>2021-08-17T10:00:00Z</time>
      </trkpt>
      <trkpt lat="44.68166" lon="6.95908">
        <ele>2886.5</ele>
        <time>2021-08-17T10:00:07Z</time>
      </trkpt>
      <trkpt lat="44.68169" lon="6.95908">
        <ele>2886.5</ele>
        <time>2021-08-17T10:00:12Z</time>
      </trkpt>
      <trkpt lat="44.6817" lon="6.95906">
        <ele>2885.53</ele>
        <time>2021-08-17T10:00:19Z</time>
      </trkpt>
      <trkpt lat="44.68165" lon="6.95906">
        <ele>2885.53</ele>
        <time>2021-08-17T10:00:26Z</time>
      </trkpt>
      <trkpt lat="44.68165" lon="6.95906">
        <ele>2886.5</ele>
        <time>2021-08-17T10:00:31Z</time>
      </trkpt>
      <trkpt lat="44.68165" lon="6.95905">
        <ele>2886.5</ele>
        <time>2021-08-17T10:00:33Z</time>
      </trkpt>
      <trkpt lat="44.68165" lon="6.95902">
        <ele>2888.9</ele>
        <time>2021-08-17T10:00:40Z</time>
      </trkpt>
      <trkpt lat="44.68164" lon="6.95899">
        <ele>2888.9</ele>
        <time>2021-08-17T10:00:46Z</time>
      </trkpt>
      <trkpt lat="44.68164" lon="6.95899">
        <ele>2889.38</ele>
        <time>2021-08-17T10:00:49Z</time>
      </trkpt>
      <trkpt lat="44.68157" lon="6.959">
        <ele>2887.94</ele>
        <time>2021-08-17T10:00:58Z</time>
      </trkpt>
      <trkpt lat="44.6815" lon="6.959">
        <ele>2886.98</ele>
        <time>2021-08-17T10:01:06Z</time>
      </trkpt>
      <trkpt lat="44.68145" lon="6.95897">
        <ele>2885.53</ele>
        <time>2021-08-17T10:01:13Z</time>
      </trkpt>
      <trkpt lat="44.68144" lon="6.95897">
        <ele>2885.05</ele>
        <time>2021-08-17T10:01:15Z</time>
      </trkpt>
      <trkpt lat="44.6814" lon="6.95893">
        <ele>2883.13</ele>
        <time>2021-08-17T10:01:22Z</time>
      </trkpt>
      <trkpt lat="44.68136" lon="6.95891">
        <ele>2881.21</ele>
        <time>2021-08-17T10:01:28Z</time>
      </trkpt>
      <trkpt lat="44.68135" lon="6.95889">
        <ele>2881.21</ele>
        <time>2021-08-17T10:01:34Z</time>
      </trkpt>
      <trkpt lat="44.68133" lon="6.95888">
        <ele>2879.77</ele>
        <time>2021-08-17T10:01:40Z</time>
      </trkpt>
      <trkpt lat="44.68132" lon="6.95888">
        <ele>2878.81</ele>
        <time>2021-08-17T10:01:42Z</time>
      </trkpt>
      <trkpt lat="44.68126" lon="6.95885">
        <ele>2876.88</ele>
        <time>2021-08-17T10:01:49Z</time>
      </trkpt>
      <trkpt lat="44.68123" lon="6.95882">
        <ele>2876.4</ele>
        <time>2021-08-17T10:01:55Z</time>
      </trkpt>
      <trkpt lat="44.68119" lon="6.95879">
        <ele>2875.92</ele>
        <time>2021-08-17T10:01:59Z</time>
      </trkpt>
      <trkpt lat="44.68113" lon="6.95871">
        <ele>2876.88</ele>
        <time>2021-08-17T10:02:07Z</time>
      </trkpt>
      <trkpt lat="44.68106" lon="6.95863">
        <ele>2877.36</ele>
        <time>2021-08-17T10:02:15Z</time>
      </trkpt>
      <trkpt lat="44.681" lon="6.95857">
        <ele>2877.36</ele>
        <time>2021-08-17T10:02:23Z</time>
      </trkpt>
      <trkpt lat="44.68095" lon="6.95854">
        <ele>2878.81</ele>
        <time>2021-08-17T10:02:29Z</time>
      </trkpt>
      <trkpt lat="44.68091" lon="6.95853">
        <ele>2877.84</ele>
        <time>2021-08-17T10:02:33Z</time>
      </trkpt>
      <trkpt lat="44.68087" lon="6.95849">
        <ele>2877.36</ele>
        <time>2021-08-17T10:02:41Z</time>
      </trkpt>
      <trkpt lat="44.68082" lon="6.95845">
        <ele>2877.36</ele>
        <time>2021-08-17T10:02:48Z</time>
      </trkpt>
      <trkpt lat="44.6808" lon="6.95844">
        <ele>2877.84</ele>
        <time>2021-08-17T10:02:51Z</time>
      </trkpt>
      <trkpt lat="44.68075" lon="6.95839">
        <ele>2878.32</ele>
        <time>2021-08-17T10:02:59Z</time>
      </trkpt>
      <trkpt lat="44.6807" lon="6.95836">
        <ele>2879.29</ele>
        <time>2021-08-17T10:03:05Z</time>
      </trkpt>
      <trkpt lat="44.68067" lon="6.95833">
        <ele>2879.29</ele>
        <time>2021-08-17T10:03:11Z</time>
      </trkpt>
      <trkpt lat="44.68063" lon="6.95829">
        <ele>2880.25</ele>
        <time>2021-08-17T10:03:18Z</time>
      </trkpt>
      <trkpt lat="44.68063" lon="6.95828">
        <ele>2880.25</ele>
        <time>2021-08-17T10:03:30Z</time>
      </trkpt>
      <trkpt lat="44.68068" lon="6.95832">
        <ele>2879.29</ele>
        <time>2021-08-17T10:03:38Z</time>
      </trkpt>
      <trkpt lat="44.6807" lon="6.95832">
        <ele>2879.29</ele>
        <time>2021-08-17T10:03:40Z</time>
      </trkpt>
      <trkpt lat="44.68076" lon="6.95831">
        <ele>2879.29</ele>
        <time>2021-08-17T10:03:46Z</time>
      </trkpt>
      <trkpt lat="44.68077" lon="6.95831">
        <ele>2879.29</ele>
        <time>2021-08-17T10:03:48Z</time>
      </trkpt>
      <trkpt lat="44.68081" lon="6.95838">
        <ele>2878.81</ele>
        <time>2021-08-17T10:03:54Z</time>
      </trkpt>
      <trkpt lat="44.68085" lon="6.95845">
        <ele>2879.77</ele>
        <time>2021-08-17T10:04:01Z</time>
      </trkpt>
      <trkpt lat="44.6809" lon="6.95849">
        <ele>2881.21</ele>
        <time>2021-08-17T10:04:07Z</time>
      </trkpt>
      <trkpt lat="44.68095" lon="6.95852">
        <ele>2881.21</ele>
        <time>2021-08-17T10:04:13Z</time>
      </trkpt>
      <trkpt lat="44.68099" lon="6.95854">
        <ele>2881.21</ele>
        <time>2021-08-17T10:04:19Z</time>
      </trkpt>
      <trkpt lat="44.68104" lon="6.95856">
        <ele>2881.21</ele>
        <time>2021-08-17T10:04:25Z</time>
      </trkpt>
      <trkpt lat="44.68106" lon="6.95858">
        <ele>2881.21</ele>
        <time>2021-08-17T10:04:27Z</time>
      </trkpt>
      <trkpt lat="44.6811" lon="6.95863">
        <ele>2881.21</ele>
        <time>2021-08-17T10:04:35Z</time>
      </trkpt>
      <trkpt lat="44.68111" lon="6.95864">
        <ele>2880.73</ele>
        <time>2021-08-17T10:04:36Z</time>
      </trkpt>
      <trkpt lat="44.68117" lon="6.95872">
        <ele>2882.17</ele>
        <time>2021-08-17T10:04:44Z</time>
      </trkpt>
      <trkpt lat="44.68123" lon="6.95876">
        <ele>2882.17</ele>
        <time>2021-08-17T10:04:50Z</time>
      </trkpt>
      <trkpt lat="44.68123" lon="6.95877">
        <ele>2882.17</ele>
        <time>2021-08-17T10:04:51Z</time>
      </trkpt>
      <trkpt lat="44.68128" lon="6.95882">
        <ele>2882.65</ele>
        <time>2021-08-17T10:04:57Z</time>
      </trkpt>
      <trkpt lat="44.68133" lon="6.95885">
        <ele>2883.61</ele>
        <time>2021-08-17T10:05:03Z</time>
      </trkpt>
      <trkpt lat="44.68139" lon="6.95891">
        <ele>2884.57</ele>
        <time>2021-08-17T10:05:10Z</time>
      </trkpt>
      <trkpt lat="44.6814" lon="6.95896">
        <ele>2886.02</ele>
        <time>2021-08-17T10:05:15Z</time>
      </trkpt>
      <trkpt lat="44.68139" lon="6.95906">
        <ele>2886.98</ele>
        <time>2021-08-17T10:05:22Z</time>
      </trkpt>
      <trkpt lat="44.68135" lon="6.95914">
        <ele>2887.94</ele>
        <time>2021-08-17T10:05:29Z</time>
      </trkpt>
      <trkpt lat="44.6813" lon="6.95918">
        <ele>2887.46</ele>
        <time>2021-08-17T10:05:36Z</time>
      </trkpt>
      <trkpt lat="44.68125" lon="6.95919">
        <ele>2886.02</ele>
        <time>2021-08-17T10:05:43Z</time>
      </trkpt>
      <trkpt lat="44.68121" lon="6.9592">
        <ele>2886.02</ele>
        <time>2021-08-17T10:05:47Z</time>
      </trkpt>
      <trkpt lat="44.6812" lon="6.95921">
        <ele>2886.02</ele>
        <time>2021-08-17T10:05:49Z</time>
      </trkpt>
      <trkpt lat="44.68117" lon="6.95921">
        <ele>2885.53</ele>
        <time>2021-08-17T10:05:53Z</time>
      </trkpt>
      <trkpt lat="44.68112" lon="6.95923">
        <ele>2885.53</ele>
        <time>2021-08-17T10:06:01Z</time>
      </trkpt>
      <trkpt lat="44.68109" lon="6.95925">
        <ele>2886.02</ele>
        <time>2021-08-17T10:06:07Z</time>
      </trkpt>
      <trkpt lat="44.68106" lon="6.95926">
        <ele>2886.02</ele>
        <time>2021-08-17T10:06:10Z</time>
      </trkpt>
      <trkpt lat="44.68101" lon="6.95928">
        <ele>2888.42</ele>
        <time>2021-08-17T10:06:18Z</time>
      </trkpt>
      <trkpt lat="44.68095" lon="6.95929">
        <ele>2890.82</ele>
        <time>2021-08-17T10:06:27Z</time>
      </trkpt>
      <trkpt lat="44.68091" lon="6.95929">
        <ele>2892.26</ele>
        <time>2021-08-17T10:06:34Z</time>
      </trkpt>
      <trkpt lat="44.68089" lon="6.95929">
        <ele>2892.26</ele>
        <time>2021-08-17T10:06:36Z</time>
      </trkpt>
      <trkpt lat="44.68087" lon="6.95929">
        <ele>2893.71</ele>
        <time>2021-08-17T10:06:39Z</time>
      </trkpt>
      <trkpt lat="44.68083" lon="6.95932">
        <ele>2895.63</ele>
        <time>2021-08-17T10:06:46Z</time>
      </trkpt>
      <trkpt lat="44.6808" lon="6.9593">
        <ele>2897.55</ele>
        <time>2021-08-17T10:06:52Z</time>
      </trkpt>
      <trkpt lat="44.68076" lon="6.95931">
        <ele>2900.44</ele>
        <time>2021-08-17T10:06:59Z</time>
      </trkpt>
      <trkpt lat="44.68075" lon="6.95929">
        <ele>2901.88</ele>
        <time>2021-08-17T10:07:05Z</time>
      </trkpt>
      <trkpt lat="44.68074" lon="6.95927">
        <ele>2902.36</ele>
        <time>2021-08-17T10:07:11Z</time>
      </trkpt>
      <trkpt lat="44.68074" lon="6.95926">
        <ele>2902.36</ele>
        <time>2021-08-17T10:07:17Z</time>
      </trkpt>
      <trkpt lat="44.68072" lon="6.95926">
        <ele>2903.32</ele>
        <time>2021-08-17T10:07:22Z</time>
      </trkpt>
      <trkpt lat="44.68071" lon="6.95927">
        <ele>2903.32</ele>
        <time>2021-08-17T10:07:29Z</time>
      </trkpt>
      <trkpt lat="44.68071" lon="6.95927">
        <ele>2903.8</ele>
        <time>2021-08-17T10:07:36Z</time>
      </trkpt>
      <trkpt lat="44.6807" lon="6.95926">
        <ele>2903.8</ele>
        <time>2021-08-17T10:07:45Z</time>
      </trkpt>
      <trkpt lat="44.68069" lon="6.95925">
        <ele>2903.8</ele>
        <time>2021-08-17T10:07:54Z</time>
      </trkpt>
      <trkpt lat="44.68069" lon="6.95925">
        <ele>2903.8</ele>
        <time>2021-08-17T10:08:00Z</time>
      </trkpt>
      <trkpt lat="44.68068" lon="6.95925">
        <ele>2903.32</ele>
        <time>2021-08-17T10:08:06Z</time>
      </trkpt>
      <trkpt lat="44.68068" lon="6.95924">
        <ele>2903.32</ele>
        <time>2021-08-17T10:08:13Z</time>
      </trkpt>
      <trkpt lat="44.68067" lon="6.95922">
        <ele>2904.28</ele>
        <time>2021-08-17T10:08:20Z</time>
      </trkpt>
      <trkpt lat="44.68066" lon="6.95922">
        <ele>2904.76</ele>
        <time>2021-08-17T10:08:26Z</time>
      </trkpt>
      <trkpt lat="44.68065" lon="6.95922">
        <ele>2904.76</ele>
        <time>2021-08-17T10:08:34Z</time>
      </trkpt>
      <trkpt lat="44.68065" lon="6.95922">
        <ele>2905.24</ele>
        <time>2021-08-17T10:08:42Z</time>
      </trkpt>
      <trkpt lat="44.68064" lon="6.95923">
        <ele>2905.72</ele>
        <time>2021-08-17T10:08:50Z</time>
      </trkpt>
      <trkpt lat="44.68063" lon="6.95923">
        <ele>2906.68</ele>
        <time>2021-08-17T10:08:58Z</time>
      </trkpt>
      <trkpt lat="44.68062" lon="6.95924">
        <ele>2906.2</ele>
        <time>2021-08-17T10:09:04Z</time>
      </trkpt>
      <trkpt lat="44.68061" lon="6.95925">
        <ele>2906.68</ele>
        <time>2021-08-17T10:09:11Z</time>
      </trkpt>
      <trkpt lat="44.6806" lon="6.95926">
        <ele>2907.16</ele>
        <time>2021-08-17T10:09:18Z</time>
      </trkpt>
      <trkpt lat="44.68059" lon="6.95926">
        <ele>2907.16</ele>
        <time>2021-08-17T10:09:24Z</time>
      </trkpt>
      <trkpt lat="44.68057" lon="6.95927">
        <ele>2908.61</ele>
        <time>2021-08-17T10:09:31Z</time>
      </trkpt>
      <trkpt lat="44.68055" lon="6.95929">
        <ele>2909.09</ele>
        <time>2021-08-17T10:09:38Z</time>
      </trkpt>
      <trkpt lat="44.68052" lon="6.95933">
        <ele>2909.09</ele>
        <time>2021-08-17T10:09:45Z</time>
      </trkpt>
      <trkpt lat="44.6805" lon="6.95934">
        <ele>2909.09</ele>
        <time>2021-08-17T10:09:51Z</time>
      </trkpt>
      <trkpt lat="44.68049" lon="6.95935">
        <ele>2908.61</ele>
        <time>2021-08-17T10:09:56Z</time>
      </trkpt>
      <trkpt lat="44.68048" lon="6.95936">
        <ele>2909.09</ele>
        <time>2021-08-17T10:10:03Z</time>
      </trkpt>
      <trkpt lat="44.68046" lon="6.95937">
        <ele>2909.57</ele>
        <time>2021-08-17T10:10:09Z</time>
      </trkpt>
      <trkpt lat="44.68045" lon="6.95937">
        <ele>2911.01</ele>
        <time>2021-08-17T10:10:15Z</time>
      </trkpt>
      <trkpt lat="44.68042" lon="6.95938">
        <ele>2911.97</ele>
        <time>2021-08-17T10:10:20Z</time>
      </trkpt>
      <trkpt lat="44.6804" lon="6.95941">
        <ele>2915.82</ele>
        <time>2021-08-17T10:10:26Z</time>
      </trkpt>
      <trkpt lat="44.68039" lon="6.95942">
        <ele>2918.7</ele>
        <time>2021-08-17T10:10:31Z</time>
      </trkpt>
      <trkpt lat="44.68035" lon="6.95944">
        <ele>2920.14</ele>
        <time>2021-08-17T10:10:38Z</time>
      </trkpt>
      <trkpt lat="44.68034" lon="6.95945">
        <ele>2920.62</ele>
        <time>2021-08-17T10:10:43Z</time>
      </trkpt>
      <trkpt lat="44.68033" lon="6.95947">
        <ele>2922.06</ele>
        <time>2021-08-17T10:10:51Z</time>
      </trkpt>
      <trkpt lat="44.68029" lon="6.95952">
        <ele>2924.95</ele>
        <time>2021-08-17T10:10:58Z</time>
      </trkpt>
      <trkpt lat="44.68027" lon="6.95953">
        <ele>2927.35</ele>
        <time>2021-08-17T10:11:04Z</time>
      </trkpt>
      <trkpt lat="44.68024" lon="6.95956">
        <ele>2929.27</ele>
        <time>2021-08-17T10:11:12Z</time>
      </trkpt>
      <trkpt lat="44.68024" lon="6.95957">
        <ele>2929.27</ele>
        <time>2021-08-17T10:11:19Z</time>
      </trkpt>
      <trkpt lat="44.68024" lon="6.95958">
        <ele>2929.27</ele>
        <time>2021-08-17T10:11:26Z</time>
      </trkpt>
      <trkpt lat="44.68023" lon="6.95959">
        <ele>2929.75</ele>
        <time>2021-08-17T10:11:31Z</time>
      </trkpt>
      <trkpt lat="44.68022" lon="6.95962">
        <ele>2929.75</ele>
        <time>2021-08-17T10:11:38Z</time>
      </trkpt>
      <trkpt lat="44.68018" lon="6.95967">
        <ele>2931.2</ele>
        <time>2021-08-17T10:11:44Z</time>
      </trkpt>
      <trkpt lat="44.68015" lon="6.95968">
        <ele>2931.2</ele>
        <time>2021-08-17T10:11:47Z</time>
      </trkpt>
      <trkpt lat="44.68011" lon="6.9597">
        <ele>2932.16</ele>
        <time>2021-08-17T10:11:53Z</time>
      </trkpt>
      <trkpt lat="44.68011" lon="6.95973">
        <ele>2932.16</ele>
        <time>2021-08-17T10:12:00Z</time>
      </trkpt>
      <trkpt lat="44.68012" lon="6.95973">
        <ele>2931.2</ele>
        <time>2021-08-17T10:12:05Z</time>
      </trkpt>
      <trkpt lat="44.68012" lon="6.95974">
        <ele>2930.72</ele>
        <time>2021-08-17T10:12:12Z</time>
      </trkpt>
      <trkpt lat="44.68013" lon="6.95975">
        <ele>2929.75</ele>
        <time>2021-08-17T10:12:23Z</time>
      </trkpt>
      <trkpt lat="44.68013" lon="6.95976">
        <ele>2929.75</ele>
        <time>2021-08-17T10:12:30Z</time>
      </trkpt>
      <trkpt lat="44.68012" lon="6.95977">
        <ele>2929.27</ele>
        <time>2021-08-17T10:12:40Z</time>
      </trkpt>
      <trkpt lat="44.68012" lon="6.95978">
        <ele>2928.79</ele>
        <time>2021-08-17T10:12:50Z</time>
      </trkpt>
      <trkpt lat="44.68012" lon="6.95978">
        <ele>2929.27</ele>
        <time>2021-08-17T10:12:55Z</time>
      </trkpt>
      <trkpt lat="44.68012" lon="6.95988">
        <ele>2930.72</ele>
        <time>2021-08-17T10:13:04Z</time>
      </trkpt>
      <trkpt lat="44.68009" lon="6.9599">
        <ele>2931.2</ele>
        <time>2021-08-17T10:13:11Z</time>
      </trkpt>
      <trkpt lat="44.68007" lon="6.95992">
        <ele>2931.2</ele>
        <time>2021-08-17T10:13:16Z</time>
      </trkpt>
      <trkpt lat="44.68004" lon="6.95994">
        <ele>2931.2</ele>
        <time>2021-08-17T10:13:22Z</time>
      </trkpt>
      <trkpt lat="44.68003" lon="6.95996">
        <ele>2931.68</ele>
        <time>2021-08-17T10:13:24Z</time>
      </trkpt>
      <trkpt lat="44.68002" lon="6.96001">
        <ele>2933.12</ele>
        <time>2021-08-17T10:13:30Z</time>
      </trkpt>
      <trkpt lat="44.67999" lon="6.96007">
        <ele>2934.08</ele>
        <time>2021-08-17T10:13:37Z</time>
      </trkpt>
      <trkpt lat="44.67998" lon="6.96009">
        <ele>2934.08</ele>
        <time>2021-08-17T10:13:40Z</time>
      </trkpt>
      <trkpt lat="44.67996" lon="6.96019">
        <ele>2933.6</ele>
        <time>2021-08-17T10:13:48Z</time>
      </trkpt>
      <trkpt lat="44.67993" lon="6.96023">
        <ele>2935.04</ele>
        <time>2021-08-17T10:13:56Z</time>
      </trkpt>
      <trkpt lat="44.6799" lon="6.96026">
        <ele>2936.48</ele>
        <time>2021-08-17T10:14:03Z</time>
      </trkpt>
      <trkpt lat="44.6799" lon="6.96026">
        <ele>2936</ele>
        <time>2021-08-17T10:14:05Z</time>
      </trkpt>
      <trkpt lat="44.67989" lon="6.9603">
        <ele>2936.97</ele>
        <time>2021-08-17T10:14:13Z</time>
      </trkpt>
      <trkpt lat="44.67988" lon="6.96033">
        <ele>2936.97</ele>
        <time>2021-08-17T10:14:20Z</time>
      </trkpt>
      <trkpt lat="44.67984" lon="6.96039">
        <ele>2938.89</ele>
        <time>2021-08-17T10:14:27Z</time>
      </trkpt>
      <trkpt lat="44.67985" lon="6.96041">
        <ele>2938.41</ele>
        <time>2021-08-17T10:14:33Z</time>
      </trkpt>
      <trkpt lat="44.67985" lon="6.96042">
        <ele>2938.89</ele>
        <time>2021-08-17T10:14:40Z</time>
      </trkpt>
      <trkpt lat="44.67985" lon="6.96043">
        <ele>2938.89</ele>
        <time>2021-08-17T10:14:42Z</time>
      </trkpt>
      <trkpt lat="44.67984" lon="6.9605">
        <ele>2939.85</ele>
        <time>2021-08-17T10:14:49Z</time>
      </trkpt>
      <trkpt lat="44.67983" lon="6.96054">
        <ele>2940.81</ele>
        <time>2021-08-17T10:14:56Z</time>
      </trkpt>
      <trkpt lat="44.67982" lon="6.96055">
        <ele>2940.33</ele>
        <time>2021-08-17T10:15:02Z</time>
      </trkpt>
      <trkpt lat="44.67983" lon="6.96058">
        <ele>2940.33</ele>
        <time>2021-08-17T10:15:08Z</time>
      </trkpt>
      <trkpt lat="44.67983" lon="6.9606">
        <ele>2940.33</ele>
        <time>2021-08-17T10:15:15Z</time>
      </trkpt>
      <trkpt lat="44.67985" lon="6.96064">
        <ele>2940.33</ele>
        <time>2021-08-17T10:15:22Z</time>
      </trkpt>
      <trkpt lat="44.67986" lon="6.96069">
        <ele>2941.29</ele>
        <time>2021-08-17T10:15:28Z</time>
      </trkpt>
      <trkpt lat="44.67984" lon="6.96075">
        <ele>2941.29</ele>
        <time>2021-08-17T10:15:36Z</time>
      </trkpt>
      <trkpt lat="44.67983" lon="6.96076">
        <ele>2941.77</ele>
        <time>2021-08-17T10:15:44Z</time>
      </trkpt>
      <trkpt lat="44.67982" lon="6.96078">
        <ele>2942.25</ele>
        <time>2021-08-17T10:15:52Z</time>
      </trkpt>
      <trkpt lat="44.67982" lon="6.9608">
        <ele>2942.73</ele>
        <time>2021-08-17T10:15:58Z</time>
      </trkpt>
      <trkpt lat="44.67979" lon="6.96088">
        <ele>2943.69</ele>
        <time>2021-08-17T10:16:04Z</time>
      </trkpt>
      <trkpt lat="44.67977" lon="6.96089">
        <ele>2944.66</ele>
        <time>2021-08-17T10:16:07Z</time>
      </trkpt>
      <trkpt lat="44.67976" lon="6.96093">
        <ele>2946.1</ele>
        <time>2021-08-17T10:16:12Z</time>
      </trkpt>
      <trkpt lat="44.67973" lon="6.96094">
        <ele>2946.58</ele>
        <time>2021-08-17T10:16:18Z</time>
      </trkpt>
      <trkpt lat="44.67973" lon="6.96095">
        <ele>2947.54</ele>
        <time>2021-08-17T10:16:27Z</time>
      </trkpt>
      <trkpt lat="44.67972" lon="6.96098">
        <ele>2947.54</ele>
        <time>2021-08-17T10:16:35Z</time>
      </trkpt>
      <trkpt lat="44.67969" lon="6.96104">
        <ele>2948.02</ele>
        <time>2021-08-17T10:16:42Z</time>
      </trkpt>
      <trkpt lat="44.67966" lon="6.96108">
        <ele>2949.46</ele>
        <time>2021-08-17T10:16:48Z</time>
      </trkpt>
      <trkpt lat="44.67963" lon="6.96114">
        <ele>2951.38</ele>
        <time>2021-08-17T10:16:55Z</time>
      </trkpt>
      <trkpt lat="44.67963" lon="6.96117">
        <ele>2951.38</ele>
        <time>2021-08-17T10:17:01Z</time>
      </trkpt>
      <trkpt lat="44.67962" lon="6.96118">
        <ele>2950.9</ele>
        <time>2021-08-17T10:17:08Z</time>
      </trkpt>
      <trkpt lat="44.67962" lon="6.96119">
        <ele>2950.9</ele>
        <time>2021-08-17T10:17:09Z</time>
      </trkpt>
      <trkpt lat="44.6796" lon="6.96122">
        <ele>2950.42</ele>
        <time>2021-08-17T10:17:17Z</time>
      </trkpt>
      <trkpt lat="44.6796" lon="6.96124">
        <ele>2950.42</ele>
        <time>2021-08-17T10:17:25Z</time>
      </trkpt>
      <trkpt lat="44.67959" lon="6.96126">
        <ele>2950.42</ele>
        <time>2021-08-17T10:17:32Z</time>
      </trkpt>
      <trkpt lat="44.67956" lon="6.96126">
        <ele>2949.46</ele>
        <time>2021-08-17T10:17:38Z</time>
      </trkpt>
      <trkpt lat="44.67951" lon="6.96125">
        <ele>2950.42</ele>
        <time>2021-08-17T10:17:46Z</time>
      </trkpt>
      <trkpt lat="44.67946" lon="6.96124">
        <ele>2950.9</ele>
        <time>2021-08-17T10:17:53Z</time>
      </trkpt>
      <trkpt lat="44.67945" lon="6.96124">
        <ele>2951.38</ele>
        <time>2021-08-17T10:17:54Z</time>
      </trkpt>
      <trkpt lat="44.67942" lon="6.96124">
        <ele>2951.87</ele>
        <time>2021-08-17T10:17:57Z</time>
      </trkpt>
      <trkpt lat="44.6794" lon="6.96123">
        <ele>2951.87</ele>
        <time>2021-08-17T10:18:05Z</time>
      </trkpt>
      <trkpt lat="44.6794" lon="6.96124">
        <ele>2951.87</ele>
        <time>2021-08-17T10:18:15Z</time>
      </trkpt>
      <trkpt lat="44.67941" lon="6.96124">
        <ele>2951.87</ele>
        <time>2021-08-17T10:18:30Z</time>
      </trkpt>
      <trkpt lat="44.67941" lon="6.96124">
        <ele>2951.87</ele>
        <time>2021-08-17T10:18:43Z</time>
      </trkpt>
      <trkpt lat="44.67941" lon="6.96124">
        <ele>2951.38</ele>
        <time>2021-08-17T10:18:56Z</time>
      </trkpt>
      <trkpt lat="44.67941" lon="6.96124">
        <ele>2951.38</ele>
        <time>2021-08-17T10:19:05Z</time>
      </trkpt>
      <trkpt lat="44.67942" lon="6.96124">
        <ele>2951.38</ele>
        <time>2021-08-17T10:19:07Z</time>
      </trkpt>
      <trkpt lat="44.67946" lon="6.96126">
        <ele>2951.38</ele>
        <time>2021-08-17T10:19:15Z</time>
      </trkpt>
      <trkpt lat="44.67948" lon="6.96129">
        <ele>2950.42</ele>
        <time>2021-08-17T10:19:21Z</time>
      </trkpt>
      <trkpt lat="44.67949" lon="6.9613">
        <ele>2950.9</ele>
        <time>2021-08-17T10:19:28Z</time>
      </trkpt>
      <trkpt lat="44.67951" lon="6.96132">
        <ele>2951.87</ele>
        <time>2021-08-17T10:19:35Z</time>
      </trkpt>
      <trkpt lat="44.67953" lon="6.96134">
        <ele>2952.83</ele>
        <time>2021-08-17T10:19:39Z</time>
      </trkpt>
      <trkpt lat="44.67954" lon="6.96137">
        <ele>2953.31</ele>
        <time>2021-08-17T10:19:45Z</time>
      </trkpt>
      <trkpt lat="44.67952" lon="6.96139">
        <ele>2954.27</ele>
        <time>2021-08-17T10:19:50Z</time>
      </trkpt>
      <trkpt lat="44.67951" lon="6.96142">
        <ele>2955.71</ele>
        <time>2021-08-17T10:19:56Z</time>
      </trkpt>
      <trkpt lat="44.67951" lon="6.96143">
        <ele>2956.19</ele>
        <time>2021-08-17T10:19:57Z</time>
      </trkpt>
      <trkpt lat="44.67948" lon="6.96148">
        <ele>2957.63</ele>
        <time>2021-08-17T10:20:02Z</time>
      </trkpt>
      <trkpt lat="44.67947" lon="6.96149">
        <ele>2958.59</ele>
        <time>2021-08-17T10:20:09Z</time>
      </trkpt>
      <trkpt lat="44.67945" lon="6.96153">
        <ele>2959.08</ele>
        <time>2021-08-17T10:20:15Z</time>
      </trkpt>
      <trkpt lat="44.67943" lon="6.96155">
        <ele>2959.56</ele>
        <time>2021-08-17T10:20:22Z</time>
      </trkpt>
      <trkpt lat="44.67939" lon="6.96161">
        <ele>2960.04</ele>
        <time>2021-08-17T10:20:29Z</time>
      </trkpt>
      <trkpt lat="44.67938" lon="6.96162">
        <ele>2960.52</ele>
        <time>2021-08-17T10:20:30Z</time>
      </trkpt>
      <trkpt lat="44.67939" lon="6.96165">
        <ele>2961.48</ele>
        <time>2021-08-17T10:20:37Z</time>
      </trkpt>
      <trkpt lat="44.67936" lon="6.96168">
        <ele>2961.96</ele>
        <time>2021-08-17T10:20:44Z</time>
      </trkpt>
      <trkpt lat="44.67933" lon="6.96169">
        <ele>2962.44</ele>
        <time>2021-08-17T10:20:50Z</time>
      </trkpt>
      <trkpt lat="44.67932" lon="6.96171">
        <ele>2962.92</ele>
        <time>2021-08-17T10:20:58Z</time>
      </trkpt>
      <trkpt lat="44.67931" lon="6.96173">
        <ele>2963.4</ele>
        <time>2021-08-17T10:21:05Z</time>
      </trkpt>
      <trkpt lat="44.6793" lon="6.96178">
        <ele>2964.36</ele>
        <time>2021-08-17T10:21:11Z</time>
      </trkpt>
      <trkpt lat="44.67928" lon="6.9618">
        <ele>2965.8</ele>
        <time>2021-08-17T10:21:17Z</time>
      </trkpt>
      <trkpt lat="44.67928" lon="6.96185">
        <ele>2967.25</ele>
        <time>2021-08-17T10:21:23Z</time>
      </trkpt>
      <trkpt lat="44.67928" lon="6.96186">
        <ele>2967.25</ele>
        <time>2021-08-17T10:21:25Z</time>
      </trkpt>
      <trkpt lat="44.67926" lon="6.96191">
        <ele>2967.73</ele>
        <time>2021-08-17T10:21:33Z</time>
      </trkpt>
      <trkpt lat="44.67925" lon="6.96193">
        <ele>2967.73</ele>
        <time>2021-08-17T10:21:40Z</time>
      </trkpt>
      <trkpt lat="44.67925" lon="6.96193">
        <ele>2967.73</ele>
        <time>2021-08-17T10:21:43Z</time>
      </trkpt>
      <trkpt lat="44.67923" lon="6.96196">
        <ele>2968.21</ele>
        <time>2021-08-17T10:21:49Z</time>
      </trkpt>
      <trkpt lat="44.67921" lon="6.96196">
        <ele>2968.21</ele>
        <time>2021-08-17T10:21:55Z</time>
      </trkpt>
      <trkpt lat="44.6792" lon="6.96198">
        <ele>2969.17</ele>
        <time>2021-08-17T10:22:00Z</time>
      </trkpt>
      <trkpt lat="44.67922" lon="6.96198">
        <ele>2969.65</ele>
        <time>2021-08-17T10:22:08Z</time>
      </trkpt>
      <trkpt lat="44.67924" lon="6.96201">
        <ele>2970.61</ele>
        <time>2021-08-17T10:22:14Z</time>
      </trkpt>
      <trkpt lat="44.67923" lon="6.96203">
        <ele>2971.09</ele>
        <time>2021-08-17T10:22:19Z</time>
      </trkpt>
      <trkpt lat="44.67925" lon="6.96203">
        <ele>2972.05</ele>
        <time>2021-08-17T10:22:24Z</time>
      </trkpt>
      <trkpt lat="44.67925" lon="6.96206">
        <ele>2972.05</ele>
        <time>2021-08-17T10:22:30Z</time>
      </trkpt>
      <trkpt lat="44.67927" lon="6.96208">
        <ele>2973.5</ele>
        <time>2021-08-17T10:22:35Z</time>
      </trkpt>
      <trkpt lat="44.67924" lon="6.96209">
        <ele>2973.01</ele>
        <time>2021-08-17T10:22:40Z</time>
      </trkpt>
      <trkpt lat="44.67924" lon="6.96213">
        <ele>2973.98</ele>
        <time>2021-08-17T10:22:47Z</time>
      </trkpt>
      <trkpt lat="44.67922" lon="6.96216">
        <ele>2975.42</ele>
        <time>2021-08-17T10:22:53Z</time>
      </trkpt>
      <trkpt lat="44.67921" lon="6.96218">
        <ele>2975.9</ele>
        <time>2021-08-17T10:23:00Z</time>
      </trkpt>
      <trkpt lat="44.67921" lon="6.96219">
        <ele>2975.9</ele>
        <time>2021-08-17T10:23:07Z</time>
      </trkpt>
      <trkpt lat="44.67919" lon="6.96221">
        <ele>2977.34</ele>
        <time>2021-08-17T10:23:12Z</time>
      </trkpt>
      <trkpt lat="44.67916" lon="6.96223">
        <ele>2978.78</ele>
        <time>2021-08-17T10:23:17Z</time>
      </trkpt>
      <trkpt lat="44.67913" lon="6.96225">
        <ele>2980.22</ele>
        <time>2021-08-17T10:23:26Z</time>
      </trkpt>
      <trkpt lat="44.6791" lon="6.96224">
        <ele>2980.71</ele>
        <time>2021-08-17T10:23:32Z</time>
      </trkpt>
      <trkpt lat="44.67908" lon="6.96225">
        <ele>2980.22</ele>
        <time>2021-08-17T10:23:38Z</time>
      </trkpt>
      <trkpt lat="44.67907" lon="6.96225">
        <ele>2980.22</ele>
        <time>2021-08-17T10:23:45Z</time>
      </trkpt>
      <trkpt lat="44.67906" lon="6.96226">
        <ele>2979.74</ele>
        <time>2021-08-17T10:23:52Z</time>
      </trkpt>
      <trkpt lat="44.67905" lon="6.96228">
        <ele>2979.74</ele>
        <time>2021-08-17T10:23:58Z</time>
      </trkpt>
      <trkpt lat="44.67903" lon="6.96231">
        <ele>2981.19</ele>
        <time>2021-08-17T10:24:05Z</time>
      </trkpt>
      <trkpt lat="44.67901" lon="6.96233">
        <ele>2981.19</ele>
        <time>2021-08-17T10:24:10Z</time>
      </trkpt>
      <trkpt lat="44.67897" lon="6.96236">
        <ele>2983.11</ele>
        <time>2021-08-17T10:24:15Z</time>
      </trkpt>
      <trkpt lat="44.67894" lon="6.96237">
        <ele>2984.07</ele>
        <time>2021-08-17T10:24:21Z</time>
      </trkpt>
      <trkpt lat="44.67892" lon="6.9624">
        <ele>2985.99</ele>
        <time>2021-08-17T10:24:27Z</time>
      </trkpt>
      <trkpt lat="44.6789" lon="6.96241">
        <ele>2985.99</ele>
        <time>2021-08-17T10:24:34Z</time>
      </trkpt>
      <trkpt lat="44.67888" lon="6.96243">
        <ele>2986.47</ele>
        <time>2021-08-17T10:24:40Z</time>
      </trkpt>
      <trkpt lat="44.67886" lon="6.96244">
        <ele>2986.47</ele>
        <time>2021-08-17T10:24:48Z</time>
      </trkpt>
      <trkpt lat="44.67885" lon="6.96247">
        <ele>2986.47</ele>
        <time>2021-08-17T10:24:56Z</time>
      </trkpt>
      <trkpt lat="44.67882" lon="6.9625">
        <ele>2988.4</ele>
        <time>2021-08-17T10:25:05Z</time>
      </trkpt>
      <trkpt lat="44.67878" lon="6.96251">
        <ele>2989.84</ele>
        <time>2021-08-17T10:25:12Z</time>
      </trkpt>
      <trkpt lat="44.67877" lon="6.96252">
        <ele>2989.36</ele>
        <time>2021-08-17T10:25:17Z</time>
      </trkpt>
      <trkpt lat="44.67875" lon="6.96252">
        <ele>2989.36</ele>
        <time>2021-08-17T10:25:24Z</time>
      </trkpt>
      <trkpt lat="44.67873" lon="6.96253">
        <ele>2989.36</ele>
        <time>2021-08-17T10:25:31Z</time>
      </trkpt>
      <trkpt lat="44.67871" lon="6.96253">
        <ele>2990.32</ele>
        <time>2021-08-17T10:25:39Z</time>
      </trkpt>
      <trkpt lat="44.67869" lon="6.96254">
        <ele>2990.32</ele>
        <time>2021-08-17T10:25:47Z</time>
      </trkpt>
      <trkpt lat="44.67868" lon="6.96254">
        <ele>2990.8</ele>
        <time>2021-08-17T10:25:59Z</time>
      </trkpt>
      <trkpt lat="44.67868" lon="6.96255">
        <ele>2991.28</ele>
        <time>2021-08-17T10:26:10Z</time>
      </trkpt>
      <trkpt lat="44.67868" lon="6.96255">
        <ele>2991.28</ele>
        <time>2021-08-17T10:26:21Z</time>
      </trkpt>
      <trkpt lat="44.67868" lon="6.96255">
        <ele>2991.28</ele>
        <time>2021-08-17T10:26:30Z</time>
      </trkpt>
      <trkpt lat="44.67868" lon="6.96256">
        <ele>2990.8</ele>
        <time>2021-08-17T10:26:44Z</time>
      </trkpt>
      <trkpt lat="44.67867" lon="6.96256">
        <ele>2991.28</ele>
        <time>2021-08-17T10:26:55Z</time>
      </trkpt>
      <trkpt lat="44.67862" lon="6.96259">
        <ele>2994.16</ele>
        <time>2021-08-17T10:27:03Z</time>
      </trkpt>
      <trkpt lat="44.67861" lon="6.96259">
        <ele>2995.12</ele>
        <time>2021-08-17T10:27:08Z</time>
      </trkpt>
      <trkpt lat="44.67861" lon="6.96259">
        <ele>2995.12</ele>
        <time>2021-08-17T10:27:10Z</time>
      </trkpt>
      <trkpt lat="44.67857" lon="6.96261">
        <ele>2997.05</ele>
        <time>2021-08-17T10:27:16Z</time>
      </trkpt>
      <trkpt lat="44.67854" lon="6.96259">
        <ele>2997.53</ele>
        <time>2021-08-17T10:27:22Z</time>
      </trkpt>
      <trkpt lat="44.67852" lon="6.96258">
        <ele>2996.57</ele>
        <time>2021-08-17T10:27:28Z</time>
      </trkpt>
      <trkpt lat="44.67848" lon="6.96257">
        <ele>2996.57</ele>
        <time>2021-08-17T10:27:36Z</time>
      </trkpt>
      <trkpt lat="44.67845" lon="6.96258">
        <ele>2997.53</ele>
        <time>2021-08-17T10:27:43Z</time>
      </trkpt>
      <trkpt lat="44.67842" lon="6.96261">
        <ele>2998.97</ele>
        <time>2021-08-17T10:27:49Z</time>
      </trkpt>
      <trkpt lat="44.67838" lon="6.9626">
        <ele>2998.97</ele>
        <time>2021-08-17T10:27:56Z</time>
      </trkpt>
      <trkpt lat="44.67835" lon="6.96257">
        <ele>2999.93</ele>
        <time>2021-08-17T10:28:03Z</time>
      </trkpt>
      <trkpt lat="44.67833" lon="6.96259">
        <ele>2999.45</ele>
        <time>2021-08-17T10:28:09Z</time>
      </trkpt>
      <trkpt lat="44.67833" lon="6.96263">
        <ele>2999.93</ele>
        <time>2021-08-17T10:28:16Z</time>
      </trkpt>
      <trkpt lat="44.67832" lon="6.96264">
        <ele>3000.89</ele>
        <time>2021-08-17T10:28:24Z</time>
      </trkpt>
      <trkpt lat="44.67831" lon="6.96265">
        <ele>3000.89</ele>
        <time>2021-08-17T10:28:30Z</time>
      </trkpt>
      <trkpt lat="44.67832" lon="6.96267">
        <ele>3000.89</ele>
        <time>2021-08-17T10:28:36Z</time>
      </trkpt>
      <trkpt lat="44.67835" lon="6.96273">
        <ele>3000.41</ele>
        <time>2021-08-17T10:28:43Z</time>
      </trkpt>
      <trkpt lat="44.67836" lon="6.96276">
        <ele>3000.41</ele>
        <time>2021-08-17T10:28:50Z</time>
      </trkpt>
      <trkpt lat="44.67837" lon="6.96279">
        <ele>3000.41</ele>
        <time>2021-08-17T10:28:55Z</time>
      </trkpt>
      <trkpt lat="44.67837" lon="6.96283">
        <ele>3001.37</ele>
        <time>2021-08-17T10:29:02Z</time>
      </trkpt>
      <trkpt lat="44.67837" lon="6.96285">
        <ele>3003.3</ele>
        <time>2021-08-17T10:29:09Z</time>
      </trkpt>
      <trkpt lat="44.67838" lon="6.9629">
        <ele>3005.22</ele>
        <time>2021-08-17T10:29:15Z</time>
      </trkpt>
      <trkpt lat="44.67837" lon="6.96294">
        <ele>3005.7</ele>
        <time>2021-08-17T10:29:21Z</time>
      </trkpt>
      <trkpt lat="44.67839" lon="6.96294">
        <ele>3006.66</ele>
        <time>2021-08-17T10:29:23Z</time>
      </trkpt>
      <trkpt lat="44.6784" lon="6.96295">
        <ele>3009.06</ele>
        <time>2021-08-17T10:29:31Z</time>
      </trkpt>
      <trkpt lat="44.67839" lon="6.96296">
        <ele>3010.51</ele>
        <time>2021-08-17T10:29:36Z</time>
      </trkpt>
      <trkpt lat="44.67838" lon="6.96298">
        <ele>3010.51</ele>
        <time>2021-08-17T10:29:42Z</time>
      </trkpt>
      <trkpt lat="44.67837" lon="6.96302">
        <ele>3010.99</ele>
        <time>2021-08-17T10:29:48Z</time>
      </trkpt>
      <trkpt lat="44.67836" lon="6.96305">
        <ele>3011.47</ele>
        <time>2021-08-17T10:29:55Z</time>
      </trkpt>
      <trkpt lat="44.67835" lon="6.96307">
        <ele>3011.47</ele>
        <time>2021-08-17T10:30:02Z</time>
      </trkpt>
      <trkpt lat="44.67834" lon="6.9631">
        <ele>3010.99</ele>
        <time>2021-08-17T10:30:05Z</time>
      </trkpt>
      <trkpt lat="44.6783" lon="6.96311">
        <ele>3011.47</ele>
        <time>2021-08-17T10:30:13Z</time>
      </trkpt>
      <trkpt lat="44.67829" lon="6.96311">
        <ele>3011.47</ele>
        <time>2021-08-17T10:30:19Z</time>
      </trkpt>
      <trkpt lat="44.67826" lon="6.96308">
        <ele>3013.39</ele>
        <time>2021-08-17T10:30:26Z</time>
      </trkpt>
      <trkpt lat="44.67824" lon="6.96307">
        <ele>3014.35</ele>
        <time>2021-08-17T10:30:31Z</time>
      </trkpt>
      <trkpt lat="44.67822" lon="6.96309">
        <ele>3015.31</ele>
        <time>2021-08-17T10:30:37Z</time>
      </trkpt>
      <trkpt lat="44.67822" lon="6.9631">
        <ele>3015.31</ele>
        <time>2021-08-17T10:30:43Z</time>
      </trkpt>
      <trkpt lat="44.67822" lon="6.96313">
        <ele>3015.79</ele>
        <time>2021-08-17T10:30:48Z</time>
      </trkpt>
      <trkpt lat="44.67823" lon="6.96318">
        <ele>3015.79</ele>
        <time>2021-08-17T10:30:56Z</time>
      </trkpt>
      <trkpt lat="44.67824" lon="6.9632">
        <ele>3016.27</ele>
        <time>2021-08-17T10:31:03Z</time>
      </trkpt>
      <trkpt lat="44.67823" lon="6.96322">
        <ele>3017.72</ele>
        <time>2021-08-17T10:31:10Z</time>
      </trkpt>
      <trkpt lat="44.67823" lon="6.96324">
        <ele>3018.68</ele>
        <time>2021-08-17T10:31:12Z</time>
      </trkpt>
      <trkpt lat="44.67823" lon="6.96328">
        <ele>3021.56</ele>
        <time>2021-08-17T10:31:18Z</time>
      </trkpt>
      <trkpt lat="44.67824" lon="6.96333">
        <ele>3023.96</ele>
        <time>2021-08-17T10:31:24Z</time>
      </trkpt>
      <trkpt lat="44.67825" lon="6.96338">
        <ele>3026.85</ele>
        <time>2021-08-17T10:31:31Z</time>
      </trkpt>
      <trkpt lat="44.67828" lon="6.96341">
        <ele>3027.33</ele>
        <time>2021-08-17T10:31:35Z</time>
      </trkpt>
      <trkpt lat="44.67828" lon="6.96343">
        <ele>3028.77</ele>
        <time>2021-08-17T10:31:40Z</time>
      </trkpt>
      <trkpt lat="44.67828" lon="6.96344">
        <ele>3029.73</ele>
        <time>2021-08-17T10:31:46Z</time>
      </trkpt>
      <trkpt lat="44.67828" lon="6.96346">
        <ele>3030.21</ele>
        <time>2021-08-17T10:31:52Z</time>
      </trkpt>
      <trkpt lat="44.67829" lon="6.96351">
        <ele>3029.73</ele>
        <time>2021-08-17T10:31:58Z</time>
      </trkpt>
      <trkpt lat="44.6783" lon="6.96353">
        <ele>3030.69</ele>
        <time>2021-08-17T10:32:03Z</time>
      </trkpt>
      <trkpt lat="44.67832" lon="6.96357">
        <ele>3030.21</ele>
        <time>2021-08-17T10:32:09Z</time>
      </trkpt>
      <trkpt lat="44.67831" lon="6.96357">
        <ele>3030.21</ele>
        <time>2021-08-17T10:32:23Z</time>
      </trkpt>
      <trkpt lat="44.67831" lon="6.96358">
        <ele>3030.21</ele>
        <time>2021-08-17T10:32:34Z</time>
      </trkpt>
      <trkpt lat="44.67831" lon="6.96357">
        <ele>3029.73</ele>
        <time>2021-08-17T10:32:37Z</time>
      </trkpt>
      <trkpt lat="44.67826" lon="6.96358">
        <ele>3028.29</ele>
        <time>2021-08-17T10:32:44Z</time>
      </trkpt>
      <trkpt lat="44.67828" lon="6.96359">
        <ele>3027.81</ele>
        <time>2021-08-17T10:32:53Z</time>
      </trkpt>
      <trkpt lat="44.67829" lon="6.96359">
        <ele>3027.81</ele>
        <time>2021-08-17T10:33:04Z</time>
      </trkpt>
      <trkpt lat="44.6783" lon="6.96359">
        <ele>3026.85</ele>
        <time>2021-08-17T10:33:13Z</time>
      </trkpt>
      <trkpt lat="44.6783" lon="6.96358">
        <ele>3026.85</ele>
        <time>2021-08-17T10:33:20Z</time>
      </trkpt>
      <trkpt lat="44.6783" lon="6.96357">
        <ele>3026.37</ele>
        <time>2021-08-17T10:33:26Z</time>
      </trkpt>
      <trkpt lat="44.67829" lon="6.96353">
        <ele>3025.89</ele>
        <time>2021-08-17T10:33:34Z</time>
      </trkpt>
      <trkpt lat="44.67829" lon="6.96352">
        <ele>3025.89</ele>
        <time>2021-08-17T10:33:40Z</time>
      </trkpt>
      <trkpt lat="44.67827" lon="6.96347">
        <ele>3024.93</ele>
        <time>2021-08-17T10:33:47Z</time>
      </trkpt>
      <trkpt lat="44.67826" lon="6.96338">
        <ele>3023.96</ele>
        <time>2021-08-17T10:33:55Z</time>
      </trkpt>
      <trkpt lat="44.67824" lon="6.96331">
        <ele>3022.04</ele>
        <time>2021-08-17T10:34:02Z</time>
      </trkpt>
      <trkpt lat="44.67824" lon="6.96331">
        <ele>3022.04</ele>
        <time>2021-08-17T10:34:10Z</time>
      </trkpt>
      <trkpt lat="44.67823" lon="6.96326">
        <ele>3021.56</ele>
        <time>2021-08-17T10:34:18Z</time>
      </trkpt>
      <trkpt lat="44.67823" lon="6.96325">
        <ele>3021.56</ele>
        <time>2021-08-17T10:34:24Z</time>
      </trkpt>
      <trkpt lat="44.67821" lon="6.96318">
        <ele>3020.12</ele>
        <time>2021-08-17T10:34:32Z</time>
      </trkpt>
      <trkpt lat="44.67819" lon="6.96313">
        <ele>3018.2</ele>
        <time>2021-08-17T10:34:40Z</time>
      </trkpt>
      <trkpt lat="44.67817" lon="6.96315">
        <ele>3017.72</ele>
        <time>2021-08-17T10:34:44Z</time>
      </trkpt>
      <trkpt lat="44.67812" lon="6.96317">
        <ele>3019.16</ele>
        <time>2021-08-17T10:34:51Z</time>
      </trkpt>
      <trkpt lat="44.67807" lon="6.96319">
        <ele>3019.64</ele>
        <time>2021-08-17T10:34:58Z</time>
      </trkpt>
      <trkpt lat="44.67807" lon="6.9632">
        <ele>3019.16</ele>
        <time>2021-08-17T10:35:01Z</time>
      </trkpt>
      <trkpt lat="44.67804" lon="6.96325">
        <ele>3018.2</ele>
        <time>2021-08-17T10:35:09Z</time>
      </trkpt>
      <trkpt lat="44.67803" lon="6.96324">
        <ele>3017.23</ele>
        <time>2021-08-17T10:35:17Z</time>
      </trkpt>
      <trkpt lat="44.67804" lon="6.96325">
        <ele>3014.83</ele>
        <time>2021-08-17T10:35:23Z</time>
      </trkpt>
      <trkpt lat="44.67803" lon="6.96324">
        <ele>3013.87</ele>
        <time>2021-08-17T10:35:30Z</time>
      </trkpt>
      <trkpt lat="44.67803" lon="6.96324">
        <ele>3013.39</ele>
        <time>2021-08-17T10:35:39Z</time>
      </trkpt>
      <trkpt lat="44.67804" lon="6.96324">
        <ele>3012.43</ele>
        <time>2021-08-17T10:35:56Z</time>
      </trkpt>
      <trkpt lat="44.67805" lon="6.96325">
        <ele>3012.91</ele>
        <time>2021-08-17T10:36:17Z</time>
      </trkpt>
      <trkpt lat="44.67805" lon="6.96325">
        <ele>3013.39</ele>
        <time>2021-08-17T10:36:37Z</time>
      </trkpt>
      <trkpt lat="44.67805" lon="6.96325">
        <ele>3013.39</ele>
        <time>2021-08-17T10:36:55Z</time>
      </trkpt>
      <trkpt lat="44.67805" lon="6.96325">
        <ele>3013.39</ele>
        <time>2021-08-17T10:37:18Z</time>
      </trkpt>
      <trkpt lat="44.67805" lon="6.96325">
        <ele>3013.39</ele>
        <time>2021-08-17T10:37:36Z</time>
      </trkpt>
      <trkpt lat="44.67805" lon="6.96325">
        <ele>3013.39</ele>
        <time>2021-08-17T10:37:56Z</time>
      </trkpt>
      <trkpt lat="44.67805" lon="6.96325">
        <ele>3013.39</ele>
        <time>2021-08-17T10:38:04Z</time>
      </trkpt>
      <trkpt lat="44.67805" lon="6.96324">
        <ele>3013.39</ele>
        <time>2021-08-17T10:38:11Z</time>
      </trkpt>
      <trkpt lat="44.67805" lon="6.96324">
        <ele>3012.91</ele>
        <time>2021-08-17T10:38:20Z</time>
      </trkpt>
      <trkpt lat="44.67804" lon="6.96324">
        <ele>3012.91</ele>
        <time>2021-08-17T10:38:40Z</time>
      </trkpt>
      <trkpt lat="44.67804" lon="6.96324">
        <ele>3012.43</ele>
        <time>2021-08-17T10:39:02Z</time>
      </trkpt>
      <trkpt lat="44.67804" lon="6.96324">
        <ele>3012.43</ele>
        <time>2021-08-17T10:39:21Z</time>
      </trkpt>
      <trkpt lat="44.67804" lon="6.96324">
        <ele>3011.95</ele>
        <time>2021-08-17T10:39:41Z</time>
      </trkpt>
      <trkpt lat="44.67804" lon="6.96324">
        <ele>3011.95</ele>
        <time>2021-08-17T10:39:58Z</time>
      </trkpt>
      <trkpt lat="44.67804" lon="6.96324">
        <ele>3011.95</ele>
        <time>2021-08-17T10:40:18Z</time>
      </trkpt>
      <trkpt lat="44.67804" lon="6.96324">
        <ele>3011.95</ele>
        <time>2021-08-17T10:40:38Z</time>
      </trkpt>
      <trkpt lat="44.67803" lon="6.96324">
        <ele>3011.95</ele>
        <time>2021-08-17T10:40:58Z</time>
      </trkpt>
      <trkpt lat="44.67803" lon="6.96324">
        <ele>3011.47</ele>
        <time>2021-08-17T10:41:18Z</time>
      </trkpt>
      <trkpt lat="44.67803" lon="6.96324">
        <ele>3011.47</ele>
        <time>2021-08-17T10:41:37Z</time>
      </trkpt>
      <trkpt lat="44.67803" lon="6.96324">
        <ele>3011.47</ele>
        <time>2021-08-17T10:41:56Z</time>
      </trkpt>
      <trkpt lat="44.67803" lon="6.96324">
        <ele>3011.47</ele>
        <time>2021-08-17T10:42:16Z</time>
      </trkpt>
      <trkpt lat="44.67803" lon="6.96324">
        <ele>3011.47</ele>
        <time>2021-08-17T10:42:36Z</time>
      </trkpt>
      <trkpt lat="44.67803" lon="6.96324">
        <ele>3011.47</ele>
        <time>2021-08-17T10:42:55Z</time>
      </trkpt>
      <trkpt lat="44.67803" lon="6.96324">
        <ele>3011.47</ele>
        <time>2021-08-17T10:43:11Z</time>
      </trkpt>
      <trkpt lat="44.67803" lon="6.96324">
        <ele>3011.47</ele>
        <time>2021-08-17T10:43:30Z</time>
      </trkpt>
      <trkpt lat="44.67803" lon="6.96324">
        <ele>3011.47</ele>
        <time>2021-08-17T10:43:50Z</time>
      </trkpt>
      <trkpt lat="44.67803" lon="6.96324">
        <ele>3011.47</ele>
        <time>2021-08-17T10:44:09Z</time>
      </trkpt>
      <trkpt lat="44.67803" lon="6.96324">
        <ele>3010.99</ele>
        <time>2021-08-17T10:44:28Z</time>
      </trkpt>
      <trkpt lat="44.67803" lon="6.96324">
        <ele>3010.99</ele>
        <time>2021-08-17T10:44:46Z</time>
      </trkpt>
      <trkpt lat="44.67803" lon="6.96325">
        <ele>3011.47</ele>
        <time>2021-08-17T10:45:01Z</time>
      </trkpt>
      <trkpt lat="44.67803" lon="6.96325">
        <ele>3011.47</ele>
        <time>2021-08-17T10:45:09Z</time>
      </trkpt>
      <trkpt lat="44.67803" lon="6.96326">
        <ele>3010.99</ele>
        <time>2021-08-17T10:45:28Z</time>
      </trkpt>
      <trkpt lat="44.67803" lon="6.96326">
        <ele>3010.99</ele>
        <time>2021-08-17T10:45:46Z</time>
      </trkpt>
      <trkpt lat="44.67803" lon="6.96326">
        <ele>3011.47</ele>
        <time>2021-08-17T10:46:05Z</time>
      </trkpt>
      <trkpt lat="44.67803" lon="6.96326">
        <ele>3011.47</ele>
        <time>2021-08-17T10:46:26Z</time>
      </trkpt>
      <trkpt lat="44.67802" lon="6.96326">
        <ele>3011.95</ele>
        <time>2021-08-17T10:46:47Z</time>
      </trkpt>
      <trkpt lat="44.67802" lon="6.96325">
        <ele>3012.43</ele>
        <time>2021-08-17T10:46:58Z</time>
      </trkpt>
      <trkpt lat="44.67802" lon="6.96325">
        <ele>3012.91</ele>
        <time>2021-08-17T10:47:15Z</time>
      </trkpt>
      <trkpt lat="44.67803" lon="6.96325">
        <ele>3012.91</ele>
        <time>2021-08-17T10:47:29Z</time>
      </trkpt>
      <trkpt lat="44.67803" lon="6.96325">
        <ele>3012.91</ele>
        <time>2021-08-17T10:47:39Z</time>
      </trkpt>
      <trkpt lat="44.67802" lon="6.96326">
        <ele>3012.91</ele>
        <time>2021-08-17T10:47:51Z</time>
      </trkpt>
      <trkpt lat="44.67802" lon="6.96326">
        <ele>3012.91</ele>
        <time>2021-08-17T10:48:03Z</time>
      </trkpt>
      <trkpt lat="44.67803" lon="6.96326">
        <ele>3013.39</ele>
        <time>2021-08-17T10:48:19Z</time>
      </trkpt>
      <trkpt lat="44.67803" lon="6.96326">
        <ele>3013.87</ele>
        <time>2021-08-17T10:48:36Z</time>
      </trkpt>
      <trkpt lat="44.67803" lon="6.96325">
        <ele>3013.87</ele>
        <time>2021-08-17T10:48:52Z</time>
      </trkpt>
      <trkpt lat="44.67803" lon="6.96325">
        <ele>3013.87</ele>
        <time>2021-08-17T10:49:10Z</time>
      </trkpt>
      <trkpt lat="44.67803" lon="6.96325">
        <ele>3013.87</ele>
        <time>2021-08-17T10:49:34Z</time>
      </trkpt>
      <trkpt lat="44.67803" lon="6.96325">
        <ele>3014.35</ele>
        <time>2021-08-17T10:49:53Z</time>
      </trkpt>
      <trkpt lat="44.67804" lon="6.96325">
        <ele>3014.35</ele>
        <time>2021-08-17T10:50:15Z</time>
      </trkpt>
      <trkpt lat="44.67804" lon="6.96325">
        <ele>3014.35</ele>
        <time>2021-08-17T10:50:31Z</time>
      </trkpt>
      <trkpt lat="44.67804" lon="6.96325">
        <ele>3014.35</ele>
        <time>2021-08-17T10:50:53Z</time>
      </trkpt>
      <trkpt lat="44.67804" lon="6.96325">
        <ele>3014.83</ele>
        <time>2021-08-17T10:51:11Z</time>
      </trkpt>
      <trkpt lat="44.67804" lon="6.96325">
        <ele>3014.83</ele>
        <time>2021-08-17T10:51:27Z</time>
      </trkpt>
      <trkpt lat="44.67804" lon="6.96325">
        <ele>3014.83</ele>
        <time>2021-08-17T10:51:48Z</time>
      </trkpt>
      <trkpt lat="44.67804" lon="6.96325">
        <ele>3014.83</ele>
        <time>2021-08-17T10:52:08Z</time>
      </trkpt>
      <trkpt lat="44.67804" lon="6.96325">
        <ele>3014.83</ele>
        <time>2021-08-17T10:52:25Z</time>
      </trkpt>
      <trkpt lat="44.67804" lon="6.96325">
        <ele>3014.83</ele>
        <time>2021-08-17T10:52:44Z</time>
      </trkpt>
      <trkpt lat="44.67804" lon="6.96325">
        <ele>3014.83</ele>
        <time>2021-08-17T10:53:00Z</time>
      </trkpt>
      <trkpt lat="44.67804" lon="6.96325">
        <ele>3014.83</ele>
        <time>2021-08-17T10:53:14Z</time>
      </trkpt>
      <trkpt lat="44.67804" lon="6.96325">
        <ele>3014.83</ele>
        <time>2021-08-17T10:53:30Z</time>
      </trkpt>
      <trkpt lat="44.67804" lon="6.96325">
        <ele>3014.83</ele>
        <time>2021-08-17T10:53:47Z</time>
      </trkpt>
      <trkpt lat="44.67804" lon="6.96325">
        <ele>3014.83</ele>
        <time>2021-08-17T10:54:05Z</time>
      </trkpt>
      <trkpt lat="44.67804" lon="6.96325">
        <ele>3014.83</ele>
        <time>2021-08-17T10:54:22Z</time>
      </trkpt>
      <trkpt lat="44.67804" lon="6.96325">
        <ele>3014.83</ele>
        <time>2021-08-17T10:54:39Z</time>
      </trkpt>
      <trkpt lat="44.67804" lon="6.96325">
        <ele>3015.31</ele>
        <time>2021-08-17T10:54:53Z</time>
      </trkpt>
      <trkpt lat="44.67804" lon="6.96325">
        <ele>3014.83</ele>
        <time>2021-08-17T10:55:08Z</time>
      </trkpt>
      <trkpt lat="44.67804" lon="6.96325">
        <ele>3014.83</ele>
        <time>2021-08-17T10:55:28Z</time>
      </trkpt>
      <trkpt lat="44.67804" lon="6.96325">
        <ele>3014.83</ele>
        <time>2021-08-17T10:55:44Z</time>
      </trkpt>
      <trkpt lat="44.67804" lon="6.96326">
        <ele>3015.31</ele>
        <time>2021-08-17T10:55:59Z</time>
      </trkpt>
      <trkpt lat="44.67804" lon="6.96326">
        <ele>3014.83</ele>
        <time>2021-08-17T10:56:14Z</time>
      </trkpt>
      <trkpt lat="44.67804" lon="6.96326">
        <ele>3015.31</ele>
        <time>2021-08-17T10:56:28Z</time>
      </trkpt>
      <trkpt lat="44.67805" lon="6.96326">
        <ele>3015.31</ele>
        <time>2021-08-17T10:56:41Z</time>
      </trkpt>
      <trkpt lat="44.67805" lon="6.96326">
        <ele>3014.83</ele>
        <time>2021-08-17T10:56:52Z</time>
      </trkpt>
      <trkpt lat="44.67805" lon="6.96326">
        <ele>3014.83</ele>
        <time>2021-08-17T10:57:08Z</time>
      </trkpt>
      <trkpt lat="44.67805" lon="6.96326">
        <ele>3014.83</ele>
        <time>2021-08-17T10:57:24Z</time>
      </trkpt>
      <trkpt lat="44.67805" lon="6.96326">
        <ele>3014.83</ele>
        <time>2021-08-17T10:57:41Z</time>
      </trkpt>
      <trkpt lat="44.67805" lon="6.96326">
        <ele>3015.31</ele>
        <time>2021-08-17T10:58:00Z</time>
      </trkpt>
      <trkpt lat="44.67805" lon="6.96326">
        <ele>3015.31</ele>
        <time>2021-08-17T10:58:22Z</time>
      </trkpt>
      <trkpt lat="44.67805" lon="6.96326">
        <ele>3015.31</ele>
        <time>2021-08-17T10:58:40Z</time>
      </trkpt>
      <trkpt lat="44.67805" lon="6.96326">
        <ele>3015.31</ele>
        <time>2021-08-17T10:59:02Z</time>
      </trkpt>
      <trkpt lat="44.67804" lon="6.96326">
        <ele>3015.31</ele>
        <time>2021-08-17T10:59:21Z</time>
      </trkpt>
      <trkpt lat="44.67804" lon="6.96326">
        <ele>3015.31</ele>
        <time>2021-08-17T10:59:42Z</time>
      </trkpt>
      <trkpt lat="44.67804" lon="6.96326">
        <ele>3015.31</ele>
        <time>2021-08-17T11:00:05Z</time>
      </trkpt>
      <trkpt lat="44.67804" lon="6.96326">
        <ele>3014.83</ele>
        <time>2021-08-17T11:00:25Z</time>
      </trkpt>
      <trkpt lat="44.67804" lon="6.96326">
        <ele>3014.83</ele>
        <time>2021-08-17T11:00:44Z</time>
      </trkpt>
      <trkpt lat="44.67804" lon="6.96326">
        <ele>3014.83</ele>
        <time>2021-08-17T11:01:06Z</time>
      </trkpt>
      <trkpt lat="44.67804" lon="6.96326">
        <ele>3014.83</ele>
        <time>2021-08-17T11:01:18Z</time>
      </trkpt>
      <trkpt lat="44.67804" lon="6.96326">
        <ele>3014.83</ele>
        <time>2021-08-17T11:01:33Z</time>
      </trkpt>
      <trkpt lat="44.67804" lon="6.96326">
        <ele>3014.83</ele>
        <time>2021-08-17T11:01:52Z</time>
      </trkpt>
      <trkpt lat="44.67804" lon="6.96326">
        <ele>3014.83</ele>
        <time>2021-08-17T11:02:17Z</time>
      </trkpt>
      <trkpt lat="44.67804" lon="6.96326">
        <ele>3014.83</ele>
        <time>2021-08-17T11:02:41Z</time>
      </trkpt>
      <trkpt lat="44.67804" lon="6.96326">
        <ele>3014.83</ele>
        <time>2021-08-17T11:03:04Z</time>
      </trkpt>
      <trkpt lat="44.67804" lon="6.96326">
        <ele>3014.35</ele>
        <time>2021-08-17T11:03:23Z</time>
      </trkpt>
      <trkpt lat="44.67804" lon="6.96326">
        <ele>3014.35</ele>
        <time>2021-08-17T11:03:43Z</time>
      </trkpt>
      <trkpt lat="44.67804" lon="6.96326">
        <ele>3014.35</ele>
        <time>2021-08-17T11:03:57Z</time>
      </trkpt>
      <trkpt lat="44.67804" lon="6.96326">
        <ele>3015.31</ele>
        <time>2021-08-17T11:04:16Z</time>
      </trkpt>
      <trkpt lat="44.67804" lon="6.96326">
        <ele>3015.31</ele>
        <time>2021-08-17T11:04:36Z</time>
      </trkpt>
      <trkpt lat="44.67804" lon="6.96326">
        <ele>3015.31</ele>
        <time>2021-08-17T11:04:52Z</time>
      </trkpt>
      <trkpt lat="44.67804" lon="6.96325">
        <ele>3015.31</ele>
        <time>2021-08-17T11:05:09Z</time>
      </trkpt>
      <trkpt lat="44.67804" lon="6.96325">
        <ele>3014.83</ele>
        <time>2021-08-17T11:05:26Z</time>
      </trkpt>
      <trkpt lat="44.67804" lon="6.96325">
        <ele>3014.35</ele>
        <time>2021-08-17T11:05:40Z</time>
      </trkpt>
      <trkpt lat="44.67805" lon="6.96324">
        <ele>3013.87</ele>
        <time>2021-08-17T11:06:02Z</time>
      </trkpt>
      <trkpt lat="44.67804" lon="6.96325">
        <ele>3013.87</ele>
        <time>2021-08-17T11:06:25Z</time>
      </trkpt>
      <trkpt lat="44.67804" lon="6.96325">
        <ele>3013.87</ele>
        <time>2021-08-17T11:06:44Z</time>
      </trkpt>
      <trkpt lat="44.67804" lon="6.96324">
        <ele>3013.39</ele>
        <time>2021-08-17T11:07:04Z</time>
      </trkpt>
      <trkpt lat="44.67804" lon="6.96325">
        <ele>3013.39</ele>
        <time>2021-08-17T11:07:27Z</time>
      </trkpt>
      <trkpt lat="44.67804" lon="6.96325">
        <ele>3013.39</ele>
        <time>2021-08-17T11:07:46Z</time>
      </trkpt>
      <trkpt lat="44.67805" lon="6.96325">
        <ele>3013.39</ele>
        <time>2021-08-17T11:08:08Z</time>
      </trkpt>
      <trkpt lat="44.67805" lon="6.96325">
        <ele>3012.91</ele>
        <time>2021-08-17T11:08:29Z</time>
      </trkpt>
      <trkpt lat="44.67804" lon="6.96325">
        <ele>3012.91</ele>
        <time>2021-08-17T11:08:51Z</time>
      </trkpt>
      <trkpt lat="44.67804" lon="6.96324">
        <ele>3012.91</ele>
        <time>2021-08-17T11:09:14Z</time>
      </trkpt>
      <trkpt lat="44.67805" lon="6.96324">
        <ele>3012.91</ele>
        <time>2021-08-17T11:09:36Z</time>
      </trkpt>
      <trkpt lat="44.67804" lon="6.96324">
        <ele>3012.91</ele>
        <time>2021-08-17T11:09:55Z</time>
      </trkpt>
      <trkpt lat="44.67804" lon="6.96324">
        <ele>3012.91</ele>
        <time>2021-08-17T11:10:19Z</time>
      </trkpt>
      <trkpt lat="44.67804" lon="6.96324">
        <ele>3012.91</ele>
        <time>2021-08-17T11:10:41Z</time>
      </trkpt>
      <trkpt lat="44.67804" lon="6.96324">
        <ele>3012.91</ele>
        <time>2021-08-17T11:10:58Z</time>
      </trkpt>
      <trkpt lat="44.67804" lon="6.96324">
        <ele>3012.91</ele>
        <time>2021-08-17T11:11:16Z</time>
      </trkpt>
      <trkpt lat="44.67804" lon="6.96324">
        <ele>3012.91</ele>
        <time>2021-08-17T11:11:39Z</time>
      </trkpt>
      <trkpt lat="44.67804" lon="6.96324">
        <ele>3012.91</ele>
        <time>2021-08-17T11:12:01Z</time>
      </trkpt>
      <trkpt lat="44.67804" lon="6.96324">
        <ele>3012.91</ele>
        <time>2021-08-17T11:12:22Z</time>
      </trkpt>
      <trkpt lat="44.67804" lon="6.96324">
        <ele>3012.91</ele>
        <time>2021-08-17T11:12:45Z</time>
      </trkpt>
      <trkpt lat="44.67804" lon="6.96324">
        <ele>3012.91</ele>
        <time>2021-08-17T11:13:07Z</time>
      </trkpt>
      <trkpt lat="44.67804" lon="6.96324">
        <ele>3012.91</ele>
        <time>2021-08-17T11:13:28Z</time>
      </trkpt>
      <trkpt lat="44.67804" lon="6.96324">
        <ele>3012.43</ele>
        <time>2021-08-17T11:13:47Z</time>
      </trkpt>
      <trkpt lat="44.67804" lon="6.96324">
        <ele>3012.43</ele>
        <time>2021-08-17T11:14:09Z</time>
      </trkpt>
      <trkpt lat="44.67804" lon="6.96324">
        <ele>3012.91</ele>
        <time>2021-08-17T11:14:30Z</time>
      </trkpt>
      <trkpt lat="44.67804" lon="6.96324">
        <ele>3012.91</ele>
        <time>2021-08-17T11:14:49Z</time>
      </trkpt>
      <trkpt lat="44.67804" lon="6.96324">
        <ele>3012.91</ele>
        <time>2021-08-17T11:15:08Z</time>
      </trkpt>
      <trkpt lat="44.67804" lon="6.96324">
        <ele>3012.91</ele>
        <time>2021-08-17T11:15:32Z</time>
      </trkpt>
      <trkpt lat="44.67804" lon="6.96324">
        <ele>3012.91</ele>
        <time>2021-08-17T11:15:49Z</time>
      </trkpt>
      <trkpt lat="44.67804" lon="6.96324">
        <ele>3012.91</ele>
        <time>2021-08-17T11:16:08Z</time>
      </trkpt>
      <trkpt lat="44.67804" lon="6.96324">
        <ele>3013.39</ele>
        <time>2021-08-17T11:16:19Z</time>
      </trkpt>
      <trkpt lat="44.67804" lon="6.96324">
        <ele>3013.39</ele>
        <time>2021-08-17T11:16:40Z</time>
      </trkpt>
      <trkpt lat="44.67804" lon="6.96324">
        <ele>3013.39</ele>
        <time>2021-08-17T11:17:01Z</time>
      </trkpt>
      <trkpt lat="44.67804" lon="6.96325">
        <ele>3013.39</ele>
        <time>2021-08-17T11:17:13Z</time>
      </trkpt>
      <trkpt lat="44.67804" lon="6.96325">
        <ele>3014.83</ele>
        <time>2021-08-17T11:17:18Z</time>
      </trkpt>
      <trkpt lat="44.67804" lon="6.96325">
        <ele>3014.83</ele>
        <time>2021-08-17T11:17:27Z</time>
      </trkpt>
      <trkpt lat="44.67804" lon="6.96325">
        <ele>3014.83</ele>
        <time>2021-08-17T11:17:49Z</time>
      </trkpt>
      <trkpt lat="44.67804" lon="6.96326">
        <ele>3014.83</ele>
        <time>2021-08-17T11:17:57Z</time>
      </trkpt>
      <trkpt lat="44.67803" lon="6.96326">
        <ele>3014.35</ele>
        <time>2021-08-17T11:18:01Z</time>
      </trkpt>
      <trkpt lat="44.67803" lon="6.96326">
        <ele>3014.35</ele>
        <time>2021-08-17T11:18:07Z</time>
      </trkpt>
      <trkpt lat="44.67803" lon="6.96326">
        <ele>3014.35</ele>
        <time>2021-08-17T11:18:16Z</time>
      </trkpt>
      <trkpt lat="44.67804" lon="6.96327">
        <ele>3014.35</ele>
        <time>2021-08-17T11:18:27Z</time>
      </trkpt>
      <trkpt lat="44.67805" lon="6.96326">
        <ele>3014.83</ele>
        <time>2021-08-17T11:18:40Z</time>
      </trkpt>
      <trkpt lat="44.67805" lon="6.96326">
        <ele>3014.83</ele>
        <time>2021-08-17T11:18:47Z</time>
      </trkpt>
      <trkpt lat="44.67805" lon="6.96326">
        <ele>3014.83</ele>
        <time>2021-08-17T11:19:02Z</time>
      </trkpt>
      <trkpt lat="44.67805" lon="6.96326">
        <ele>3014.83</ele>
        <time>2021-08-17T11:19:13Z</time>
      </trkpt>
      <trkpt lat="44.67805" lon="6.96326">
        <ele>3014.83</ele>
        <time>2021-08-17T11:19:25Z</time>
      </trkpt>
      <trkpt lat="44.67805" lon="6.96326">
        <ele>3015.31</ele>
        <time>2021-08-17T11:19:34Z</time>
      </trkpt>
      <trkpt lat="44.67805" lon="6.96326">
        <ele>3015.31</ele>
        <time>2021-08-17T11:19:45Z</time>
      </trkpt>
      <trkpt lat="44.67806" lon="6.96322">
        <ele>3014.83</ele>
        <time>2021-08-17T11:19:51Z</time>
      </trkpt>
      <trkpt lat="44.67807" lon="6.96318">
        <ele>3014.83</ele>
        <time>2021-08-17T11:19:59Z</time>
      </trkpt>
      <trkpt lat="44.67808" lon="6.96317">
        <ele>3014.83</ele>
        <time>2021-08-17T11:20:06Z</time>
      </trkpt>
      <trkpt lat="44.67808" lon="6.96316">
        <ele>3015.31</ele>
        <time>2021-08-17T11:20:08Z</time>
      </trkpt>
      <trkpt lat="44.67808" lon="6.96313">
        <ele>3015.31</ele>
        <time>2021-08-17T11:20:10Z</time>
      </trkpt>
      <trkpt lat="44.67811" lon="6.96301">
        <ele>3015.79</ele>
        <time>2021-08-17T11:20:18Z</time>
      </trkpt>
      <trkpt lat="44.67811" lon="6.96295">
        <ele>3015.31</ele>
        <time>2021-08-17T11:20:24Z</time>
      </trkpt>
      <trkpt lat="44.6781" lon="6.96291">
        <ele>3013.87</ele>
        <time>2021-08-17T11:20:29Z</time>
      </trkpt>
      <trkpt lat="44.67806" lon="6.96283">
        <ele>3011.47</ele>
        <time>2021-08-17T11:20:39Z</time>
      </trkpt>
      <trkpt lat="44.67801" lon="6.96281">
        <ele>3010.03</ele>
        <time>2021-08-17T11:20:46Z</time>
      </trkpt>
      <trkpt lat="44.67797" lon="6.96277">
        <ele>3007.62</ele>
        <time>2021-08-17T11:20:53Z</time>
      </trkpt>
      <trkpt lat="44.67795" lon="6.96277">
        <ele>3010.51</ele>
        <time>2021-08-17T11:21:01Z</time>
      </trkpt>
      <trkpt lat="44.67795" lon="6.96275">
        <ele>3010.51</ele>
        <time>2021-08-17T11:21:08Z</time>
      </trkpt>
      <trkpt lat="44.67795" lon="6.96275">
        <ele>3010.51</ele>
        <time>2021-08-17T11:21:15Z</time>
      </trkpt>
      <trkpt lat="44.67795" lon="6.96273">
        <ele>3010.51</ele>
        <time>2021-08-17T11:21:25Z</time>
      </trkpt>
      <trkpt lat="44.67795" lon="6.96273">
        <ele>3010.51</ele>
        <time>2021-08-17T11:21:33Z</time>
      </trkpt>
      <trkpt lat="44.67796" lon="6.96273">
        <ele>3010.03</ele>
        <time>2021-08-17T11:21:41Z</time>
      </trkpt>
      <trkpt lat="44.67796" lon="6.96272">
        <ele>3010.03</ele>
        <time>2021-08-17T11:21:50Z</time>
      </trkpt>
      <trkpt lat="44.67798" lon="6.96271">
        <ele>3010.03</ele>
        <time>2021-08-17T11:21:57Z</time>
      </trkpt>
      <trkpt lat="44.678" lon="6.96271">
        <ele>3010.03</ele>
        <time>2021-08-17T11:22:04Z</time>
      </trkpt>
      <trkpt lat="44.67802" lon="6.96271">
        <ele>3010.03</ele>
        <time>2021-08-17T11:22:10Z</time>
      </trkpt>
      <trkpt lat="44.67803" lon="6.96271">
        <ele>3010.51</ele>
        <time>2021-08-17T11:22:18Z</time>
      </trkpt>
      <trkpt lat="44.67805" lon="6.96271">
        <ele>3010.99</ele>
        <time>2021-08-17T11:22:27Z</time>
      </trkpt>
      <trkpt lat="44.67816" lon="6.9627">
        <ele>3014.83</ele>
        <time>2021-08-17T11:22:37Z</time>
      </trkpt>
      <trkpt lat="44.67823" lon="6.96269">
        <ele>3017.23</ele>
        <time>2021-08-17T11:22:47Z</time>
      </trkpt>
      <trkpt lat="44.67828" lon="6.9627">
        <ele>3017.72</ele>
        <time>2021-08-17T11:22:55Z</time>
      </trkpt>
      <trkpt lat="44.6783" lon="6.96269">
        <ele>3017.23</ele>
        <time>2021-08-17T11:23:03Z</time>
      </trkpt>
      <trkpt lat="44.67831" lon="6.96269">
        <ele>3017.23</ele>
        <time>2021-08-17T11:23:11Z</time>
      </trkpt>
      <trkpt lat="44.67833" lon="6.96269">
        <ele>3016.75</ele>
        <time>2021-08-17T11:23:18Z</time>
      </trkpt>
      <trkpt lat="44.67833" lon="6.96269">
        <ele>3016.27</ele>
        <time>2021-08-17T11:23:20Z</time>
      </trkpt>
      <trkpt lat="44.67842" lon="6.96266">
        <ele>3012.43</ele>
        <time>2021-08-17T11:23:30Z</time>
      </trkpt>
      <trkpt lat="44.67845" lon="6.96266">
        <ele>3011.95</ele>
        <time>2021-08-17T11:23:38Z</time>
      </trkpt>
      <trkpt lat="44.67847" lon="6.96265">
        <ele>3010.99</ele>
        <time>2021-08-17T11:23:46Z</time>
      </trkpt>
      <trkpt lat="44.67848" lon="6.96265">
        <ele>3010.51</ele>
        <time>2021-08-17T11:23:51Z</time>
      </trkpt>
      <trkpt lat="44.67851" lon="6.96264">
        <ele>3010.03</ele>
        <time>2021-08-17T11:23:59Z</time>
      </trkpt>
      <trkpt lat="44.67858" lon="6.96264">
        <ele>3010.51</ele>
        <time>2021-08-17T11:24:10Z</time>
      </trkpt>
      <trkpt lat="44.6786" lon="6.96263">
        <ele>3010.51</ele>
        <time>2021-08-17T11:24:18Z</time>
      </trkpt>
      <trkpt lat="44.67861" lon="6.96262">
        <ele>3010.03</ele>
        <time>2021-08-17T11:24:26Z</time>
      </trkpt>
      <trkpt lat="44.67864" lon="6.96261">
        <ele>3009.06</ele>
        <time>2021-08-17T11:24:34Z</time>
      </trkpt>
      <trkpt lat="44.67867" lon="6.96257">
        <ele>3008.58</ele>
        <time>2021-08-17T11:24:44Z</time>
      </trkpt>
      <trkpt lat="44.67872" lon="6.96253">
        <ele>3007.14</ele>
        <time>2021-08-17T11:24:52Z</time>
      </trkpt>
      <trkpt lat="44.67875" lon="6.96253">
        <ele>3007.62</ele>
        <time>2021-08-17T11:24:59Z</time>
      </trkpt>
      <trkpt lat="44.67877" lon="6.96252">
        <ele>3007.14</ele>
        <time>2021-08-17T11:25:08Z</time>
      </trkpt>
      <trkpt lat="44.67878" lon="6.96251">
        <ele>3007.14</ele>
        <time>2021-08-17T11:25:15Z</time>
      </trkpt>
      <trkpt lat="44.67884" lon="6.96245">
        <ele>3004.26</ele>
        <time>2021-08-17T11:25:22Z</time>
      </trkpt>
      <trkpt lat="44.67889" lon="6.9624">
        <ele>3001.85</ele>
        <time>2021-08-17T11:25:29Z</time>
      </trkpt>
      <trkpt lat="44.67894" lon="6.96237">
        <ele>3000.41</ele>
        <time>2021-08-17T11:25:35Z</time>
      </trkpt>
      <trkpt lat="44.679" lon="6.96233">
        <ele>2998.49</ele>
        <time>2021-08-17T11:25:42Z</time>
      </trkpt>
      <trkpt lat="44.67904" lon="6.9623">
        <ele>2996.57</ele>
        <time>2021-08-17T11:25:50Z</time>
      </trkpt>
      <trkpt lat="44.67909" lon="6.96228">
        <ele>2994.64</ele>
        <time>2021-08-17T11:25:57Z</time>
      </trkpt>
      <trkpt lat="44.67913" lon="6.96226">
        <ele>2992.72</ele>
        <time>2021-08-17T11:26:06Z</time>
      </trkpt>
      <trkpt lat="44.67916" lon="6.96222">
        <ele>2991.28</ele>
        <time>2021-08-17T11:26:12Z</time>
      </trkpt>
      <trkpt lat="44.67918" lon="6.96221">
        <ele>2990.32</ele>
        <time>2021-08-17T11:26:19Z</time>
      </trkpt>
      <trkpt lat="44.67918" lon="6.96216">
        <ele>2988.4</ele>
        <time>2021-08-17T11:26:26Z</time>
      </trkpt>
      <trkpt lat="44.67919" lon="6.96212">
        <ele>2987.43</ele>
        <time>2021-08-17T11:26:33Z</time>
      </trkpt>
      <trkpt lat="44.6792" lon="6.96211">
        <ele>2986.95</ele>
        <time>2021-08-17T11:26:40Z</time>
      </trkpt>
      <trkpt lat="44.67917" lon="6.96207">
        <ele>2986.47</ele>
        <time>2021-08-17T11:26:48Z</time>
      </trkpt>
      <trkpt lat="44.67917" lon="6.96203">
        <ele>2985.99</ele>
        <time>2021-08-17T11:26:55Z</time>
      </trkpt>
      <trkpt lat="44.67921" lon="6.96195">
        <ele>2984.55</ele>
        <time>2021-08-17T11:27:03Z</time>
      </trkpt>
      <trkpt lat="44.67922" lon="6.96192">
        <ele>2983.11</ele>
        <time>2021-08-17T11:27:11Z</time>
      </trkpt>
      <trkpt lat="44.67924" lon="6.96191">
        <ele>2981.67</ele>
        <time>2021-08-17T11:27:20Z</time>
      </trkpt>
      <trkpt lat="44.67925" lon="6.9619">
        <ele>2980.71</ele>
        <time>2021-08-17T11:27:27Z</time>
      </trkpt>
      <trkpt lat="44.67925" lon="6.96185">
        <ele>2978.78</ele>
        <time>2021-08-17T11:27:34Z</time>
      </trkpt>
      <trkpt lat="44.67928" lon="6.96181">
        <ele>2975.9</ele>
        <time>2021-08-17T11:27:41Z</time>
      </trkpt>
      <trkpt lat="44.67931" lon="6.96177">
        <ele>2973.98</ele>
        <time>2021-08-17T11:27:49Z</time>
      </trkpt>
      <trkpt lat="44.67934" lon="6.96172">
        <ele>2972.05</ele>
        <time>2021-08-17T11:27:57Z</time>
      </trkpt>
      <trkpt lat="44.67935" lon="6.96171">
        <ele>2971.57</ele>
        <time>2021-08-17T11:28:06Z</time>
      </trkpt>
      <trkpt lat="44.67939" lon="6.96165">
        <ele>2969.65</ele>
        <time>2021-08-17T11:28:15Z</time>
      </trkpt>
      <trkpt lat="44.67943" lon="6.9616">
        <ele>2969.17</ele>
        <time>2021-08-17T11:28:24Z</time>
      </trkpt>
      <trkpt lat="44.67947" lon="6.96157">
        <ele>2967.73</ele>
        <time>2021-08-17T11:28:28Z</time>
      </trkpt>
      <trkpt lat="44.67951" lon="6.96148">
        <ele>2965.8</ele>
        <time>2021-08-17T11:28:36Z</time>
      </trkpt>
      <trkpt lat="44.67956" lon="6.96142">
        <ele>2962.44</ele>
        <time>2021-08-17T11:28:43Z</time>
      </trkpt>
      <trkpt lat="44.6796" lon="6.96138">
        <ele>2960.04</ele>
        <time>2021-08-17T11:28:48Z</time>
      </trkpt>
      <trkpt lat="44.67961" lon="6.9613">
        <ele>2957.15</ele>
        <time>2021-08-17T11:28:56Z</time>
      </trkpt>
      <trkpt lat="44.67962" lon="6.96125">
        <ele>2955.23</ele>
        <time>2021-08-17T11:29:03Z</time>
      </trkpt>
      <trkpt lat="44.67965" lon="6.96117">
        <ele>2952.83</ele>
        <time>2021-08-17T11:29:13Z</time>
      </trkpt>
      <trkpt lat="44.67968" lon="6.9611">
        <ele>2952.35</ele>
        <time>2021-08-17T11:29:21Z</time>
      </trkpt>
      <trkpt lat="44.6797" lon="6.96104">
        <ele>2951.87</ele>
        <time>2021-08-17T11:29:29Z</time>
      </trkpt>
      <trkpt lat="44.67974" lon="6.96099">
        <ele>2950.9</ele>
        <time>2021-08-17T11:29:37Z</time>
      </trkpt>
      <trkpt lat="44.67975" lon="6.96096">
        <ele>2950.9</ele>
        <time>2021-08-17T11:29:44Z</time>
      </trkpt>
      <trkpt lat="44.67977" lon="6.96094">
        <ele>2950.42</ele>
        <time>2021-08-17T11:29:51Z</time>
      </trkpt>
      <trkpt lat="44.6798" lon="6.96088">
        <ele>2948.98</ele>
        <time>2021-08-17T11:30:00Z</time>
      </trkpt>
      <trkpt lat="44.67982" lon="6.96082">
        <ele>2947.06</ele>
        <time>2021-08-17T11:30:09Z</time>
      </trkpt>
      <trkpt lat="44.67983" lon="6.96075">
        <ele>2945.62</ele>
        <time>2021-08-17T11:30:17Z</time>
      </trkpt>
      <trkpt lat="44.67981" lon="6.96069">
        <ele>2944.66</ele>
        <time>2021-08-17T11:30:25Z</time>
      </trkpt>
      <trkpt lat="44.6798" lon="6.96065">
        <ele>2944.17</ele>
        <time>2021-08-17T11:30:33Z</time>
      </trkpt>
      <trkpt lat="44.67982" lon="6.96059">
        <ele>2942.73</ele>
        <time>2021-08-17T11:30:41Z</time>
      </trkpt>
      <trkpt lat="44.67984" lon="6.96051">
        <ele>2941.77</ele>
        <time>2021-08-17T11:30:49Z</time>
      </trkpt>
      <trkpt lat="44.67985" lon="6.96049">
        <ele>2941.77</ele>
        <time>2021-08-17T11:30:51Z</time>
      </trkpt>
      <trkpt lat="44.67987" lon="6.96043">
        <ele>2941.29</ele>
        <time>2021-08-17T11:30:58Z</time>
      </trkpt>
      <trkpt lat="44.67991" lon="6.96036">
        <ele>2939.85</ele>
        <time>2021-08-17T11:31:05Z</time>
      </trkpt>
      <trkpt lat="44.67993" lon="6.96028">
        <ele>2938.41</ele>
        <time>2021-08-17T11:31:12Z</time>
      </trkpt>
      <trkpt lat="44.67996" lon="6.96021">
        <ele>2937.93</ele>
        <time>2021-08-17T11:31:19Z</time>
      </trkpt>
      <trkpt lat="44.67999" lon="6.96014">
        <ele>2936.48</ele>
        <time>2021-08-17T11:31:28Z</time>
      </trkpt>
      <trkpt lat="44.68002" lon="6.96005">
        <ele>2935.52</ele>
        <time>2021-08-17T11:31:37Z</time>
      </trkpt>
      <trkpt lat="44.68004" lon="6.95999">
        <ele>2934.56</ele>
        <time>2021-08-17T11:31:44Z</time>
      </trkpt>
      <trkpt lat="44.68008" lon="6.95995">
        <ele>2933.6</ele>
        <time>2021-08-17T11:31:51Z</time>
      </trkpt>
      <trkpt lat="44.6801" lon="6.95992">
        <ele>2933.12</ele>
        <time>2021-08-17T11:31:57Z</time>
      </trkpt>
      <trkpt lat="44.68013" lon="6.95985">
        <ele>2932.16</ele>
        <time>2021-08-17T11:32:04Z</time>
      </trkpt>
      <trkpt lat="44.68015" lon="6.95981">
        <ele>2931.68</ele>
        <time>2021-08-17T11:32:11Z</time>
      </trkpt>
      <trkpt lat="44.68016" lon="6.95975">
        <ele>2930.72</ele>
        <time>2021-08-17T11:32:18Z</time>
      </trkpt>
      <trkpt lat="44.68015" lon="6.95972">
        <ele>2929.75</ele>
        <time>2021-08-17T11:32:21Z</time>
      </trkpt>
      <trkpt lat="44.68011" lon="6.95968">
        <ele>2930.24</ele>
        <time>2021-08-17T11:32:29Z</time>
      </trkpt>
      <trkpt lat="44.68012" lon="6.95969">
        <ele>2930.72</ele>
        <time>2021-08-17T11:32:42Z</time>
      </trkpt>
      <trkpt lat="44.68011" lon="6.9597">
        <ele>2930.72</ele>
        <time>2021-08-17T11:32:48Z</time>
      </trkpt>
      <trkpt lat="44.68014" lon="6.95972">
        <ele>2930.24</ele>
        <time>2021-08-17T11:32:56Z</time>
      </trkpt>
      <trkpt lat="44.68016" lon="6.95972">
        <ele>2929.27</ele>
        <time>2021-08-17T11:33:03Z</time>
      </trkpt>
      <trkpt lat="44.68017" lon="6.95968">
        <ele>2927.83</ele>
        <time>2021-08-17T11:33:09Z</time>
      </trkpt>
      <trkpt lat="44.68018" lon="6.95967">
        <ele>2926.39</ele>
        <time>2021-08-17T11:33:17Z</time>
      </trkpt>
      <trkpt lat="44.68021" lon="6.95962">
        <ele>2923.99</ele>
        <time>2021-08-17T11:33:25Z</time>
      </trkpt>
      <trkpt lat="44.68023" lon="6.95959">
        <ele>2923.99</ele>
        <time>2021-08-17T11:33:32Z</time>
      </trkpt>
      <trkpt lat="44.68025" lon="6.95957">
        <ele>2923.03</ele>
        <time>2021-08-17T11:33:39Z</time>
      </trkpt>
      <trkpt lat="44.68029" lon="6.95954">
        <ele>2922.06</ele>
        <time>2021-08-17T11:33:46Z</time>
      </trkpt>
      <trkpt lat="44.6803" lon="6.95949">
        <ele>2921.1</ele>
        <time>2021-08-17T11:33:53Z</time>
      </trkpt>
      <trkpt lat="44.6803" lon="6.95945">
        <ele>2920.14</ele>
        <time>2021-08-17T11:34:00Z</time>
      </trkpt>
      <trkpt lat="44.68031" lon="6.95942">
        <ele>2918.7</ele>
        <time>2021-08-17T11:34:06Z</time>
      </trkpt>
      <trkpt lat="44.68031" lon="6.95939">
        <ele>2917.74</ele>
        <time>2021-08-17T11:34:13Z</time>
      </trkpt>
      <trkpt lat="44.68033" lon="6.95938">
        <ele>2917.26</ele>
        <time>2021-08-17T11:34:19Z</time>
      </trkpt>
      <trkpt lat="44.68036" lon="6.95938">
        <ele>2915.34</ele>
        <time>2021-08-17T11:34:27Z</time>
      </trkpt>
      <trkpt lat="44.68039" lon="6.95941">
        <ele>2913.89</ele>
        <time>2021-08-17T11:34:33Z</time>
      </trkpt>
      <trkpt lat="44.6804" lon="6.95937">
        <ele>2912.93</ele>
        <time>2021-08-17T11:34:39Z</time>
      </trkpt>
      <trkpt lat="44.68044" lon="6.95936">
        <ele>2912.45</ele>
        <time>2021-08-17T11:34:48Z</time>
      </trkpt>
      <trkpt lat="44.68045" lon="6.95934">
        <ele>2910.53</ele>
        <time>2021-08-17T11:34:56Z</time>
      </trkpt>
      <trkpt lat="44.68045" lon="6.95933">
        <ele>2910.05</ele>
        <time>2021-08-17T11:35:03Z</time>
      </trkpt>
      <trkpt lat="44.68048" lon="6.95931">
        <ele>2909.09</ele>
        <time>2021-08-17T11:35:10Z</time>
      </trkpt>
      <trkpt lat="44.68051" lon="6.95927">
        <ele>2908.61</ele>
        <time>2021-08-17T11:35:18Z</time>
      </trkpt>
      <trkpt lat="44.68053" lon="6.95922">
        <ele>2908.61</ele>
        <time>2021-08-17T11:35:24Z</time>
      </trkpt>
      <trkpt lat="44.68058" lon="6.95922">
        <ele>2906.68</ele>
        <time>2021-08-17T11:35:31Z</time>
      </trkpt>
      <trkpt lat="44.68061" lon="6.9592">
        <ele>2905.72</ele>
        <time>2021-08-17T11:35:37Z</time>
      </trkpt>
      <trkpt lat="44.68063" lon="6.95925">
        <ele>2902.84</ele>
        <time>2021-08-17T11:35:46Z</time>
      </trkpt>
      <trkpt lat="44.68062" lon="6.95925">
        <ele>2901.88</ele>
        <time>2021-08-17T11:35:57Z</time>
      </trkpt>
      <trkpt lat="44.68064" lon="6.95925">
        <ele>2901.88</ele>
        <time>2021-08-17T11:36:10Z</time>
      </trkpt>
      <trkpt lat="44.68067" lon="6.95929">
        <ele>2900.92</ele>
        <time>2021-08-17T11:36:17Z</time>
      </trkpt>
      <trkpt lat="44.68068" lon="6.95929">
        <ele>2900.44</ele>
        <time>2021-08-17T11:36:24Z</time>
      </trkpt>
      <trkpt lat="44.68069" lon="6.95925">
        <ele>2898.99</ele>
        <time>2021-08-17T11:36:30Z</time>
      </trkpt>
      <trkpt lat="44.68074" lon="6.9593">
        <ele>2897.55</ele>
        <time>2021-08-17T11:36:37Z</time>
      </trkpt>
      <trkpt lat="44.68078" lon="6.95932">
        <ele>2895.63</ele>
        <time>2021-08-17T11:36:43Z</time>
      </trkpt>
      <trkpt lat="44.68085" lon="6.95931">
        <ele>2891.3</ele>
        <time>2021-08-17T11:36:51Z</time>
      </trkpt>
      <trkpt lat="44.68086" lon="6.9593">
        <ele>2890.82</ele>
        <time>2021-08-17T11:36:58Z</time>
      </trkpt>
      <trkpt lat="44.68087" lon="6.9593">
        <ele>2890.82</ele>
        <time>2021-08-17T11:37:07Z</time>
      </trkpt>
      <trkpt lat="44.68088" lon="6.9593">
        <ele>2890.82</ele>
        <time>2021-08-17T11:37:08Z</time>
      </trkpt>
      <trkpt lat="44.68088" lon="6.95931">
        <ele>2890.82</ele>
        <time>2021-08-17T11:37:10Z</time>
      </trkpt>
      <trkpt lat="44.68095" lon="6.95932">
        <ele>2892.26</ele>
        <time>2021-08-17T11:37:16Z</time>
      </trkpt>
      <trkpt lat="44.68103" lon="6.95929">
        <ele>2891.3</ele>
        <time>2021-08-17T11:37:24Z</time>
      </trkpt>
      <trkpt lat="44.68108" lon="6.95926">
        <ele>2890.34</ele>
        <time>2021-08-17T11:37:32Z</time>
      </trkpt>
      <trkpt lat="44.68109" lon="6.95927">
        <ele>2890.34</ele>
        <time>2021-08-17T11:37:40Z</time>
      </trkpt>
      <trkpt lat="44.68115" lon="6.95923">
        <ele>2892.26</ele>
        <time>2021-08-17T11:37:48Z</time>
      </trkpt>
      <trkpt lat="44.68119" lon="6.95921">
        <ele>2893.23</ele>
        <time>2021-08-17T11:37:56Z</time>
      </trkpt>
      <trkpt lat="44.68124" lon="6.95917">
        <ele>2892.26</ele>
        <time>2021-08-17T11:38:02Z</time>
      </trkpt>
      <trkpt lat="44.68124" lon="6.95916">
        <ele>2892.26</ele>
        <time>2021-08-17T11:38:03Z</time>
      </trkpt>
      <trkpt lat="44.6812" lon="6.95912">
        <ele>2891.3</ele>
        <time>2021-08-17T11:38:12Z</time>
      </trkpt>
      <trkpt lat="44.68121" lon="6.95911">
        <ele>2891.3</ele>
        <time>2021-08-17T11:38:26Z</time>
      </trkpt>
      <trkpt lat="44.6812" lon="6.95911">
        <ele>2891.3</ele>
        <time>2021-08-17T11:38:27Z</time>
      </trkpt>
      <trkpt lat="44.68116" lon="6.95902">
        <ele>2891.78</ele>
        <time>2021-08-17T11:38:35Z</time>
      </trkpt>
      <trkpt lat="44.68117" lon="6.95898">
        <ele>2892.74</ele>
        <time>2021-08-17T11:38:40Z</time>
      </trkpt>
      <trkpt lat="44.68117" lon="6.95899">
        <ele>2893.23</ele>
        <time>2021-08-17T11:38:49Z</time>
      </trkpt>
      <trkpt lat="44.68117" lon="6.95899">
        <ele>2892.74</ele>
        <time>2021-08-17T11:39:00Z</time>
      </trkpt>
      <trkpt lat="44.68117" lon="6.95899">
        <ele>2892.74</ele>
        <time>2021-08-17T11:39:14Z</time>
      </trkpt>
      <trkpt lat="44.68117" lon="6.959">
        <ele>2893.23</ele>
        <time>2021-08-17T11:39:25Z</time>
      </trkpt>
      <trkpt lat="44.68117" lon="6.95902">
        <ele>2893.23</ele>
        <time>2021-08-17T11:39:36Z</time>
      </trkpt>
      <trkpt lat="44.68117" lon="6.959">
        <ele>2893.71</ele>
        <time>2021-08-17T11:39:47Z</time>
      </trkpt>
      <trkpt lat="44.68118" lon="6.959">
        <ele>2893.71</ele>
        <time>2021-08-17T11:39:53Z</time>
      </trkpt>
      <trkpt lat="44.68121" lon="6.95901">
        <ele>2893.23</ele>
        <time>2021-08-17T11:39:59Z</time>
      </trkpt>
      <trkpt lat="44.68119" lon="6.95901">
        <ele>2894.19</ele>
        <time>2021-08-17T11:40:05Z</time>
      </trkpt>
      <trkpt lat="44.68119" lon="6.959">
        <ele>2894.19</ele>
        <time>2021-08-17T11:40:22Z</time>
      </trkpt>
      <trkpt lat="44.68119" lon="6.95898">
        <ele>2894.19</ele>
        <time>2021-08-17T11:40:33Z</time>
      </trkpt>
      <trkpt lat="44.68122" lon="6.959">
        <ele>2893.71</ele>
        <time>2021-08-17T11:40:39Z</time>
      </trkpt>
      <trkpt lat="44.68129" lon="6.95903">
        <ele>2892.74</ele>
        <time>2021-08-17T11:40:47Z</time>
      </trkpt>
      <trkpt lat="44.68134" lon="6.95905">
        <ele>2892.74</ele>
        <time>2021-08-17T11:40:53Z</time>
      </trkpt>
      <trkpt lat="44.68142" lon="6.95909">
        <ele>2892.26</ele>
        <time>2021-08-17T11:41:01Z</time>
      </trkpt>
      <trkpt lat="44.6815" lon="6.95913">
        <ele>2890.82</ele>
        <time>2021-08-17T11:41:11Z</time>
      </trkpt>
      <trkpt lat="44.68156" lon="6.9592">
        <ele>2890.34</ele>
        <time>2021-08-17T11:41:21Z</time>
      </trkpt>
      <trkpt lat="44.68158" lon="6.95927">
        <ele>2889.38</ele>
        <time>2021-08-17T11:41:29Z</time>
      </trkpt>
      <trkpt lat="44.68159" lon="6.95932">
        <ele>2888.42</ele>
        <time>2021-08-17T11:41:33Z</time>
      </trkpt>
      <trkpt lat="44.68156" lon="6.95942">
        <ele>2887.46</ele>
        <time>2021-08-17T11:41:42Z</time>
      </trkpt>
      <trkpt lat="44.68155" lon="6.95948">
        <ele>2885.05</ele>
        <time>2021-08-17T11:41:50Z</time>
      </trkpt>
      <trkpt lat="44.68154" lon="6.95959">
        <ele>2884.09</ele>
        <time>2021-08-17T11:41:58Z</time>
      </trkpt>
      <trkpt lat="44.68155" lon="6.95971">
        <ele>2882.17</ele>
        <time>2021-08-17T11:42:07Z</time>
      </trkpt>
      <trkpt lat="44.68154" lon="6.95979">
        <ele>2881.69</ele>
        <time>2021-08-17T11:42:15Z</time>
      </trkpt>
      <trkpt lat="44.68155" lon="6.95986">
        <ele>2880.73</ele>
        <time>2021-08-17T11:42:22Z</time>
      </trkpt>
      <trkpt lat="44.68155" lon="6.95989">
        <ele>2880.73</ele>
        <time>2021-08-17T11:42:32Z</time>
      </trkpt>
      <trkpt lat="44.68153" lon="6.95998">
        <ele>2879.29</ele>
        <time>2021-08-17T11:42:40Z</time>
      </trkpt>
      <trkpt lat="44.68153" lon="6.96009">
        <ele>2878.32</ele>
        <time>2021-08-17T11:42:49Z</time>
      </trkpt>
      <trkpt lat="44.68151" lon="6.96017">
        <ele>2879.29</ele>
        <time>2021-08-17T11:42:56Z</time>
      </trkpt>
      <trkpt lat="44.68147" lon="6.96025">
        <ele>2878.81</ele>
        <time>2021-08-17T11:43:03Z</time>
      </trkpt>
      <trkpt lat="44.68144" lon="6.9603">
        <ele>2878.81</ele>
        <time>2021-08-17T11:43:11Z</time>
      </trkpt>
      <trkpt lat="44.68144" lon="6.96036">
        <ele>2877.36</ele>
        <time>2021-08-17T11:43:18Z</time>
      </trkpt>
      <trkpt lat="44.68145" lon="6.96043">
        <ele>2876.88</ele>
        <time>2021-08-17T11:43:26Z</time>
      </trkpt>
      <trkpt lat="44.68147" lon="6.96049">
        <ele>2875.92</ele>
        <time>2021-08-17T11:43:33Z</time>
      </trkpt>
      <trkpt lat="44.68147" lon="6.96059">
        <ele>2874.48</ele>
        <time>2021-08-17T11:43:41Z</time>
      </trkpt>
      <trkpt lat="44.68147" lon="6.96065">
        <ele>2872.08</ele>
        <time>2021-08-17T11:43:48Z</time>
      </trkpt>
      <trkpt lat="44.68148" lon="6.96072">
        <ele>2870.63</ele>
        <time>2021-08-17T11:43:56Z</time>
      </trkpt>
      <trkpt lat="44.68149" lon="6.96078">
        <ele>2869.19</ele>
        <time>2021-08-17T11:44:03Z</time>
      </trkpt>
      <trkpt lat="44.6815" lon="6.96084">
        <ele>2867.75</ele>
        <time>2021-08-17T11:44:11Z</time>
      </trkpt>
      <trkpt lat="44.6815" lon="6.96089">
        <ele>2866.79</ele>
        <time>2021-08-17T11:44:18Z</time>
      </trkpt>
      <trkpt lat="44.6815" lon="6.96094">
        <ele>2865.35</ele>
        <time>2021-08-17T11:44:26Z</time>
      </trkpt>
      <trkpt lat="44.68153" lon="6.96098">
        <ele>2864.87</ele>
        <time>2021-08-17T11:44:33Z</time>
      </trkpt>
      <trkpt lat="44.68151" lon="6.96099">
        <ele>2864.39</ele>
        <time>2021-08-17T11:44:44Z</time>
      </trkpt>
      <trkpt lat="44.68148" lon="6.96102">
        <ele>2864.39</ele>
        <time>2021-08-17T11:44:52Z</time>
      </trkpt>
      <trkpt lat="44.68145" lon="6.96104">
        <ele>2863.9</ele>
        <time>2021-08-17T11:45:00Z</time>
      </trkpt>
      <trkpt lat="44.68145" lon="6.96106">
        <ele>2863.9</ele>
        <time>2021-08-17T11:45:07Z</time>
      </trkpt>
      <trkpt lat="44.68145" lon="6.96107">
        <ele>2863.42</ele>
        <time>2021-08-17T11:45:16Z</time>
      </trkpt>
      <trkpt lat="44.68143" lon="6.9611">
        <ele>2862.46</ele>
        <time>2021-08-17T11:45:24Z</time>
      </trkpt>
      <trkpt lat="44.6814" lon="6.96116">
        <ele>2861.02</ele>
        <time>2021-08-17T11:45:31Z</time>
      </trkpt>
      <trkpt lat="44.68138" lon="6.96118">
        <ele>2860.54</ele>
        <time>2021-08-17T11:45:33Z</time>
      </trkpt>
      <trkpt lat="44.68136" lon="6.96122">
        <ele>2860.54</ele>
        <time>2021-08-17T11:45:39Z</time>
      </trkpt>
      <trkpt lat="44.6814" lon="6.96123">
        <ele>2860.06</ele>
        <time>2021-08-17T11:45:48Z</time>
      </trkpt>
      <trkpt lat="44.68141" lon="6.96126">
        <ele>2860.54</ele>
        <time>2021-08-17T11:45:55Z</time>
      </trkpt>
      <trkpt lat="44.68139" lon="6.96128">
        <ele>2860.06</ele>
        <time>2021-08-17T11:46:01Z</time>
      </trkpt>
      <trkpt lat="44.68141" lon="6.96127">
        <ele>2860.06</ele>
        <time>2021-08-17T11:46:11Z</time>
      </trkpt>
      <trkpt lat="44.68141" lon="6.96131">
        <ele>2859.58</ele>
        <time>2021-08-17T11:46:17Z</time>
      </trkpt>
      <trkpt lat="44.68141" lon="6.96139">
        <ele>2858.14</ele>
        <time>2021-08-17T11:46:25Z</time>
      </trkpt>
      <trkpt lat="44.6814" lon="6.96141">
        <ele>2857.18</ele>
        <time>2021-08-17T11:46:29Z</time>
      </trkpt>
      <trkpt lat="44.68139" lon="6.96143">
        <ele>2856.69</ele>
        <time>2021-08-17T11:46:31Z</time>
      </trkpt>
      <trkpt lat="44.68139" lon="6.96152">
        <ele>2855.25</ele>
        <time>2021-08-17T11:46:39Z</time>
      </trkpt>
      <trkpt lat="44.68138" lon="6.96156">
        <ele>2853.81</ele>
        <time>2021-08-17T11:46:46Z</time>
      </trkpt>
      <trkpt lat="44.68141" lon="6.96157">
        <ele>2853.33</ele>
        <time>2021-08-17T11:46:54Z</time>
      </trkpt>
      <trkpt lat="44.68145" lon="6.96154">
        <ele>2850.93</ele>
        <time>2021-08-17T11:47:01Z</time>
      </trkpt>
      <trkpt lat="44.68147" lon="6.96149">
        <ele>2849.97</ele>
        <time>2021-08-17T11:47:10Z</time>
      </trkpt>
      <trkpt lat="44.68148" lon="6.9615">
        <ele>2849.48</ele>
        <time>2021-08-17T11:47:23Z</time>
      </trkpt>
      <trkpt lat="44.68147" lon="6.96158">
        <ele>2848.52</ele>
        <time>2021-08-17T11:47:29Z</time>
      </trkpt>
      <trkpt lat="44.68144" lon="6.96169">
        <ele>2846.6</ele>
        <time>2021-08-17T11:47:39Z</time>
      </trkpt>
      <trkpt lat="44.68146" lon="6.96175">
        <ele>2845.16</ele>
        <time>2021-08-17T11:47:46Z</time>
      </trkpt>
      <trkpt lat="44.68151" lon="6.96171">
        <ele>2842.28</ele>
        <time>2021-08-17T11:47:53Z</time>
      </trkpt>
      <trkpt lat="44.68157" lon="6.96171">
        <ele>2841.31</ele>
        <time>2021-08-17T11:48:01Z</time>
      </trkpt>
      <trkpt lat="44.68158" lon="6.96172">
        <ele>2840.35</ele>
        <time>2021-08-17T11:48:03Z</time>
      </trkpt>
      <trkpt lat="44.68162" lon="6.96177">
        <ele>2838.43</ele>
        <time>2021-08-17T11:48:11Z</time>
      </trkpt>
      <trkpt lat="44.68161" lon="6.9618">
        <ele>2837.47</ele>
        <time>2021-08-17T11:48:16Z</time>
      </trkpt>
      <trkpt lat="44.68158" lon="6.96187">
        <ele>2835.55</ele>
        <time>2021-08-17T11:48:25Z</time>
      </trkpt>
      <trkpt lat="44.68154" lon="6.96193">
        <ele>2835.06</ele>
        <time>2021-08-17T11:48:34Z</time>
      </trkpt>
      <trkpt lat="44.68151" lon="6.96197">
        <ele>2834.58</ele>
        <time>2021-08-17T11:48:42Z</time>
      </trkpt>
      <trkpt lat="44.68149" lon="6.96203">
        <ele>2833.14</ele>
        <time>2021-08-17T11:48:50Z</time>
      </trkpt>
      <trkpt lat="44.68148" lon="6.96209">
        <ele>2831.22</ele>
        <time>2021-08-17T11:48:57Z</time>
      </trkpt>
      <trkpt lat="44.68146" lon="6.96213">
        <ele>2829.3</ele>
        <time>2021-08-17T11:49:05Z</time>
      </trkpt>
      <trkpt lat="44.68144" lon="6.96216">
        <ele>2827.85</ele>
        <time>2021-08-17T11:49:12Z</time>
      </trkpt>
      <trkpt lat="44.68142" lon="6.96222">
        <ele>2824.97</ele>
        <time>2021-08-17T11:49:20Z</time>
      </trkpt>
      <trkpt lat="44.6814" lon="6.96227">
        <ele>2823.05</ele>
        <time>2021-08-17T11:49:29Z</time>
      </trkpt>
      <trkpt lat="44.68139" lon="6.96228">
        <ele>2824.01</ele>
        <time>2021-08-17T11:49:38Z</time>
      </trkpt>
      <trkpt lat="44.68139" lon="6.96233">
        <ele>2823.05</ele>
        <time>2021-08-17T11:49:47Z</time>
      </trkpt>
      <trkpt lat="44.68137" lon="6.96242">
        <ele>2821.13</ele>
        <time>2021-08-17T11:49:55Z</time>
      </trkpt>
      <trkpt lat="44.68137" lon="6.96244">
        <ele>2821.13</ele>
        <time>2021-08-17T11:49:57Z</time>
      </trkpt>
      <trkpt lat="44.68141" lon="6.96245">
        <ele>2820.65</ele>
        <time>2021-08-17T11:50:04Z</time>
      </trkpt>
      <trkpt lat="44.68142" lon="6.96242">
        <ele>2820.65</ele>
        <time>2021-08-17T11:50:13Z</time>
      </trkpt>
      <trkpt lat="44.68143" lon="6.96242">
        <ele>2820.16</ele>
        <time>2021-08-17T11:50:26Z</time>
      </trkpt>
      <trkpt lat="44.68149" lon="6.96241">
        <ele>2819.68</ele>
        <time>2021-08-17T11:50:32Z</time>
      </trkpt>
      <trkpt lat="44.68152" lon="6.96239">
        <ele>2819.2</ele>
        <time>2021-08-17T11:50:40Z</time>
      </trkpt>
      <trkpt lat="44.68156" lon="6.96237">
        <ele>2818.24</ele>
        <time>2021-08-17T11:50:49Z</time>
      </trkpt>
      <trkpt lat="44.6816" lon="6.96237">
        <ele>2818.24</ele>
        <time>2021-08-17T11:50:57Z</time>
      </trkpt>
      <trkpt lat="44.68163" lon="6.96239">
        <ele>2816.8</ele>
        <time>2021-08-17T11:51:03Z</time>
      </trkpt>
      <trkpt lat="44.68163" lon="6.96242">
        <ele>2815.36</ele>
        <time>2021-08-17T11:51:08Z</time>
      </trkpt>
      <trkpt lat="44.68161" lon="6.96245">
        <ele>2814.4</ele>
        <time>2021-08-17T11:51:16Z</time>
      </trkpt>
      <trkpt lat="44.68161" lon="6.96245">
        <ele>2814.4</ele>
        <time>2021-08-17T11:51:27Z</time>
      </trkpt>
      <trkpt lat="44.68161" lon="6.96245">
        <ele>2814.88</ele>
        <time>2021-08-17T11:51:44Z</time>
      </trkpt>
      <trkpt lat="44.68161" lon="6.96245">
        <ele>2814.88</ele>
        <time>2021-08-17T11:51:59Z</time>
      </trkpt>
      <trkpt lat="44.6816" lon="6.96245">
        <ele>2814.88</ele>
        <time>2021-08-17T11:52:08Z</time>
      </trkpt>
      <trkpt lat="44.68158" lon="6.96251">
        <ele>2814.88</ele>
        <time>2021-08-17T11:52:16Z</time>
      </trkpt>
      <trkpt lat="44.68158" lon="6.96252">
        <ele>2814.4</ele>
        <time>2021-08-17T11:52:26Z</time>
      </trkpt>
      <trkpt lat="44.68157" lon="6.96252">
        <ele>2815.36</ele>
        <time>2021-08-17T11:52:36Z</time>
      </trkpt>
      <trkpt lat="44.68155" lon="6.9626">
        <ele>2815.36</ele>
        <time>2021-08-17T11:52:45Z</time>
      </trkpt>
      <trkpt lat="44.68152" lon="6.96268">
        <ele>2813.92</ele>
        <time>2021-08-17T11:52:54Z</time>
      </trkpt>
      <trkpt lat="44.68149" lon="6.96284">
        <ele>2812.47</ele>
        <time>2021-08-17T11:53:04Z</time>
      </trkpt>
      <trkpt lat="44.68146" lon="6.96291">
        <ele>2810.55</ele>
        <time>2021-08-17T11:53:12Z</time>
      </trkpt>
      <trkpt lat="44.68147" lon="6.96293">
        <ele>2809.11</ele>
        <time>2021-08-17T11:53:15Z</time>
      </trkpt>
      <trkpt lat="44.68144" lon="6.96301">
        <ele>2807.19</ele>
        <time>2021-08-17T11:53:23Z</time>
      </trkpt>
      <trkpt lat="44.6814" lon="6.96304">
        <ele>2806.23</ele>
        <time>2021-08-17T11:53:31Z</time>
      </trkpt>
      <trkpt lat="44.68139" lon="6.96307">
        <ele>2805.75</ele>
        <time>2021-08-17T11:53:34Z</time>
      </trkpt>
      <trkpt lat="44.68137" lon="6.96314">
        <ele>2803.82</ele>
        <time>2021-08-17T11:53:42Z</time>
      </trkpt>
      <trkpt lat="44.68137" lon="6.9632">
        <ele>2802.38</ele>
        <time>2021-08-17T11:53:50Z</time>
      </trkpt>
      <trkpt lat="44.6814" lon="6.96318">
        <ele>2802.38</ele>
        <time>2021-08-17T11:54:01Z</time>
      </trkpt>
      <trkpt lat="44.68141" lon="6.96317">
        <ele>2802.38</ele>
        <time>2021-08-17T11:54:02Z</time>
      </trkpt>
      <trkpt lat="44.68144" lon="6.96323">
        <ele>2800.46</ele>
        <time>2021-08-17T11:54:09Z</time>
      </trkpt>
      <trkpt lat="44.68143" lon="6.96329">
        <ele>2799.02</ele>
        <time>2021-08-17T11:54:17Z</time>
      </trkpt>
      <trkpt lat="44.68143" lon="6.96329">
        <ele>2799.5</ele>
        <time>2021-08-17T11:54:25Z</time>
      </trkpt>
      <trkpt lat="44.68143" lon="6.96329">
        <ele>2799.5</ele>
        <time>2021-08-17T11:54:27Z</time>
      </trkpt>
      <trkpt lat="44.68138" lon="6.96338">
        <ele>2797.57</ele>
        <time>2021-08-17T11:54:36Z</time>
      </trkpt>
      <trkpt lat="44.68138" lon="6.96346">
        <ele>2795.17</ele>
        <time>2021-08-17T11:54:43Z</time>
      </trkpt>
      <trkpt lat="44.68137" lon="6.96351">
        <ele>2793.73</ele>
        <time>2021-08-17T11:54:49Z</time>
      </trkpt>
      <trkpt lat="44.68134" lon="6.96355">
        <ele>2792.29</ele>
        <time>2021-08-17T11:54:57Z</time>
      </trkpt>
      <trkpt lat="44.6813" lon="6.96358">
        <ele>2791.33</ele>
        <time>2021-08-17T11:55:06Z</time>
      </trkpt>
      <trkpt lat="44.68129" lon="6.96364">
        <ele>2790.36</ele>
        <time>2021-08-17T11:55:13Z</time>
      </trkpt>
      <trkpt lat="44.68127" lon="6.96369">
        <ele>2789.4</ele>
        <time>2021-08-17T11:55:20Z</time>
      </trkpt>
      <trkpt lat="44.68127" lon="6.96377">
        <ele>2788.92</ele>
        <time>2021-08-17T11:55:27Z</time>
      </trkpt>
      <trkpt lat="44.68125" lon="6.96387">
        <ele>2788.92</ele>
        <time>2021-08-17T11:55:35Z</time>
      </trkpt>
      <trkpt lat="44.68122" lon="6.96394">
        <ele>2789.88</ele>
        <time>2021-08-17T11:55:43Z</time>
      </trkpt>
      <trkpt lat="44.68121" lon="6.96399">
        <ele>2788.44</ele>
        <time>2021-08-17T11:55:50Z</time>
      </trkpt>
      <trkpt lat="44.68119" lon="6.96406">
        <ele>2787.48</ele>
        <time>2021-08-17T11:55:59Z</time>
      </trkpt>
      <trkpt lat="44.68116" lon="6.96417">
        <ele>2786.04</ele>
        <time>2021-08-17T11:56:08Z</time>
      </trkpt>
      <trkpt lat="44.68113" lon="6.96424">
        <ele>2784.6</ele>
        <time>2021-08-17T11:56:17Z</time>
      </trkpt>
      <trkpt lat="44.6811" lon="6.96429">
        <ele>2784.12</ele>
        <time>2021-08-17T11:56:24Z</time>
      </trkpt>
      <trkpt lat="44.68108" lon="6.96436">
        <ele>2783.15</ele>
        <time>2021-08-17T11:56:31Z</time>
      </trkpt>
      <trkpt lat="44.68104" lon="6.96439">
        <ele>2782.67</ele>
        <time>2021-08-17T11:56:39Z</time>
      </trkpt>
      <trkpt lat="44.68101" lon="6.96444">
        <ele>2782.19</ele>
        <time>2021-08-17T11:56:47Z</time>
      </trkpt>
      <trkpt lat="44.68098" lon="6.96451">
        <ele>2781.71</ele>
        <time>2021-08-17T11:56:57Z</time>
      </trkpt>
      <trkpt lat="44.68094" lon="6.96458">
        <ele>2780.75</ele>
        <time>2021-08-17T11:57:05Z</time>
      </trkpt>
      <trkpt lat="44.68094" lon="6.96468">
        <ele>2779.79</ele>
        <time>2021-08-17T11:57:14Z</time>
      </trkpt>
      <trkpt lat="44.68099" lon="6.96477">
        <ele>2776.91</ele>
        <time>2021-08-17T11:57:23Z</time>
      </trkpt>
      <trkpt lat="44.68101" lon="6.9648">
        <ele>2774.98</ele>
        <time>2021-08-17T11:57:31Z</time>
      </trkpt>
      <trkpt lat="44.68102" lon="6.96483">
        <ele>2773.54</ele>
        <time>2021-08-17T11:57:38Z</time>
      </trkpt>
      <trkpt lat="44.68104" lon="6.96484">
        <ele>2772.1</ele>
        <time>2021-08-17T11:57:44Z</time>
      </trkpt>
      <trkpt lat="44.68106" lon="6.9649">
        <ele>2771.14</ele>
        <time>2021-08-17T11:57:51Z</time>
      </trkpt>
      <trkpt lat="44.68106" lon="6.96496">
        <ele>2769.7</ele>
        <time>2021-08-17T11:57:58Z</time>
      </trkpt>
      <trkpt lat="44.68107" lon="6.96503">
        <ele>2769.7</ele>
        <time>2021-08-17T11:58:06Z</time>
      </trkpt>
      <trkpt lat="44.68106" lon="6.96504">
        <ele>2768.73</ele>
        <time>2021-08-17T11:58:15Z</time>
      </trkpt>
      <trkpt lat="44.68107" lon="6.96504">
        <ele>2767.77</ele>
        <time>2021-08-17T11:58:30Z</time>
      </trkpt>
      <trkpt lat="44.68108" lon="6.96502">
        <ele>2767.29</ele>
        <time>2021-08-17T11:58:41Z</time>
      </trkpt>
      <trkpt lat="44.68106" lon="6.965">
        <ele>2766.33</ele>
        <time>2021-08-17T11:58:54Z</time>
      </trkpt>
      <trkpt lat="44.68106" lon="6.96508">
        <ele>2766.81</ele>
        <time>2021-08-17T11:59:01Z</time>
      </trkpt>
      <trkpt lat="44.68106" lon="6.96516">
        <ele>2764.89</ele>
        <time>2021-08-17T11:59:09Z</time>
      </trkpt>
      <trkpt lat="44.68106" lon="6.96522">
        <ele>2763.45</ele>
        <time>2021-08-17T11:59:17Z</time>
      </trkpt>
      <trkpt lat="44.68105" lon="6.9653">
        <ele>2762.49</ele>
        <time>2021-08-17T11:59:25Z</time>
      </trkpt>
      <trkpt lat="44.68104" lon="6.96536">
        <ele>2762.97</ele>
        <time>2021-08-17T11:59:31Z</time>
      </trkpt>
      <trkpt lat="44.68104" lon="6.96541">
        <ele>2762.49</ele>
        <time>2021-08-17T11:59:39Z</time>
      </trkpt>
      <trkpt lat="44.68102" lon="6.96547">
        <ele>2761.52</ele>
        <time>2021-08-17T11:59:46Z</time>
      </trkpt>
      <trkpt lat="44.68101" lon="6.96556">
        <ele>2760.08</ele>
        <time>2021-08-17T11:59:55Z</time>
      </trkpt>
      <trkpt lat="44.68101" lon="6.96563">
        <ele>2758.64</ele>
        <time>2021-08-17T12:00:03Z</time>
      </trkpt>
      <trkpt lat="44.681" lon="6.9657">
        <ele>2757.68</ele>
        <time>2021-08-17T12:00:11Z</time>
      </trkpt>
      <trkpt lat="44.68098" lon="6.96574">
        <ele>2757.2</ele>
        <time>2021-08-17T12:00:18Z</time>
      </trkpt>
      <trkpt lat="44.68098" lon="6.96577">
        <ele>2757.2</ele>
        <time>2021-08-17T12:00:24Z</time>
      </trkpt>
      <trkpt lat="44.68097" lon="6.96577">
        <ele>2757.2</ele>
        <time>2021-08-17T12:00:26Z</time>
      </trkpt>
      <trkpt lat="44.68094" lon="6.96582">
        <ele>2758.16</ele>
        <time>2021-08-17T12:00:33Z</time>
      </trkpt>
      <trkpt lat="44.68094" lon="6.96584">
        <ele>2758.64</ele>
        <time>2021-08-17T12:00:39Z</time>
      </trkpt>
      <trkpt lat="44.68092" lon="6.9659">
        <ele>2759.6</ele>
        <time>2021-08-17T12:00:45Z</time>
      </trkpt>
      <trkpt lat="44.68093" lon="6.96596">
        <ele>2760.56</ele>
        <time>2021-08-17T12:00:51Z</time>
      </trkpt>
      <trkpt lat="44.68094" lon="6.96602">
        <ele>2761.04</ele>
        <time>2021-08-17T12:00:58Z</time>
      </trkpt>
      <trkpt lat="44.68097" lon="6.96605">
        <ele>2760.56</ele>
        <time>2021-08-17T12:01:05Z</time>
      </trkpt>
      <trkpt lat="44.68099" lon="6.96608">
        <ele>2760.08</ele>
        <time>2021-08-17T12:01:11Z</time>
      </trkpt>
      <trkpt lat="44.68101" lon="6.96612">
        <ele>2759.12</ele>
        <time>2021-08-17T12:01:20Z</time>
      </trkpt>
      <trkpt lat="44.68101" lon="6.9662">
        <ele>2758.64</ele>
        <time>2021-08-17T12:01:29Z</time>
      </trkpt>
      <trkpt lat="44.681" lon="6.96628">
        <ele>2757.68</ele>
        <time>2021-08-17T12:01:36Z</time>
      </trkpt>
      <trkpt lat="44.68102" lon="6.96637">
        <ele>2757.2</ele>
        <time>2021-08-17T12:01:44Z</time>
      </trkpt>
      <trkpt lat="44.68106" lon="6.9664">
        <ele>2756.24</ele>
        <time>2021-08-17T12:01:51Z</time>
      </trkpt>
      <trkpt lat="44.68107" lon="6.96641">
        <ele>2754.8</ele>
        <time>2021-08-17T12:01:58Z</time>
      </trkpt>
      <trkpt lat="44.6811" lon="6.96645">
        <ele>2752.39</ele>
        <time>2021-08-17T12:02:05Z</time>
      </trkpt>
      <trkpt lat="44.68112" lon="6.96652">
        <ele>2750.95</ele>
        <time>2021-08-17T12:02:14Z</time>
      </trkpt>
      <trkpt lat="44.68111" lon="6.96661">
        <ele>2749.51</ele>
        <time>2021-08-17T12:02:22Z</time>
      </trkpt>
      <trkpt lat="44.68112" lon="6.9667">
        <ele>2747.59</ele>
        <time>2021-08-17T12:02:30Z</time>
      </trkpt>
      <trkpt lat="44.68111" lon="6.96676">
        <ele>2746.62</ele>
        <time>2021-08-17T12:02:38Z</time>
      </trkpt>
      <trkpt lat="44.68111" lon="6.9668">
        <ele>2746.62</ele>
        <time>2021-08-17T12:02:43Z</time>
      </trkpt>
      <trkpt lat="44.6811" lon="6.96684">
        <ele>2747.1</ele>
        <time>2021-08-17T12:02:48Z</time>
      </trkpt>
      <trkpt lat="44.6811" lon="6.96687">
        <ele>2748.07</ele>
        <time>2021-08-17T12:02:55Z</time>
      </trkpt>
      <trkpt lat="44.68115" lon="6.96691">
        <ele>2748.07</ele>
        <time>2021-08-17T12:03:05Z</time>
      </trkpt>
      <trkpt lat="44.68115" lon="6.96696">
        <ele>2747.59</ele>
        <time>2021-08-17T12:03:12Z</time>
      </trkpt>
      <trkpt lat="44.68112" lon="6.96703">
        <ele>2747.59</ele>
        <time>2021-08-17T12:03:19Z</time>
      </trkpt>
      <trkpt lat="44.68112" lon="6.96705">
        <ele>2748.07</ele>
        <time>2021-08-17T12:03:24Z</time>
      </trkpt>
      <trkpt lat="44.68114" lon="6.96711">
        <ele>2749.03</ele>
        <time>2021-08-17T12:03:32Z</time>
      </trkpt>
      <trkpt lat="44.68117" lon="6.96717">
        <ele>2749.03</ele>
        <time>2021-08-17T12:03:40Z</time>
      </trkpt>
      <trkpt lat="44.68116" lon="6.96719">
        <ele>2749.03</ele>
        <time>2021-08-17T12:03:48Z</time>
      </trkpt>
      <trkpt lat="44.68117" lon="6.96722">
        <ele>2749.03</ele>
        <time>2021-08-17T12:03:51Z</time>
      </trkpt>
      <trkpt lat="44.68117" lon="6.96727">
        <ele>2749.51</ele>
        <time>2021-08-17T12:03:57Z</time>
      </trkpt>
      <trkpt lat="44.68117" lon="6.96728">
        <ele>2749.51</ele>
        <time>2021-08-17T12:04:06Z</time>
      </trkpt>
      <trkpt lat="44.68117" lon="6.96729">
        <ele>2749.51</ele>
        <time>2021-08-17T12:04:21Z</time>
      </trkpt>
      <trkpt lat="44.68117" lon="6.96728">
        <ele>2750.47</ele>
        <time>2021-08-17T12:04:35Z</time>
      </trkpt>
      <trkpt lat="44.68117" lon="6.96727">
        <ele>2750.95</ele>
        <time>2021-08-17T12:04:44Z</time>
      </trkpt>
      <trkpt lat="44.68118" lon="6.9673">
        <ele>2750.47</ele>
        <time>2021-08-17T12:04:54Z</time>
      </trkpt>
      <trkpt lat="44.68118" lon="6.96739">
        <ele>2749.99</ele>
        <time>2021-08-17T12:05:02Z</time>
      </trkpt>
      <trkpt lat="44.68119" lon="6.96742">
        <ele>2750.47</ele>
        <time>2021-08-17T12:05:04Z</time>
      </trkpt>
      <trkpt lat="44.6812" lon="6.96751">
        <ele>2749.51</ele>
        <time>2021-08-17T12:05:13Z</time>
      </trkpt>
      <trkpt lat="44.6812" lon="6.96758">
        <ele>2749.51</ele>
        <time>2021-08-17T12:05:21Z</time>
      </trkpt>
      <trkpt lat="44.68121" lon="6.96768">
        <ele>2749.03</ele>
        <time>2021-08-17T12:05:29Z</time>
      </trkpt>
      <trkpt lat="44.68123" lon="6.96774">
        <ele>2747.59</ele>
        <time>2021-08-17T12:05:36Z</time>
      </trkpt>
      <trkpt lat="44.68125" lon="6.96779">
        <ele>2746.62</ele>
        <time>2021-08-17T12:05:43Z</time>
      </trkpt>
      <trkpt lat="44.68126" lon="6.96783">
        <ele>2745.66</ele>
        <time>2021-08-17T12:05:49Z</time>
      </trkpt>
      <trkpt lat="44.68126" lon="6.96786">
        <ele>2744.22</ele>
        <time>2021-08-17T12:06:00Z</time>
      </trkpt>
      <trkpt lat="44.68125" lon="6.96791">
        <ele>2743.74</ele>
        <time>2021-08-17T12:06:09Z</time>
      </trkpt>
      <trkpt lat="44.68125" lon="6.96794">
        <ele>2744.22</ele>
        <time>2021-08-17T12:06:15Z</time>
      </trkpt>
      <trkpt lat="44.68129" lon="6.96801">
        <ele>2742.78</ele>
        <time>2021-08-17T12:06:22Z</time>
      </trkpt>
      <trkpt lat="44.68131" lon="6.96812">
        <ele>2740.38</ele>
        <time>2021-08-17T12:06:31Z</time>
      </trkpt>
      <trkpt lat="44.68131" lon="6.96817">
        <ele>2739.41</ele>
        <time>2021-08-17T12:06:37Z</time>
      </trkpt>
      <trkpt lat="44.68132" lon="6.96824">
        <ele>2738.45</ele>
        <time>2021-08-17T12:06:45Z</time>
      </trkpt>
      <trkpt lat="44.68131" lon="6.9683">
        <ele>2738.45</ele>
        <time>2021-08-17T12:06:50Z</time>
      </trkpt>
      <trkpt lat="44.6813" lon="6.96834">
        <ele>2738.93</ele>
        <time>2021-08-17T12:06:57Z</time>
      </trkpt>
      <trkpt lat="44.68131" lon="6.96841">
        <ele>2738.45</ele>
        <time>2021-08-17T12:07:05Z</time>
      </trkpt>
      <trkpt lat="44.6813" lon="6.96844">
        <ele>2737.97</ele>
        <time>2021-08-17T12:07:09Z</time>
      </trkpt>
      <trkpt lat="44.68129" lon="6.96852">
        <ele>2737.97</ele>
        <time>2021-08-17T12:07:17Z</time>
      </trkpt>
      <trkpt lat="44.68128" lon="6.96858">
        <ele>2738.45</ele>
        <time>2021-08-17T12:07:23Z</time>
      </trkpt>
      <trkpt lat="44.68129" lon="6.96865">
        <ele>2739.89</ele>
        <time>2021-08-17T12:07:29Z</time>
      </trkpt>
      <trkpt lat="44.68132" lon="6.96872">
        <ele>2740.38</ele>
        <time>2021-08-17T12:07:35Z</time>
      </trkpt>
      <trkpt lat="44.68132" lon="6.96881">
        <ele>2740.38</ele>
        <time>2021-08-17T12:07:42Z</time>
      </trkpt>
      <trkpt lat="44.68132" lon="6.96884">
        <ele>2740.38</ele>
        <time>2021-08-17T12:07:44Z</time>
      </trkpt>
      <trkpt lat="44.68136" lon="6.96892">
        <ele>2737.97</ele>
        <time>2021-08-17T12:07:51Z</time>
      </trkpt>
      <trkpt lat="44.68137" lon="6.96896">
        <ele>2737.01</ele>
        <time>2021-08-17T12:07:57Z</time>
      </trkpt>
      <trkpt lat="44.68139" lon="6.96903">
        <ele>2734.61</ele>
        <time>2021-08-17T12:08:03Z</time>
      </trkpt>
      <trkpt lat="44.6814" lon="6.96908">
        <ele>2732.2</ele>
        <time>2021-08-17T12:08:09Z</time>
      </trkpt>
      <trkpt lat="44.68139" lon="6.96914">
        <ele>2729.8</ele>
        <time>2021-08-17T12:08:17Z</time>
      </trkpt>
      <trkpt lat="44.68138" lon="6.9692">
        <ele>2728.84</ele>
        <time>2021-08-17T12:08:23Z</time>
      </trkpt>
      <trkpt lat="44.68139" lon="6.96926">
        <ele>2728.84</ele>
        <time>2021-08-17T12:08:30Z</time>
      </trkpt>
      <trkpt lat="44.68139" lon="6.96929">
        <ele>2728.84</ele>
        <time>2021-08-17T12:08:33Z</time>
      </trkpt>
      <trkpt lat="44.68137" lon="6.96938">
        <ele>2729.32</ele>
        <time>2021-08-17T12:08:41Z</time>
      </trkpt>
      <trkpt lat="44.68136" lon="6.96943">
        <ele>2729.8</ele>
        <time>2021-08-17T12:08:49Z</time>
      </trkpt>
      <trkpt lat="44.68136" lon="6.96949">
        <ele>2731.72</ele>
        <time>2021-08-17T12:08:56Z</time>
      </trkpt>
      <trkpt lat="44.68136" lon="6.96952">
        <ele>2733.65</ele>
        <time>2021-08-17T12:09:03Z</time>
      </trkpt>
      <trkpt lat="44.68137" lon="6.9695">
        <ele>2735.09</ele>
        <time>2021-08-17T12:09:09Z</time>
      </trkpt>
      <trkpt lat="44.6814" lon="6.96949">
        <ele>2736.05</ele>
        <time>2021-08-17T12:09:19Z</time>
      </trkpt>
      <trkpt lat="44.68139" lon="6.9695">
        <ele>2736.05</ele>
        <time>2021-08-17T12:09:27Z</time>
      </trkpt>
      <trkpt lat="44.68139" lon="6.96949">
        <ele>2735.57</ele>
        <time>2021-08-17T12:09:36Z</time>
      </trkpt>
      <trkpt lat="44.68139" lon="6.9695">
        <ele>2735.57</ele>
        <time>2021-08-17T12:09:47Z</time>
      </trkpt>
      <trkpt lat="44.6814" lon="6.9695">
        <ele>2735.57</ele>
        <time>2021-08-17T12:09:56Z</time>
      </trkpt>
      <trkpt lat="44.6814" lon="6.96951">
        <ele>2735.09</ele>
        <time>2021-08-17T12:10:06Z</time>
      </trkpt>
      <trkpt lat="44.6814" lon="6.96952">
        <ele>2734.61</ele>
        <time>2021-08-17T12:10:20Z</time>
      </trkpt>
      <trkpt lat="44.68138" lon="6.96959">
        <ele>2734.13</ele>
        <time>2021-08-17T12:10:27Z</time>
      </trkpt>
      <trkpt lat="44.68135" lon="6.96962">
        <ele>2735.09</ele>
        <time>2021-08-17T12:10:33Z</time>
      </trkpt>
      <trkpt lat="44.68135" lon="6.9697">
        <ele>2735.57</ele>
        <time>2021-08-17T12:10:39Z</time>
      </trkpt>
      <trkpt lat="44.68137" lon="6.96978">
        <ele>2735.09</ele>
        <time>2021-08-17T12:10:46Z</time>
      </trkpt>
      <trkpt lat="44.68136" lon="6.96986">
        <ele>2734.13</ele>
        <time>2021-08-17T12:10:54Z</time>
      </trkpt>
      <trkpt lat="44.68137" lon="6.96994">
        <ele>2733.65</ele>
        <time>2021-08-17T12:11:01Z</time>
      </trkpt>
      <trkpt lat="44.68138" lon="6.97003">
        <ele>2734.13</ele>
        <time>2021-08-17T12:11:10Z</time>
      </trkpt>
      <trkpt lat="44.68143" lon="6.9701">
        <ele>2734.61</ele>
        <time>2021-08-17T12:11:19Z</time>
      </trkpt>
      <trkpt lat="44.68145" lon="6.97014">
        <ele>2734.61</ele>
        <time>2021-08-17T12:11:27Z</time>
      </trkpt>
      <trkpt lat="44.68149" lon="6.97021">
        <ele>2733.17</ele>
        <time>2021-08-17T12:11:35Z</time>
      </trkpt>
      <trkpt lat="44.68151" lon="6.97025">
        <ele>2731.24</ele>
        <time>2021-08-17T12:11:42Z</time>
      </trkpt>
      <trkpt lat="44.68151" lon="6.97028">
        <ele>2728.36</ele>
        <time>2021-08-17T12:11:50Z</time>
      </trkpt>
      <trkpt lat="44.68148" lon="6.97037">
        <ele>2725.96</ele>
        <time>2021-08-17T12:11:58Z</time>
      </trkpt>
      <trkpt lat="44.68151" lon="6.97044">
        <ele>2724.03</ele>
        <time>2021-08-17T12:12:05Z</time>
      </trkpt>
      <trkpt lat="44.68153" lon="6.97051">
        <ele>2721.63</ele>
        <time>2021-08-17T12:12:11Z</time>
      </trkpt>
      <trkpt lat="44.68154" lon="6.97052">
        <ele>2718.75</ele>
        <time>2021-08-17T12:12:17Z</time>
      </trkpt>
      <trkpt lat="44.68156" lon="6.97053">
        <ele>2716.34</ele>
        <time>2021-08-17T12:12:23Z</time>
      </trkpt>
      <trkpt lat="44.68153" lon="6.97059">
        <ele>2712.98</ele>
        <time>2021-08-17T12:12:30Z</time>
      </trkpt>
      <trkpt lat="44.68155" lon="6.97066">
        <ele>2711.54</ele>
        <time>2021-08-17T12:12:36Z</time>
      </trkpt>
      <trkpt lat="44.68156" lon="6.97072">
        <ele>2710.09</ele>
        <time>2021-08-17T12:12:44Z</time>
      </trkpt>
      <trkpt lat="44.68161" lon="6.97077">
        <ele>2708.17</ele>
        <time>2021-08-17T12:12:50Z</time>
      </trkpt>
      <trkpt lat="44.68162" lon="6.97079">
        <ele>2706.25</ele>
        <time>2021-08-17T12:12:56Z</time>
      </trkpt>
      <trkpt lat="44.68161" lon="6.97085">
        <ele>2705.29</ele>
        <time>2021-08-17T12:13:03Z</time>
      </trkpt>
      <trkpt lat="44.68164" lon="6.97091">
        <ele>2702.88</ele>
        <time>2021-08-17T12:13:09Z</time>
      </trkpt>
      <trkpt lat="44.68166" lon="6.97097">
        <ele>2702.4</ele>
        <time>2021-08-17T12:13:14Z</time>
      </trkpt>
      <trkpt lat="44.68167" lon="6.97102">
        <ele>2702.88</ele>
        <time>2021-08-17T12:13:20Z</time>
      </trkpt>
      <trkpt lat="44.68168" lon="6.97106">
        <ele>2703.36</ele>
        <time>2021-08-17T12:13:26Z</time>
      </trkpt>
      <trkpt lat="44.68169" lon="6.97114">
        <ele>2702.88</ele>
        <time>2021-08-17T12:13:33Z</time>
      </trkpt>
      <trkpt lat="44.68172" lon="6.97116">
        <ele>2702.4</ele>
        <time>2021-08-17T12:13:39Z</time>
      </trkpt>
      <trkpt lat="44.68175" lon="6.97118">
        <ele>2701.44</ele>
        <time>2021-08-17T12:13:48Z</time>
      </trkpt>
      <trkpt lat="44.68176" lon="6.97121">
        <ele>2701.92</ele>
        <time>2021-08-17T12:13:55Z</time>
      </trkpt>
      <trkpt lat="44.68175" lon="6.97127">
        <ele>2700.96</ele>
        <time>2021-08-17T12:14:02Z</time>
      </trkpt>
      <trkpt lat="44.68175" lon="6.97129">
        <ele>2701.92</ele>
        <time>2021-08-17T12:14:08Z</time>
      </trkpt>
      <trkpt lat="44.68176" lon="6.97133">
        <ele>2701.44</ele>
        <time>2021-08-17T12:14:23Z</time>
      </trkpt>
      <trkpt lat="44.68175" lon="6.97141">
        <ele>2700.48</ele>
        <time>2021-08-17T12:14:27Z</time>
      </trkpt>
      <trkpt lat="44.68177" lon="6.97145">
        <ele>2699.52</ele>
        <time>2021-08-17T12:14:32Z</time>
      </trkpt>
      <trkpt lat="44.68179" lon="6.97152">
        <ele>2698.56</ele>
        <time>2021-08-17T12:14:39Z</time>
      </trkpt>
      <trkpt lat="44.68179" lon="6.97155">
        <ele>2698.08</ele>
        <time>2021-08-17T12:14:45Z</time>
      </trkpt>
      <trkpt lat="44.68178" lon="6.97156">
        <ele>2697.6</ele>
        <time>2021-08-17T12:14:56Z</time>
      </trkpt>
      <trkpt lat="44.6818" lon="6.97157">
        <ele>2697.6</ele>
        <time>2021-08-17T12:15:08Z</time>
      </trkpt>
      <trkpt lat="44.68185" lon="6.9716">
        <ele>2697.12</ele>
        <time>2021-08-17T12:15:14Z</time>
      </trkpt>
      <trkpt lat="44.68191" lon="6.97165">
        <ele>2696.15</ele>
        <time>2021-08-17T12:15:22Z</time>
      </trkpt>
      <trkpt lat="44.68195" lon="6.97169">
        <ele>2699.04</ele>
        <time>2021-08-17T12:15:30Z</time>
      </trkpt>
      <trkpt lat="44.68195" lon="6.97177">
        <ele>2698.08</ele>
        <time>2021-08-17T12:15:37Z</time>
      </trkpt>
      <trkpt lat="44.68197" lon="6.97182">
        <ele>2698.08</ele>
        <time>2021-08-17T12:15:43Z</time>
      </trkpt>
      <trkpt lat="44.682" lon="6.97187">
        <ele>2697.6</ele>
        <time>2021-08-17T12:15:50Z</time>
      </trkpt>
      <trkpt lat="44.68202" lon="6.97188">
        <ele>2696.64</ele>
        <time>2021-08-17T12:15:55Z</time>
      </trkpt>
      <trkpt lat="44.68206" lon="6.97194">
        <ele>2696.15</ele>
        <time>2021-08-17T12:16:02Z</time>
      </trkpt>
      <trkpt lat="44.68206" lon="6.97194">
        <ele>2696.15</ele>
        <time>2021-08-17T12:16:03Z</time>
      </trkpt>
      <trkpt lat="44.68209" lon="6.97196">
        <ele>2697.12</ele>
        <time>2021-08-17T12:16:10Z</time>
      </trkpt>
      <trkpt lat="44.68212" lon="6.972">
        <ele>2695.19</ele>
        <time>2021-08-17T12:16:17Z</time>
      </trkpt>
      <trkpt lat="44.68215" lon="6.97203">
        <ele>2693.75</ele>
        <time>2021-08-17T12:16:23Z</time>
      </trkpt>
      <trkpt lat="44.68219" lon="6.97207">
        <ele>2693.75</ele>
        <time>2021-08-17T12:16:29Z</time>
      </trkpt>
      <trkpt lat="44.68221" lon="6.97209">
        <ele>2693.27</ele>
        <time>2021-08-17T12:16:34Z</time>
      </trkpt>
      <trkpt lat="44.68223" lon="6.9721">
        <ele>2692.79</ele>
        <time>2021-08-17T12:16:40Z</time>
      </trkpt>
      <trkpt lat="44.68226" lon="6.97214">
        <ele>2690.39</ele>
        <time>2021-08-17T12:16:48Z</time>
      </trkpt>
      <trkpt lat="44.68229" lon="6.97223">
        <ele>2686.54</ele>
        <time>2021-08-17T12:16:57Z</time>
      </trkpt>
      <trkpt lat="44.68234" lon="6.97228">
        <ele>2687.98</ele>
        <time>2021-08-17T12:17:03Z</time>
      </trkpt>
      <trkpt lat="44.68239" lon="6.97231">
        <ele>2687.98</ele>
        <time>2021-08-17T12:17:10Z</time>
      </trkpt>
      <trkpt lat="44.68243" lon="6.97233">
        <ele>2688.46</ele>
        <time>2021-08-17T12:17:16Z</time>
      </trkpt>
      <trkpt lat="44.68246" lon="6.97235">
        <ele>2687.98</ele>
        <time>2021-08-17T12:17:22Z</time>
      </trkpt>
      <trkpt lat="44.68249" lon="6.97238">
        <ele>2687.98</ele>
        <time>2021-08-17T12:17:28Z</time>
      </trkpt>
      <trkpt lat="44.68251" lon="6.97241">
        <ele>2687.02</ele>
        <time>2021-08-17T12:17:33Z</time>
      </trkpt>
      <trkpt lat="44.68257" lon="6.97241">
        <ele>2687.02</ele>
        <time>2021-08-17T12:17:40Z</time>
      </trkpt>
      <trkpt lat="44.6826" lon="6.97245">
        <ele>2687.5</ele>
        <time>2021-08-17T12:17:48Z</time>
      </trkpt>
      <trkpt lat="44.68266" lon="6.97249">
        <ele>2687.02</ele>
        <time>2021-08-17T12:17:55Z</time>
      </trkpt>
      <trkpt lat="44.6827" lon="6.97251">
        <ele>2687.02</ele>
        <time>2021-08-17T12:18:01Z</time>
      </trkpt>
      <trkpt lat="44.68275" lon="6.97252">
        <ele>2684.62</ele>
        <time>2021-08-17T12:18:09Z</time>
      </trkpt>
      <trkpt lat="44.68279" lon="6.97253">
        <ele>2683.66</ele>
        <time>2021-08-17T12:18:12Z</time>
      </trkpt>
      <trkpt lat="44.68286" lon="6.97255">
        <ele>2682.22</ele>
        <time>2021-08-17T12:18:20Z</time>
      </trkpt>
      <trkpt lat="44.68288" lon="6.97262">
        <ele>2681.25</ele>
        <time>2021-08-17T12:18:26Z</time>
      </trkpt>
      <trkpt lat="44.68287" lon="6.97262">
        <ele>2681.25</ele>
        <time>2021-08-17T12:18:27Z</time>
      </trkpt>
      <trkpt lat="44.68286" lon="6.97271">
        <ele>2680.77</ele>
        <time>2021-08-17T12:18:36Z</time>
      </trkpt>
      <trkpt lat="44.68287" lon="6.97272">
        <ele>2680.77</ele>
        <time>2021-08-17T12:18:38Z</time>
      </trkpt>
      <trkpt lat="44.68289" lon="6.9728">
        <ele>2680.29</ele>
        <time>2021-08-17T12:18:44Z</time>
      </trkpt>
      <trkpt lat="44.68291" lon="6.97282">
        <ele>2679.81</ele>
        <time>2021-08-17T12:18:51Z</time>
      </trkpt>
      <trkpt lat="44.68292" lon="6.97286">
        <ele>2678.85</ele>
        <time>2021-08-17T12:18:57Z</time>
      </trkpt>
      <trkpt lat="44.68293" lon="6.97293">
        <ele>2678.85</ele>
        <time>2021-08-17T12:19:03Z</time>
      </trkpt>
      <trkpt lat="44.68296" lon="6.97302">
        <ele>2676.45</ele>
        <time>2021-08-17T12:19:10Z</time>
      </trkpt>
      <trkpt lat="44.68297" lon="6.97306">
        <ele>2675.01</ele>
        <time>2021-08-17T12:19:17Z</time>
      </trkpt>
      <trkpt lat="44.68297" lon="6.97307">
        <ele>2673.56</ele>
        <time>2021-08-17T12:19:22Z</time>
      </trkpt>
      <trkpt lat="44.68296" lon="6.97312">
        <ele>2674.04</ele>
        <time>2021-08-17T12:19:24Z</time>
      </trkpt>
      <trkpt lat="44.68297" lon="6.97327">
        <ele>2673.56</ele>
        <time>2021-08-17T12:19:33Z</time>
      </trkpt>
      <trkpt lat="44.68299" lon="6.9733">
        <ele>2674.52</ele>
        <time>2021-08-17T12:19:37Z</time>
      </trkpt>
      <trkpt lat="44.68305" lon="6.97338">
        <ele>2673.08</ele>
        <time>2021-08-17T12:19:45Z</time>
      </trkpt>
      <trkpt lat="44.68308" lon="6.9734">
        <ele>2672.6</ele>
        <time>2021-08-17T12:19:50Z</time>
      </trkpt>
      <trkpt lat="44.68314" lon="6.97345">
        <ele>2671.64</ele>
        <time>2021-08-17T12:19:57Z</time>
      </trkpt>
      <trkpt lat="44.68314" lon="6.97346">
        <ele>2671.16</ele>
        <time>2021-08-17T12:19:58Z</time>
      </trkpt>
      <trkpt lat="44.68321" lon="6.9735">
        <ele>2671.16</ele>
        <time>2021-08-17T12:20:04Z</time>
      </trkpt>
      <trkpt lat="44.68327" lon="6.97354">
        <ele>2669.72</ele>
        <time>2021-08-17T12:20:11Z</time>
      </trkpt>
      <trkpt lat="44.6833" lon="6.97359">
        <ele>2669.24</ele>
        <time>2021-08-17T12:20:19Z</time>
      </trkpt>
      <trkpt lat="44.68335" lon="6.97362">
        <ele>2667.8</ele>
        <time>2021-08-17T12:20:25Z</time>
      </trkpt>
      <trkpt lat="44.68337" lon="6.97364">
        <ele>2667.31</ele>
        <time>2021-08-17T12:20:30Z</time>
      </trkpt>
      <trkpt lat="44.68341" lon="6.97367">
        <ele>2666.35</ele>
        <time>2021-08-17T12:20:36Z</time>
      </trkpt>
      <trkpt lat="44.68343" lon="6.97369">
        <ele>2664.91</ele>
        <time>2021-08-17T12:20:40Z</time>
      </trkpt>
      <trkpt lat="44.68351" lon="6.97374">
        <ele>2664.43</ele>
        <time>2021-08-17T12:20:47Z</time>
      </trkpt>
      <trkpt lat="44.68358" lon="6.97375">
        <ele>2663.95</ele>
        <time>2021-08-17T12:20:53Z</time>
      </trkpt>
      <trkpt lat="44.68364" lon="6.9738">
        <ele>2662.99</ele>
        <time>2021-08-17T12:21:00Z</time>
      </trkpt>
      <trkpt lat="44.68366" lon="6.97382">
        <ele>2662.51</ele>
        <time>2021-08-17T12:21:05Z</time>
      </trkpt>
      <trkpt lat="44.6837" lon="6.97385">
        <ele>2662.03</ele>
        <time>2021-08-17T12:21:12Z</time>
      </trkpt>
      <trkpt lat="44.68375" lon="6.97387">
        <ele>2660.59</ele>
        <time>2021-08-17T12:21:18Z</time>
      </trkpt>
      <trkpt lat="44.68377" lon="6.97387">
        <ele>2660.59</ele>
        <time>2021-08-17T12:21:19Z</time>
      </trkpt>
      <trkpt lat="44.68382" lon="6.97389">
        <ele>2660.11</ele>
        <time>2021-08-17T12:21:25Z</time>
      </trkpt>
      <trkpt lat="44.68389" lon="6.97392">
        <ele>2659.14</ele>
        <time>2021-08-17T12:21:31Z</time>
      </trkpt>
      <trkpt lat="44.68391" lon="6.97393">
        <ele>2659.14</ele>
        <time>2021-08-17T12:21:34Z</time>
      </trkpt>
      <trkpt lat="44.68398" lon="6.97398">
        <ele>2658.66</ele>
        <time>2021-08-17T12:21:41Z</time>
      </trkpt>
      <trkpt lat="44.68406" lon="6.97401">
        <ele>2658.66</ele>
        <time>2021-08-17T12:21:48Z</time>
      </trkpt>
      <trkpt lat="44.68407" lon="6.97401">
        <ele>2658.66</ele>
        <time>2021-08-17T12:21:49Z</time>
      </trkpt>
      <trkpt lat="44.68411" lon="6.97404">
        <ele>2658.66</ele>
        <time>2021-08-17T12:21:55Z</time>
      </trkpt>
      <trkpt lat="44.68414" lon="6.97406">
        <ele>2659.14</ele>
        <time>2021-08-17T12:22:00Z</time>
      </trkpt>
      <trkpt lat="44.68415" lon="6.97403">
        <ele>2659.62</ele>
        <time>2021-08-17T12:22:09Z</time>
      </trkpt>
      <trkpt lat="44.68414" lon="6.97397">
        <ele>2659.14</ele>
        <time>2021-08-17T12:22:14Z</time>
      </trkpt>
      <trkpt lat="44.68414" lon="6.97394">
        <ele>2658.66</ele>
        <time>2021-08-17T12:22:17Z</time>
      </trkpt>
      <trkpt lat="44.68411" lon="6.9739">
        <ele>2657.7</ele>
        <time>2021-08-17T12:22:21Z</time>
      </trkpt>
      <trkpt lat="44.68409" lon="6.97384">
        <ele>2657.22</ele>
        <time>2021-08-17T12:22:26Z</time>
      </trkpt>
      <trkpt lat="44.68408" lon="6.97376">
        <ele>2656.74</ele>
        <time>2021-08-17T12:22:33Z</time>
      </trkpt>
      <trkpt lat="44.68407" lon="6.97369">
        <ele>2656.26</ele>
        <time>2021-08-17T12:22:38Z</time>
      </trkpt>
      <trkpt lat="44.68404" lon="6.9736">
        <ele>2654.34</ele>
        <time>2021-08-17T12:22:45Z</time>
      </trkpt>
      <trkpt lat="44.68403" lon="6.97357">
        <ele>2653.86</ele>
        <time>2021-08-17T12:22:49Z</time>
      </trkpt>
      <trkpt lat="44.68399" lon="6.9735">
        <ele>2652.42</ele>
        <time>2021-08-17T12:22:56Z</time>
      </trkpt>
      <trkpt lat="44.68397" lon="6.97348">
        <ele>2651.93</ele>
        <time>2021-08-17T12:23:01Z</time>
      </trkpt>
      <trkpt lat="44.68395" lon="6.97346">
        <ele>2651.93</ele>
        <time>2021-08-17T12:23:03Z</time>
      </trkpt>
      <trkpt lat="44.68393" lon="6.97338">
        <ele>2650.01</ele>
        <time>2021-08-17T12:23:09Z</time>
      </trkpt>
      <trkpt lat="44.68391" lon="6.97335">
        <ele>2649.05</ele>
        <time>2021-08-17T12:23:12Z</time>
      </trkpt>
      <trkpt lat="44.6839" lon="6.97328">
        <ele>2645.69</ele>
        <time>2021-08-17T12:23:18Z</time>
      </trkpt>
      <trkpt lat="44.6839" lon="6.97328">
        <ele>2645.69</ele>
        <time>2021-08-17T12:23:19Z</time>
      </trkpt>
      <trkpt lat="44.68389" lon="6.97326">
        <ele>2645.21</ele>
        <time>2021-08-17T12:23:21Z</time>
      </trkpt>
      <trkpt lat="44.68389" lon="6.97323">
        <ele>2645.21</ele>
        <time>2021-08-17T12:23:24Z</time>
      </trkpt>
      <trkpt lat="44.68399" lon="6.97324">
        <ele>2643.28</ele>
        <time>2021-08-17T12:23:32Z</time>
      </trkpt>
      <trkpt lat="44.68405" lon="6.97327">
        <ele>2642.32</ele>
        <time>2021-08-17T12:23:39Z</time>
      </trkpt>
      <trkpt lat="44.68412" lon="6.97331">
        <ele>2641.84</ele>
        <time>2021-08-17T12:23:47Z</time>
      </trkpt>
      <trkpt lat="44.68418" lon="6.97334">
        <ele>2640.88</ele>
        <time>2021-08-17T12:23:54Z</time>
      </trkpt>
      <trkpt lat="44.68419" lon="6.97336">
        <ele>2640.88</ele>
        <time>2021-08-17T12:23:56Z</time>
      </trkpt>
      <trkpt lat="44.68423" lon="6.97341">
        <ele>2638.96</ele>
        <time>2021-08-17T12:24:03Z</time>
      </trkpt>
      <trkpt lat="44.6843" lon="6.97346">
        <ele>2637.99</ele>
        <time>2021-08-17T12:24:11Z</time>
      </trkpt>
      <trkpt lat="44.68434" lon="6.97353">
        <ele>2637.99</ele>
        <time>2021-08-17T12:24:17Z</time>
      </trkpt>
      <trkpt lat="44.68437" lon="6.97357">
        <ele>2637.03</ele>
        <time>2021-08-17T12:24:22Z</time>
      </trkpt>
      <trkpt lat="44.68442" lon="6.97365">
        <ele>2637.03</ele>
        <time>2021-08-17T12:24:31Z</time>
      </trkpt>
      <trkpt lat="44.68449" lon="6.97371">
        <ele>2635.59</ele>
        <time>2021-08-17T12:24:38Z</time>
      </trkpt>
      <trkpt lat="44.68454" lon="6.97376">
        <ele>2634.63</ele>
        <time>2021-08-17T12:24:46Z</time>
      </trkpt>
      <trkpt lat="44.68459" lon="6.9738">
        <ele>2633.19</ele>
        <time>2021-08-17T12:24:53Z</time>
      </trkpt>
      <trkpt lat="44.6846" lon="6.97383">
        <ele>2631.75</ele>
        <time>2021-08-17T12:24:59Z</time>
      </trkpt>
      <trkpt lat="44.68463" lon="6.97389">
        <ele>2630.3</ele>
        <time>2021-08-17T12:25:05Z</time>
      </trkpt>
      <trkpt lat="44.68469" lon="6.97395">
        <ele>2629.34</ele>
        <time>2021-08-17T12:25:13Z</time>
      </trkpt>
      <trkpt lat="44.68472" lon="6.974">
        <ele>2629.34</ele>
        <time>2021-08-17T12:25:20Z</time>
      </trkpt>
      <trkpt lat="44.68477" lon="6.97407">
        <ele>2628.38</ele>
        <time>2021-08-17T12:25:27Z</time>
      </trkpt>
      <trkpt lat="44.68478" lon="6.97408">
        <ele>2628.38</ele>
        <time>2021-08-17T12:25:29Z</time>
      </trkpt>
      <trkpt lat="44.6848" lon="6.97412">
        <ele>2627.9</ele>
        <time>2021-08-17T12:25:32Z</time>
      </trkpt>
      <trkpt lat="44.68481" lon="6.97415">
        <ele>2626.94</ele>
        <time>2021-08-17T12:25:35Z</time>
      </trkpt>
      <trkpt lat="44.68486" lon="6.97418">
        <ele>2627.42</ele>
        <time>2021-08-17T12:25:41Z</time>
      </trkpt>
      <trkpt lat="44.68487" lon="6.97419">
        <ele>2627.42</ele>
        <time>2021-08-17T12:25:43Z</time>
      </trkpt>
      <trkpt lat="44.68493" lon="6.97426">
        <ele>2627.9</ele>
        <time>2021-08-17T12:25:50Z</time>
      </trkpt>
      <trkpt lat="44.68497" lon="6.97435">
        <ele>2625.98</ele>
        <time>2021-08-17T12:25:58Z</time>
      </trkpt>
      <trkpt lat="44.68498" lon="6.97442">
        <ele>2625.98</ele>
        <time>2021-08-17T12:26:05Z</time>
      </trkpt>
      <trkpt lat="44.68501" lon="6.97446">
        <ele>2626.46</ele>
        <time>2021-08-17T12:26:10Z</time>
      </trkpt>
      <trkpt lat="44.68506" lon="6.97451">
        <ele>2626.94</ele>
        <time>2021-08-17T12:26:14Z</time>
      </trkpt>
      <trkpt lat="44.68507" lon="6.97456">
        <ele>2627.42</ele>
        <time>2021-08-17T12:26:20Z</time>
      </trkpt>
      <trkpt lat="44.68509" lon="6.97458">
        <ele>2628.38</ele>
        <time>2021-08-17T12:26:23Z</time>
      </trkpt>
      <trkpt lat="44.6851" lon="6.97463">
        <ele>2627.9</ele>
        <time>2021-08-17T12:26:28Z</time>
      </trkpt>
      <trkpt lat="44.68509" lon="6.97471">
        <ele>2626.46</ele>
        <time>2021-08-17T12:26:34Z</time>
      </trkpt>
      <trkpt lat="44.68508" lon="6.97472">
        <ele>2627.42</ele>
        <time>2021-08-17T12:26:47Z</time>
      </trkpt>
      <trkpt lat="44.68511" lon="6.97473">
        <ele>2626.94</ele>
        <time>2021-08-17T12:26:54Z</time>
      </trkpt>
      <trkpt lat="44.68512" lon="6.97475">
        <ele>2626.94</ele>
        <time>2021-08-17T12:26:57Z</time>
      </trkpt>
      <trkpt lat="44.68519" lon="6.97477">
        <ele>2626.94</ele>
        <time>2021-08-17T12:27:05Z</time>
      </trkpt>
      <trkpt lat="44.68526" lon="6.97481">
        <ele>2627.42</ele>
        <time>2021-08-17T12:27:12Z</time>
      </trkpt>
      <trkpt lat="44.68528" lon="6.97482">
        <ele>2627.42</ele>
        <time>2021-08-17T12:27:14Z</time>
      </trkpt>
      <trkpt lat="44.6853" lon="6.97488">
        <ele>2627.42</ele>
        <time>2021-08-17T12:27:21Z</time>
      </trkpt>
      <trkpt lat="44.68529" lon="6.97495">
        <ele>2626.94</ele>
        <time>2021-08-17T12:27:29Z</time>
      </trkpt>
      <trkpt lat="44.68534" lon="6.97498">
        <ele>2626.46</ele>
        <time>2021-08-17T12:27:36Z</time>
      </trkpt>
      <trkpt lat="44.68539" lon="6.975">
        <ele>2625.98</ele>
        <time>2021-08-17T12:27:43Z</time>
      </trkpt>
      <trkpt lat="44.6854" lon="6.97501">
        <ele>2625.98</ele>
        <time>2021-08-17T12:27:44Z</time>
      </trkpt>
      <trkpt lat="44.68547" lon="6.97502">
        <ele>2624.54</ele>
        <time>2021-08-17T12:27:52Z</time>
      </trkpt>
      <trkpt lat="44.68553" lon="6.97506">
        <ele>2624.06</ele>
        <time>2021-08-17T12:27:59Z</time>
      </trkpt>
      <trkpt lat="44.68554" lon="6.97506">
        <ele>2624.06</ele>
        <time>2021-08-17T12:28:00Z</time>
      </trkpt>
      <trkpt lat="44.6856" lon="6.9751">
        <ele>2623.58</ele>
        <time>2021-08-17T12:28:07Z</time>
      </trkpt>
      <trkpt lat="44.68566" lon="6.97512">
        <ele>2623.09</ele>
        <time>2021-08-17T12:28:14Z</time>
      </trkpt>
      <trkpt lat="44.6857" lon="6.97517">
        <ele>2624.06</ele>
        <time>2021-08-17T12:28:20Z</time>
      </trkpt>
      <trkpt lat="44.68576" lon="6.97518">
        <ele>2625.5</ele>
        <time>2021-08-17T12:28:26Z</time>
      </trkpt>
      <trkpt lat="44.68584" lon="6.97519">
        <ele>2624.54</ele>
        <time>2021-08-17T12:28:35Z</time>
      </trkpt>
      <trkpt lat="44.68589" lon="6.97518">
        <ele>2624.54</ele>
        <time>2021-08-17T12:28:42Z</time>
      </trkpt>
      <trkpt lat="44.6859" lon="6.97518">
        <ele>2624.54</ele>
        <time>2021-08-17T12:28:43Z</time>
      </trkpt>
      <trkpt lat="44.68594" lon="6.97517">
        <ele>2625.02</ele>
        <time>2021-08-17T12:28:46Z</time>
      </trkpt>
      <trkpt lat="44.68603" lon="6.97515">
        <ele>2625.02</ele>
        <time>2021-08-17T12:28:54Z</time>
      </trkpt>
      <trkpt lat="44.68608" lon="6.97515">
        <ele>2625.02</ele>
        <time>2021-08-17T12:28:59Z</time>
      </trkpt>
      <trkpt lat="44.68615" lon="6.97513">
        <ele>2625.02</ele>
        <time>2021-08-17T12:29:06Z</time>
      </trkpt>
      <trkpt lat="44.68625" lon="6.9751">
        <ele>2625.5</ele>
        <time>2021-08-17T12:29:13Z</time>
      </trkpt>
      <trkpt lat="44.68631" lon="6.97506">
        <ele>2625.02</ele>
        <time>2021-08-17T12:29:20Z</time>
      </trkpt>
      <trkpt lat="44.68636" lon="6.97505">
        <ele>2624.54</ele>
        <time>2021-08-17T12:29:24Z</time>
      </trkpt>
      <trkpt lat="44.68638" lon="6.97502">
        <ele>2624.54</ele>
        <time>2021-08-17T12:29:27Z</time>
      </trkpt>
      <trkpt lat="44.6864" lon="6.97502">
        <ele>2624.54</ele>
        <time>2021-08-17T12:29:29Z</time>
      </trkpt>
      <trkpt lat="44.6865" lon="6.97499">
        <ele>2626.46</ele>
        <time>2021-08-17T12:29:39Z</time>
      </trkpt>
      <trkpt lat="44.68654" lon="6.97498">
        <ele>2625.98</ele>
        <time>2021-08-17T12:29:43Z</time>
      </trkpt>
      <trkpt lat="44.68663" lon="6.97496">
        <ele>2625.5</ele>
        <time>2021-08-17T12:29:50Z</time>
      </trkpt>
      <trkpt lat="44.6867" lon="6.97492">
        <ele>2624.54</ele>
        <time>2021-08-17T12:29:58Z</time>
      </trkpt>
      <trkpt lat="44.68676" lon="6.97493">
        <ele>2623.09</ele>
        <time>2021-08-17T12:30:05Z</time>
      </trkpt>
      <trkpt lat="44.68677" lon="6.97491">
        <ele>2622.61</ele>
        <time>2021-08-17T12:30:07Z</time>
      </trkpt>
      <trkpt lat="44.68681" lon="6.97489">
        <ele>2622.13</ele>
        <time>2021-08-17T12:30:11Z</time>
      </trkpt>
      <trkpt lat="44.68687" lon="6.97489">
        <ele>2620.69</ele>
        <time>2021-08-17T12:30:17Z</time>
      </trkpt>
      <trkpt lat="44.68688" lon="6.97489">
        <ele>2620.21</ele>
        <time>2021-08-17T12:30:19Z</time>
      </trkpt>
      <trkpt lat="44.68689" lon="6.97492">
        <ele>2619.25</ele>
        <time>2021-08-17T12:30:21Z</time>
      </trkpt>
      <trkpt lat="44.68694" lon="6.97494">
        <ele>2616.85</ele>
        <time>2021-08-17T12:30:28Z</time>
      </trkpt>
      <trkpt lat="44.68695" lon="6.97492">
        <ele>2616.37</ele>
        <time>2021-08-17T12:30:30Z</time>
      </trkpt>
      <trkpt lat="44.68703" lon="6.97488">
        <ele>2615.88</ele>
        <time>2021-08-17T12:30:37Z</time>
      </trkpt>
      <trkpt lat="44.68708" lon="6.97482">
        <ele>2615.88</ele>
        <time>2021-08-17T12:30:45Z</time>
      </trkpt>
      <trkpt lat="44.68713" lon="6.97477">
        <ele>2615.88</ele>
        <time>2021-08-17T12:30:52Z</time>
      </trkpt>
      <trkpt lat="44.68722" lon="6.97475">
        <ele>2615.88</ele>
        <time>2021-08-17T12:31:00Z</time>
      </trkpt>
      <trkpt lat="44.68728" lon="6.97474">
        <ele>2615.4</ele>
        <time>2021-08-17T12:31:06Z</time>
      </trkpt>
      <trkpt lat="44.68736" lon="6.97474">
        <ele>2616.85</ele>
        <time>2021-08-17T12:31:12Z</time>
      </trkpt>
      <trkpt lat="44.68745" lon="6.97475">
        <ele>2615.88</ele>
        <time>2021-08-17T12:31:19Z</time>
      </trkpt>
      <trkpt lat="44.68749" lon="6.97475">
        <ele>2616.37</ele>
        <time>2021-08-17T12:31:24Z</time>
      </trkpt>
      <trkpt lat="44.6875" lon="6.97474">
        <ele>2616.37</ele>
        <time>2021-08-17T12:31:26Z</time>
      </trkpt>
      <trkpt lat="44.6876" lon="6.97471">
        <ele>2617.33</ele>
        <time>2021-08-17T12:31:35Z</time>
      </trkpt>
      <trkpt lat="44.68768" lon="6.97469">
        <ele>2617.81</ele>
        <time>2021-08-17T12:31:43Z</time>
      </trkpt>
      <trkpt lat="44.68775" lon="6.97466">
        <ele>2617.81</ele>
        <time>2021-08-17T12:31:51Z</time>
      </trkpt>
      <trkpt lat="44.68781" lon="6.97462">
        <ele>2616.85</ele>
        <time>2021-08-17T12:31:58Z</time>
      </trkpt>
      <trkpt lat="44.68784" lon="6.97462">
        <ele>2615.4</ele>
        <time>2021-08-17T12:32:02Z</time>
      </trkpt>
      <trkpt lat="44.68791" lon="6.97461">
        <ele>2615.4</ele>
        <time>2021-08-17T12:32:09Z</time>
      </trkpt>
      <trkpt lat="44.68797" lon="6.97462">
        <ele>2615.4</ele>
        <time>2021-08-17T12:32:13Z</time>
      </trkpt>
      <trkpt lat="44.68804" lon="6.97462">
        <ele>2615.4</ele>
        <time>2021-08-17T12:32:20Z</time>
      </trkpt>
      <trkpt lat="44.68808" lon="6.9746">
        <ele>2614.44</ele>
        <time>2021-08-17T12:32:25Z</time>
      </trkpt>
      <trkpt lat="44.68816" lon="6.97457">
        <ele>2613.48</ele>
        <time>2021-08-17T12:32:32Z</time>
      </trkpt>
      <trkpt lat="44.68821" lon="6.97452">
        <ele>2612.04</ele>
        <time>2021-08-17T12:32:38Z</time>
      </trkpt>
      <trkpt lat="44.68824" lon="6.9745">
        <ele>2612.04</ele>
        <time>2021-08-17T12:32:43Z</time>
      </trkpt>
      <trkpt lat="44.68828" lon="6.97446">
        <ele>2611.08</ele>
        <time>2021-08-17T12:32:48Z</time>
      </trkpt>
      <trkpt lat="44.68832" lon="6.97447">
        <ele>2610.12</ele>
        <time>2021-08-17T12:32:52Z</time>
      </trkpt>
      <trkpt lat="44.68841" lon="6.97444">
        <ele>2609.64</ele>
        <time>2021-08-17T12:33:00Z</time>
      </trkpt>
      <trkpt lat="44.68848" lon="6.97444">
        <ele>2610.12</ele>
        <time>2021-08-17T12:33:08Z</time>
      </trkpt>
      <trkpt lat="44.68855" lon="6.97446">
        <ele>2611.56</ele>
        <time>2021-08-17T12:33:16Z</time>
      </trkpt>
      <trkpt lat="44.68858" lon="6.97447">
        <ele>2611.56</ele>
        <time>2021-08-17T12:33:18Z</time>
      </trkpt>
      <trkpt lat="44.68864" lon="6.97451">
        <ele>2613.48</ele>
        <time>2021-08-17T12:33:23Z</time>
      </trkpt>
      <trkpt lat="44.68873" lon="6.97458">
        <ele>2614.92</ele>
        <time>2021-08-17T12:33:32Z</time>
      </trkpt>
      <trkpt lat="44.6888" lon="6.97463">
        <ele>2614.92</ele>
        <time>2021-08-17T12:33:40Z</time>
      </trkpt>
      <trkpt lat="44.68885" lon="6.97471">
        <ele>2616.37</ele>
        <time>2021-08-17T12:33:48Z</time>
      </trkpt>
      <trkpt lat="44.68888" lon="6.97479">
        <ele>2616.37</ele>
        <time>2021-08-17T12:33:54Z</time>
      </trkpt>
      <trkpt lat="44.68888" lon="6.97484">
        <ele>2615.88</ele>
        <time>2021-08-17T12:33:59Z</time>
      </trkpt>
      <trkpt lat="44.68887" lon="6.9749">
        <ele>2613.48</ele>
        <time>2021-08-17T12:34:06Z</time>
      </trkpt>
      <trkpt lat="44.68889" lon="6.97497">
        <ele>2613</ele>
        <time>2021-08-17T12:34:13Z</time>
      </trkpt>
      <trkpt lat="44.68889" lon="6.975">
        <ele>2613</ele>
        <time>2021-08-17T12:34:15Z</time>
      </trkpt>
      <trkpt lat="44.6889" lon="6.97508">
        <ele>2613.96</ele>
        <time>2021-08-17T12:34:22Z</time>
      </trkpt>
      <trkpt lat="44.68891" lon="6.9751">
        <ele>2613.96</ele>
        <time>2021-08-17T12:34:24Z</time>
      </trkpt>
      <trkpt lat="44.68894" lon="6.97523">
        <ele>2618.29</ele>
        <time>2021-08-17T12:34:32Z</time>
      </trkpt>
      <trkpt lat="44.68896" lon="6.9753">
        <ele>2619.25</ele>
        <time>2021-08-17T12:34:38Z</time>
      </trkpt>
      <trkpt lat="44.68898" lon="6.97539">
        <ele>2621.17</ele>
        <time>2021-08-17T12:34:45Z</time>
      </trkpt>
      <trkpt lat="44.689" lon="6.97543">
        <ele>2621.65</ele>
        <time>2021-08-17T12:34:51Z</time>
      </trkpt>
      <trkpt lat="44.68902" lon="6.97548">
        <ele>2621.65</ele>
        <time>2021-08-17T12:34:56Z</time>
      </trkpt>
      <trkpt lat="44.68903" lon="6.97557">
        <ele>2621.65</ele>
        <time>2021-08-17T12:35:02Z</time>
      </trkpt>
      <trkpt lat="44.68905" lon="6.97562">
        <ele>2622.13</ele>
        <time>2021-08-17T12:35:06Z</time>
      </trkpt>
      <trkpt lat="44.68905" lon="6.97572">
        <ele>2623.09</ele>
        <time>2021-08-17T12:35:13Z</time>
      </trkpt>
      <trkpt lat="44.68908" lon="6.97578">
        <ele>2623.58</ele>
        <time>2021-08-17T12:35:17Z</time>
      </trkpt>
      <trkpt lat="44.68911" lon="6.97585">
        <ele>2623.58</ele>
        <time>2021-08-17T12:35:24Z</time>
      </trkpt>
      <trkpt lat="44.68915" lon="6.97589">
        <ele>2623.09</ele>
        <time>2021-08-17T12:35:30Z</time>
      </trkpt>
      <trkpt lat="44.68923" lon="6.97587">
        <ele>2623.09</ele>
        <time>2021-08-17T12:35:39Z</time>
      </trkpt>
      <trkpt lat="44.68929" lon="6.97586">
        <ele>2622.61</ele>
        <time>2021-08-17T12:35:47Z</time>
      </trkpt>
      <trkpt lat="44.68933" lon="6.97585">
        <ele>2623.09</ele>
        <time>2021-08-17T12:35:50Z</time>
      </trkpt>
      <trkpt lat="44.68939" lon="6.97587">
        <ele>2623.58</ele>
        <time>2021-08-17T12:35:57Z</time>
      </trkpt>
      <trkpt lat="44.68947" lon="6.97589">
        <ele>2624.06</ele>
        <time>2021-08-17T12:36:04Z</time>
      </trkpt>
      <trkpt lat="44.68948" lon="6.9759">
        <ele>2624.54</ele>
        <time>2021-08-17T12:36:05Z</time>
      </trkpt>
      <trkpt lat="44.68948" lon="6.97593">
        <ele>2625.02</ele>
        <time>2021-08-17T12:36:11Z</time>
      </trkpt>
      <trkpt lat="44.68949" lon="6.97591">
        <ele>2624.54</ele>
        <time>2021-08-17T12:36:18Z</time>
      </trkpt>
      <trkpt lat="44.68949" lon="6.97591">
        <ele>2624.06</ele>
        <time>2021-08-17T12:36:27Z</time>
      </trkpt>
      <trkpt lat="44.6895" lon="6.97589">
        <ele>2624.54</ele>
        <time>2021-08-17T12:36:37Z</time>
      </trkpt>
      <trkpt lat="44.6895" lon="6.97589">
        <ele>2624.54</ele>
        <time>2021-08-17T12:36:39Z</time>
      </trkpt>
      <trkpt lat="44.68956" lon="6.97587">
        <ele>2625.02</ele>
        <time>2021-08-17T12:36:46Z</time>
      </trkpt>
      <trkpt lat="44.68956" lon="6.97588">
        <ele>2625.5</ele>
        <time>2021-08-17T12:36:53Z</time>
      </trkpt>
      <trkpt lat="44.68955" lon="6.97588">
        <ele>2625.5</ele>
        <time>2021-08-17T12:36:59Z</time>
      </trkpt>
      <trkpt lat="44.68955" lon="6.97588">
        <ele>2625.5</ele>
        <time>2021-08-17T12:37:08Z</time>
      </trkpt>
      <trkpt lat="44.68956" lon="6.97588">
        <ele>2625.5</ele>
        <time>2021-08-17T12:37:12Z</time>
      </trkpt>
      <trkpt lat="44.68964" lon="6.97584">
        <ele>2624.54</ele>
        <time>2021-08-17T12:37:19Z</time>
      </trkpt>
      <trkpt lat="44.68974" lon="6.97579">
        <ele>2623.58</ele>
        <time>2021-08-17T12:37:28Z</time>
      </trkpt>
      <trkpt lat="44.68979" lon="6.97577">
        <ele>2623.58</ele>
        <time>2021-08-17T12:37:33Z</time>
      </trkpt>
      <trkpt lat="44.68981" lon="6.97576">
        <ele>2623.58</ele>
        <time>2021-08-17T12:37:35Z</time>
      </trkpt>
      <trkpt lat="44.68984" lon="6.97575">
        <ele>2625.02</ele>
        <time>2021-08-17T12:37:43Z</time>
      </trkpt>
      <trkpt lat="44.68984" lon="6.97574">
        <ele>2624.54</ele>
        <time>2021-08-17T12:37:50Z</time>
      </trkpt>
      <trkpt lat="44.68986" lon="6.97575">
        <ele>2624.54</ele>
        <time>2021-08-17T12:38:02Z</time>
      </trkpt>
      <trkpt lat="44.68993" lon="6.97572">
        <ele>2623.58</ele>
        <time>2021-08-17T12:38:08Z</time>
      </trkpt>
      <trkpt lat="44.69001" lon="6.97571">
        <ele>2622.61</ele>
        <time>2021-08-17T12:38:16Z</time>
      </trkpt>
      <trkpt lat="44.69005" lon="6.97578">
        <ele>2621.17</ele>
        <time>2021-08-17T12:38:24Z</time>
      </trkpt>
      <trkpt lat="44.69009" lon="6.97587">
        <ele>2620.21</ele>
        <time>2021-08-17T12:38:31Z</time>
      </trkpt>
      <trkpt lat="44.69012" lon="6.97594">
        <ele>2620.21</ele>
        <time>2021-08-17T12:38:38Z</time>
      </trkpt>
      <trkpt lat="44.69017" lon="6.97607">
        <ele>2621.17</ele>
        <time>2021-08-17T12:38:47Z</time>
      </trkpt>
      <trkpt lat="44.69022" lon="6.97614">
        <ele>2620.21</ele>
        <time>2021-08-17T12:38:55Z</time>
      </trkpt>
      <trkpt lat="44.69026" lon="6.97624">
        <ele>2620.21</ele>
        <time>2021-08-17T12:39:01Z</time>
      </trkpt>
      <trkpt lat="44.69033" lon="6.97636">
        <ele>2620.69</ele>
        <time>2021-08-17T12:39:10Z</time>
      </trkpt>
      <trkpt lat="44.69035" lon="6.97643">
        <ele>2621.17</ele>
        <time>2021-08-17T12:39:18Z</time>
      </trkpt>
      <trkpt lat="44.69035" lon="6.97645">
        <ele>2621.65</ele>
        <time>2021-08-17T12:39:25Z</time>
      </trkpt>
      <trkpt lat="44.69034" lon="6.97644">
        <ele>2622.13</ele>
        <time>2021-08-17T12:39:30Z</time>
      </trkpt>
      <trkpt lat="44.69035" lon="6.97644">
        <ele>2622.61</ele>
        <time>2021-08-17T12:39:39Z</time>
      </trkpt>
      <trkpt lat="44.69034" lon="6.97644">
        <ele>2623.58</ele>
        <time>2021-08-17T12:39:54Z</time>
      </trkpt>
    </trkseg>
  </trk>
</gpx>